Date StartTime U_cm/s V_cm/s W_cm/s Ustd_cm/s Vstd_cm/s Wstd_cm/s Uvar_(cm/s)^2 Vvar_(cm/s)^2 Wvar_(cm/s)^2 KE_(m/s)^2 TurbulentKE_(m/s)^2 HorizWindSpeed_cm/s FrictionSpeec_cm/s DragCoef SpeedOfSound_m/s SonicTemperature_C Pressure_mb 
05/28/2013  00:00:00     -383.703     -113.412      -17.604      202.028      135.699       73.276    40815.415    18414.347     5369.434       11.249        3.230      400.113       70.789        0.031      339.235       12.428      857.465
05/28/2013  00:01:00     -390.444     -198.938      -23.366      154.820      143.033       82.258    23969.212    20458.468     6766.338       12.187        2.560      438.204       82.302        0.035      339.258       12.464      857.432
05/28/2013  00:02:00     -321.225     -187.431       -2.050      225.520      153.305      103.633    50859.099    23502.541    10739.809       11.170        4.255      371.908      119.392        0.103      339.302       12.538      857.373
05/28/2013  00:03:00     -240.410      -74.560       15.591      182.818      143.642       88.220    33422.431    20633.145     7782.755        6.271        3.092      251.707      103.534        0.169      339.303       12.541      857.327
05/28/2013  00:04:00     -382.564     -137.483      -13.631      218.281      138.186       76.762    47646.583    19095.327     5892.425       11.903        3.632      406.518       84.213        0.043      339.308       12.548      857.288
05/28/2013  00:05:00     -365.611     -134.179      -20.055      203.923      138.977       77.319    41584.480    19314.590     5978.208       10.947        3.344      389.456       93.285        0.057      339.308       12.548      857.251
05/28/2013  00:06:00     -496.298     -264.475      -26.448      210.237      203.888       92.700    44199.580    41570.142     8593.362       20.564        4.718      562.369       89.283        0.025      339.323       12.573      857.246
05/28/2013  00:07:00     -291.563      -43.282        5.655      202.276      127.614       93.442    40915.580    16285.386     8731.407        7.641        3.297      294.758      109.925        0.139      339.304       12.542      857.266
05/28/2013  00:08:00     -332.897      -62.035       -9.199      186.010      149.730       82.119    34599.645    22419.013     6743.469        8.925        3.188      338.628       76.162        0.051      339.305       12.543      857.330
05/28/2013  00:09:00     -445.761     -208.712      -17.876      206.581      207.899       93.871    42675.691    43222.059     8811.788       16.863        4.735      492.202      106.207        0.047      339.332       12.589      857.373
05/28/2013  00:10:00     -377.452     -126.267       -8.659      201.445      169.063       93.950    40580.022    28582.386     8826.638       11.823        3.899      398.012      100.364        0.064      339.306       12.545      857.385
05/28/2013  00:11:00     -358.767     -228.977       10.702      250.346      199.642      104.156    62673.232    39856.960    10848.450       14.730        5.669      425.611      122.505        0.083      339.339       12.601      857.371
05/28/2013  00:12:00     -399.193     -125.551      -15.351      217.057      196.479       93.226    47113.747    38604.097     8691.144       13.487        4.720      418.471      114.096        0.074      339.335       12.594      857.347
05/28/2013  00:13:00     -280.402     -222.659       10.385      228.659      203.252      116.563    52284.793    41311.381    13586.913       11.773        5.359      358.053      132.667        0.137      339.338       12.598      857.306
05/28/2013  00:14:00     -316.212     -175.011      -18.303      183.485      111.377       81.667    33666.686    12404.836     6669.500        9.184        2.637      361.412       75.167        0.043      339.341       12.603      857.295
05/28/2013  00:15:00     -328.228      -94.426       -1.420      208.565      155.136       80.809    43499.426    24067.128     6530.058        9.536        3.705      341.540       73.854        0.047      339.325       12.576      857.254
05/28/2013  00:16:00     -290.073     -130.932       -7.311      185.255      143.199       72.091    34319.502    20506.013     5197.107        8.067        3.001      318.254       78.323        0.061      339.331       12.587      857.243
05/28/2013  00:17:00     -302.438      -85.861       -2.731      207.691      177.193       72.863    43135.472    31397.417     5308.999        8.933        3.992      314.390       82.778        0.069      339.339       12.600      857.227
05/28/2013  00:18:00     -453.604     -306.642      -25.225      251.260      194.301      119.267    63131.427    37752.908    14224.597       20.775        5.755      547.527      134.097        0.060      339.346       12.613      857.221
05/28/2013  00:19:00     -336.817     -207.846       -0.661      213.324      148.626       90.316    45507.257    22089.763     8157.057       11.619        3.788      395.784      108.371        0.075      339.323       12.573      857.243
05/28/2013  00:20:00     -330.280     -141.042       -6.002      149.288      105.489       71.116    22286.957    11127.859     5057.537        8.374        1.924      359.135       72.683        0.041      339.303       12.539      857.269
05/28/2013  00:21:00     -336.889     -160.866      -24.620      212.520      117.323       79.802    45164.545    13764.736     6368.285       10.263        3.265      373.326       81.684        0.048      339.310       12.552      857.242
05/28/2013  00:22:00     -343.846     -163.541       -6.278      153.608      152.873       76.065    23595.480    23370.129     5785.886        9.887        2.638      380.757       88.998        0.055      339.292       12.523      857.242
05/28/2013  00:23:00     -343.411     -161.383       -7.956      171.394      123.272       81.527    29375.835    15195.866     6646.695        9.762        2.561      379.441       79.219        0.044      339.290       12.520      857.217
05/28/2013  00:24:00     -310.517     -130.910        7.568      224.591      173.852       88.301    50441.137    30224.360     7797.108       10.102        4.423      336.984      106.697        0.100      339.297       12.530      857.165
05/28/2013  00:25:00     -357.926     -211.055       -5.634      273.911      148.064       83.820    75027.160    21922.939     7025.754       13.831        5.199      415.517      100.933        0.059      339.311       12.553      857.158
05/28/2013  00:26:00     -457.160     -189.659      -24.347      196.565      221.744       80.422    38637.730    49170.522     6467.768       16.990        4.714      494.940       99.459        0.040      339.311       12.553      857.151
05/28/2013  00:27:00     -387.970     -218.468       -8.786      208.482      195.986       92.594    43464.890    38410.483     8573.592       14.437        4.522      445.251       88.725        0.040      339.315       12.559      857.130
05/28/2013  00:28:00     -181.897     -122.207       22.431      176.418      145.819       93.481    31123.447    21263.158     8738.651        5.481        3.056      219.137      112.838        0.265      339.301       12.538      857.132
05/28/2013  00:29:00     -323.893     -107.149        2.320      219.636      169.590       96.563    48239.970    28760.817     9324.379       10.134        4.316      341.156      105.295        0.095      339.287       12.514      857.120
05/28/2013  00:30:00     -233.813     -126.514        7.389      156.788      146.410       74.707    24582.327    21435.996     5581.074        6.116        2.580      265.846       67.990        0.065      339.275       12.495      857.137
05/28/2013  00:31:00     -280.726     -122.887      -11.620      164.430      135.445       79.404    27037.132    18345.338     6304.955        7.286        2.584      306.444       87.992        0.082      339.290       12.518      857.131
05/28/2013  00:32:00     -274.928      -66.898        2.882      172.627      140.195       75.810    29800.106    19654.731     5747.124        6.763        2.760      282.951       90.462        0.102      339.261       12.471      857.106
05/28/2013  00:33:00     -256.675      -64.557       -9.026      111.695      115.213       54.548    12475.873    13274.068     2975.449        4.942        1.436      264.669       46.611        0.031      339.248       12.448      857.131
05/28/2013  00:34:00     -377.954     -150.395      -26.012      168.203      165.149       70.988    28292.273    27274.150     5039.263       11.337        3.030      406.778       67.749        0.028      339.272       12.490      857.123
05/28/2013  00:35:00     -235.831      -82.567       16.855      161.160      131.932       82.057    25972.681    17406.037     6733.278        5.641        2.506      249.867       81.725        0.107      339.264       12.476      857.121
05/28/2013  00:36:00     -343.238      -52.554       -4.477      164.793      157.462       74.106    27156.797    24794.251     5491.679        8.901        2.872      347.238       71.216        0.042      339.265       12.475      857.150
05/28/2013  00:37:00     -293.840      -32.698      -16.241      171.574      120.788       58.959    29437.784    14589.679     3476.123        6.758        2.375      295.654       59.021        0.040      339.261       12.472      857.201
05/28/2013  00:38:00     -213.634      -54.408        6.955      136.138      133.020       76.135    18533.520    17694.232     5796.473        4.533        2.101      220.454       71.274        0.105      339.257       12.463      857.251
05/28/2013  00:39:00     -309.667        1.121      -13.447      157.880      105.800       62.245    24926.088    11193.543     3874.472        6.803        2.000      309.669       56.851        0.034      339.254       12.460      857.285
05/28/2013  00:40:00     -302.491      -57.863       -2.429      215.890      128.049       73.752    46608.510    16396.494     5439.300        8.164        3.422      307.976       96.204        0.098      339.276       12.495      857.289
05/28/2013  00:41:00     -264.146      -88.336       -6.891      152.701      125.179       75.968    23317.665    15669.703     5771.129        6.118        2.238      278.525       82.192        0.087      339.288       12.515      857.272
05/28/2013  00:42:00     -318.623     -127.478      -12.574      190.039      118.628       58.916    36114.885    14072.633     3471.068        8.578        2.683      343.178       73.423        0.046      339.295       12.528      857.282
05/28/2013  00:43:00     -294.102      -53.947       11.356      227.978      105.790       82.351    51973.860    11191.602     6781.627        7.973        3.497      299.009       99.039        0.110      339.274       12.492      857.278
05/28/2013  00:44:00     -213.513     -133.499       12.987      188.513      153.133       67.901    35537.021    23449.616     4610.572        6.358        3.180      251.813       72.402        0.083      339.278       12.499      857.271
05/28/2013  00:45:00     -285.534      -95.034       13.931      185.243      115.888       80.316    34314.900    13430.048     6450.653        7.247        2.710      300.934       88.374        0.086      339.249       12.449      857.254
05/28/2013  00:46:00     -312.382      -93.496      -11.990      147.629      150.170       75.712    21794.243    22551.106     5732.258        7.826        2.504      326.074       83.257        0.065      339.201       12.371      857.242
05/28/2013  00:47:00     -297.687      -60.947        0.840      232.644      147.025       85.706    54123.022    21616.319     7345.588        8.769        4.154      303.862      110.668        0.133      339.149       12.282      857.231
05/28/2013  00:48:00     -461.267      -63.771      -14.654      231.159      143.879       83.241    53434.475    20701.098     6929.128       14.904        4.053      465.654       99.185        0.045      339.104       12.206      857.240
05/28/2013  00:49:00     -357.658     -102.681      -23.163      189.335      128.651       69.141    35847.587    16551.113     4780.451        9.808        2.859      372.105       81.714        0.048      339.014       12.056      857.251
05/28/2013  00:50:00     -427.946      -76.363      -26.665      208.771      116.339       81.664    43585.210    13534.781     6668.933       12.672        3.189      434.705       92.256        0.045      339.006       12.041      857.271
05/28/2013  00:51:00     -246.758      -84.940       11.370      184.516      102.723       75.950    34046.057    10552.067     5768.469        5.929        2.518      260.968       92.166        0.125      338.973       11.986      857.295
05/28/2013  00:52:00     -273.363     -208.781      -11.816      215.361      171.962      106.709    46380.338    29570.763    11386.786       10.288        4.367      343.972      122.282        0.126      338.991       12.016      857.307
05/28/2013  00:53:00     -273.134     -129.771      -15.725      186.045      121.813       81.677    34612.600    14838.368     6671.107        7.390        2.806      302.394       85.483        0.080      338.981       12.000      857.315
05/28/2013  00:54:00     -306.636      -72.420      -15.598      180.796      102.481       56.319    32687.209    10502.456     3171.872        7.293        2.318      315.072       68.881        0.048      338.935       11.922      857.281
05/28/2013  00:55:00     -283.376     -107.969       -6.842      158.314      110.200       62.031    25063.462    12143.941     3847.898        6.652        2.053      303.248       68.831        0.052      338.911       11.882      857.214
05/28/2013  00:56:00     -222.619     -163.641       10.650      179.482      138.995       85.656    32213.855    19319.647     7336.882        6.765        2.944      276.292       93.099        0.114      338.949       11.946      857.132
05/28/2013  00:57:00     -173.621      -82.805        2.048      140.165       92.107       64.303    19646.257     8483.772     4134.923        3.463        1.613      192.356       61.270        0.101      338.894       11.852      857.102
05/28/2013  00:58:00     -207.410      -63.869       -8.516      160.503       80.817       54.492    25761.216     6531.452     2969.379        4.121        1.763      217.021       60.985        0.079      338.839       11.761      857.105
05/28/2013  00:59:00     -286.017      -91.961       -6.244      131.649       88.477       60.684    17331.455     7828.199     3682.537        5.957        1.442      300.437       70.477        0.055      338.852       11.782      857.101
05/28/2013  01:00:00     -229.527     -126.599      -13.973      145.135      137.569       57.900    21064.310    18925.295     3352.442        5.612        2.167      262.126       59.957        0.052      338.840       11.762      857.096
05/28/2013  01:01:00     -212.624     -154.432        2.314      149.061      127.432       92.223    22219.043    16239.019     8505.011        5.801        2.348      262.789       95.967        0.133      338.842       11.767      857.083
05/28/2013  01:02:00     -228.787      -90.899       -6.716      113.322      127.675       68.555    12841.942    16301.016     4699.753        4.724        1.692      246.183       68.040        0.076      338.868       11.810      857.055
05/28/2013  01:03:00     -308.710      -73.862      -22.697      111.100      103.355       57.161    12343.256    10682.212     3267.387        6.378        1.315      317.423       46.564        0.022      338.797       11.690      857.031
05/28/2013  01:04:00     -309.967      -42.597       -7.306      110.755       73.688       47.304    12266.637     5429.975     2237.637        5.894        0.997      312.880       49.778        0.025      338.774       11.651      857.021
05/28/2013  01:05:00     -287.025      -80.088      -14.988      111.418       80.034       53.726    12413.944     6405.371     2886.464        5.536        1.085      297.989       55.288        0.034      338.757       11.623      857.040
05/28/2013  01:06:00     -273.972     -117.926      -13.569      103.111      117.958       46.707    10631.826    13914.134     2181.515        5.793        1.336      298.273       51.611        0.030      338.772       11.647      857.064
05/28/2013  01:07:00     -246.320       -6.146      -17.950       73.950       56.050       33.658     5468.658     3141.555     1132.861        3.539        0.487      246.396       33.642        0.019      338.734       11.583      857.073
05/28/2013  01:08:00     -243.942      -39.090       -5.555      153.675       74.309       57.209    23616.037     5521.836     3272.905        4.673        1.621      247.054       74.343        0.091      338.763       11.633      857.050
05/28/2013  01:09:00     -215.344       28.149      -10.314      155.791       88.788       61.215    24270.909     7883.260     3747.335        4.158        1.795      217.176       78.693        0.131      338.700       11.526      857.038
05/28/2013  01:10:00     -279.191       21.775      -20.431      101.203       73.103       44.140    10242.096     5344.110     1948.360        4.818        0.877      280.039       40.682        0.021      338.683       11.498      857.039
05/28/2013  01:11:00     -303.748       47.072      -27.587       71.383       81.915       41.742     5095.489     6710.017     1742.379        5.439        0.677      307.373       26.435        0.007      338.644       11.431      857.067
05/28/2013  01:12:00     -182.166      -52.767       -5.540      104.483       77.467       36.909    10916.680     6001.197     1362.249        2.714        0.914      189.655       38.474        0.041      338.593       11.347      857.107
05/28/2013  01:13:00     -157.897      -83.116      -16.872       63.135       90.953       34.686     3986.039     8272.396     1203.098        2.279        0.673      178.437       23.264        0.017      338.597       11.353      857.116
05/28/2013  01:14:00     -263.000      -40.228      -13.633       90.049       82.901       43.571     8108.876     6872.650     1898.426        4.392        0.844      266.059       33.415        0.016      338.585       11.333      857.087
05/28/2013  01:15:00     -266.014      -66.919       -5.333      127.722       90.762       53.418    16312.942     8237.760     2853.472        5.133        1.370      274.302       42.678        0.024      338.596       11.353      857.017
05/28/2013  01:16:00     -217.713      -40.358       -7.472      120.235       73.885       36.578    14456.422     5459.001     1337.961        3.516        1.063      221.422       35.538        0.026      338.584       11.332      856.933
05/28/2013  01:17:00     -184.968      -37.717       -7.702       83.279       52.287       34.235     6935.422     2733.914     1172.030        2.327        0.542      188.774       36.700        0.038      338.554       11.283      856.906
05/28/2013  01:18:00     -158.191      -64.623       -6.439       71.399       68.911       38.187     5097.772     4748.662     1458.257        2.027        0.565      170.881       29.154        0.029      338.575       11.319      856.868
05/28/2013  01:19:00     -185.337      -63.146        9.265      120.892      110.420       52.754    14614.959    12192.610     2782.994        3.400        1.480      195.799       64.248        0.108      338.559       11.291      856.861
05/28/2013  01:20:00     -167.195      -28.791      -10.576       86.521       71.061       38.580     7485.832     5049.630     1488.401        2.146        0.701      169.656       37.106        0.048      338.558       11.288      856.863
05/28/2013  01:21:00     -197.332      -96.883       -2.357      104.576       92.842       47.527    10936.116     8619.621     2258.829        3.507        1.091      219.832       50.744        0.053      338.571       11.311      856.883
05/28/2013  01:22:00     -115.738      -69.034        0.656      100.906       96.191       53.025    10181.991     9252.649     2811.674        2.020        1.112      134.762       51.583        0.147      338.587       11.338      856.886
05/28/2013  01:23:00     -273.059       -6.956      -13.769      109.100      106.147       58.241    11902.735    11267.255     3391.977        5.068        1.328      273.147       32.346        0.014      338.592       11.345      856.819
05/28/2013  01:24:00     -155.052       -8.294       12.023      145.093       86.927       58.644    21051.955     7556.247     3439.143        2.815        1.602      155.274       63.167        0.165      338.615       11.385      856.772
05/28/2013  01:25:00     -133.678      -51.588       -7.253       95.563       83.868       45.043     9132.313     7033.761     2028.915        1.939        0.910      143.287       52.012        0.132      338.613       11.381      856.731
05/28/2013  01:26:00     -200.338      -52.462       -9.683       92.004       83.277       44.662     8464.734     6935.065     1994.653        3.018        0.870      207.093       48.825        0.056      338.617       11.389      856.692
05/28/2013  01:27:00     -103.215      -38.144        1.754       94.642       71.783       35.443     8957.192     5152.846     1256.185        1.374        0.768      110.038       33.106        0.091      338.603       11.365      856.696
05/28/2013  01:28:00     -146.179      -27.123       -3.416       69.907       51.226       36.073     4886.982     2624.080     1301.264        1.546        0.441      148.674       28.450        0.037      338.591       11.346      856.715
05/28/2013  01:29:00     -205.812      -85.763       -6.197       76.629       76.929       40.382     5872.028     5918.107     1630.711        3.158        0.671      222.966       29.293        0.017      338.589       11.342      856.710
05/28/2013  01:30:00     -172.661      -43.878       -6.913       74.852       44.723       29.663     5602.881     2000.107      879.887        2.013        0.424      178.149       34.073        0.037      338.567       11.305      856.723
05/28/2013  01:31:00      -97.676        8.583       10.736       72.012       50.737       32.911     5185.672     2574.207     1083.120        0.928        0.442       98.052       33.893        0.119      338.583       11.334      856.726
05/28/2013  01:32:00      -25.025       -5.687        5.412       59.821       37.346       22.848     3578.495     1394.715      522.036        0.309        0.275       25.664       28.870        1.265      338.608       11.375      856.740
05/28/2013  01:33:00     -127.690      -79.281       -9.750      102.399       66.818       47.327    10485.520     4464.680     2239.853        1.993        0.860      150.300       38.991        0.067      338.643       11.432      856.754
05/28/2013  01:34:00      -23.127      -21.721       16.683       54.150       37.637       23.827     2932.194     1416.509      567.744        0.310        0.246       31.728       29.436        0.861      338.589       11.343      856.803
05/28/2013  01:35:00     -135.903      -58.975      -12.571       79.220       89.133       43.684     6275.744     7944.673     1908.250        1.911        0.806      148.148       44.809        0.091      338.617       11.386      856.856
05/28/2013  01:36:00      -61.834      -53.877       10.672       41.017       59.806       29.241     1682.395     3576.703      855.016        0.648        0.306       82.013       17.296        0.044      338.589       11.343      856.879
05/28/2013  01:37:00      -83.263      -23.428       -0.171       53.373       54.459       28.000     2848.715     2965.742      784.002        0.704        0.330       86.496       17.569        0.041      338.574       11.317      856.917
05/28/2013  01:38:00      -66.779       -3.211       -5.317       35.862       35.429       21.077     1286.085     1255.245      444.250        0.374        0.149       66.856       21.217        0.101      338.602       11.364      856.933
05/28/2013  01:39:00      -89.519        9.079       -4.928       93.306       66.270       35.832     8705.995     4391.665     1283.897        1.125        0.719       89.978       38.066        0.179      338.627       11.407      856.924
05/28/2013  01:40:00     -209.107       28.851      -15.293       84.176       92.416       38.597     7085.557     8540.628     1489.758        3.095        0.856      211.088       42.878        0.041      338.638       11.424      856.935
05/28/2013  01:41:00     -144.974       24.471      -13.754       63.430       51.276       41.147     4023.308     2629.245     1693.108        1.507        0.417      147.025       33.302        0.051      338.619       11.393      856.929
05/28/2013  01:42:00     -189.321       -2.532      -11.393       91.977       63.546       44.612     8459.708     4038.076     1990.224        2.523        0.724      189.338       39.224        0.043      338.669       11.475      856.932
05/28/2013  01:43:00     -291.363        5.146      -28.232       71.882       83.714       43.756     5166.969     7007.980     1914.630        4.990        0.704      291.409       46.664        0.026      338.691       11.510      856.910
05/28/2013  01:44:00     -124.390        6.143       13.148       79.853       73.773       40.861     6376.497     5442.408     1669.645        1.458        0.674      124.542       38.255        0.094      338.638       11.425      856.914
05/28/2013  01:45:00     -158.624      -22.765        1.901       77.843       70.782       41.054     6059.523     5010.135     1685.438        1.922        0.638      160.249       37.498        0.055      338.670       11.479      856.940
05/28/2013  01:46:00     -114.357      -38.706      -12.308       85.188       66.301       50.641     7257.036     4395.842     2564.481        1.447        0.711      120.730       42.078        0.121      338.682       11.497      856.982
05/28/2013  01:47:00     -122.985      -71.214       -6.424      103.166       87.613       45.396    10643.211     7676.034     2060.758        2.031        1.019      142.115       52.633        0.137      338.686       11.505      857.024
05/28/2013  01:48:00     -199.590      -88.551       -8.681       96.101       74.465       49.074     9235.396     5544.964     2408.263        3.247        0.859      218.352       38.324        0.031      338.700       11.527      857.008
05/28/2013  01:49:00     -334.737      -48.428      -29.482       92.025       80.251       48.954     8468.604     6440.290     2396.479        6.628        0.865      338.222       44.932        0.018      338.747       11.606      857.003
05/28/2013  01:50:00     -242.640      -15.692      -17.746      112.786       58.503       45.322    12720.715     3422.548     2054.054        3.881        0.910      243.147       45.992        0.036      338.730       11.578      856.976
05/28/2013  01:51:00     -179.959      -79.493      -12.791      109.230       88.937       48.346    11931.206     7909.874     2337.310        3.052        1.109      196.734       40.086        0.042      338.748       11.609      856.930
05/28/2013  01:52:00     -152.979      -33.014       -1.121       68.317       62.388       49.320     4667.219     3892.245     2432.449        1.774        0.550      156.501       35.327        0.051      338.692       11.516      856.912
05/28/2013  01:53:00      -87.090      -16.427       13.098      103.270       84.740       39.863    10664.781     7180.789     1589.046        1.373        0.972       88.626       36.400        0.169      338.680       11.495      856.888
05/28/2013  01:54:00     -126.522      -96.242       -7.574      107.638       81.597       56.995    11585.898     6658.020     3248.397        2.341        1.075      158.966       48.695        0.094      338.709       11.542      856.833
05/28/2013  01:55:00     -181.415      -73.188       -2.385      177.730       91.901       45.578    31588.088     8445.803     2077.343        4.019        2.106      195.622       63.953        0.107      338.677       11.489      856.735
05/28/2013  01:56:00     -306.067      -53.074      -16.662      122.632       84.378       48.330    15038.682     7119.564     2335.803        6.063        1.225      310.635       57.651        0.034      338.633       11.413      856.667
05/28/2013  01:57:00     -227.188      -20.959       -5.355      121.171       89.003       54.508    14682.443     7921.453     2971.170        3.882        1.279      228.153       54.302        0.057      338.588       11.340      856.653
05/28/2013  01:58:00     -201.775      -44.234        5.824      121.304       81.678       49.061    14714.592     6671.367     2407.002        3.324        1.190      206.566       60.729        0.086      338.585       11.334      856.640
05/28/2013  01:59:00     -237.727       -6.685      -21.174       60.419       56.361       41.088     3650.397     3176.549     1688.199        3.276        0.426      237.821       27.522        0.013      338.525       11.233      856.602
05/28/2013  02:00:00     -164.801      -56.065       -9.661       56.496       58.001       31.553     3191.780     3364.147      995.620        1.897        0.378      174.077       29.880        0.029      338.512       11.212      856.574
05/28/2013  02:01:00     -189.189      -48.154       -9.476       80.920      114.125       40.535     6548.096    13024.584     1643.084        2.970        1.061      195.221       36.119        0.034      338.567       11.305      856.561
05/28/2013  02:02:00      -74.284      -30.896       30.168      115.980       78.807       53.630    13451.307     6210.559     2876.135        1.496        1.127       80.453       66.679        0.687      338.492       11.180      856.599
05/28/2013  02:03:00     -173.730      -32.720       -9.160      139.437       65.664       45.213    19442.543     4311.698     2044.200        2.856        1.290      176.784       52.503        0.088      338.473       11.146      856.636
05/28/2013  02:04:00     -172.673       -5.254       -4.490       76.277       53.074       37.782     5818.221     2816.835     1427.497        1.996        0.503      172.753       41.762        0.058      338.459       11.123      856.629
05/28/2013  02:05:00     -177.834      -26.612       -4.056       75.399       67.538       37.967     5684.941     4561.358     1441.463        2.202        0.584      179.814       40.329        0.050      338.521       11.228      856.601
05/28/2013  02:06:00     -241.589      -23.362      -18.276       79.394       57.661       41.652     6303.333     3324.807     1734.885        3.530        0.568      242.716       42.959        0.031      338.550       11.274      856.570
05/28/2013  02:07:00     -148.984      -83.391        5.241       97.736       70.407       46.264     9552.270     4957.122     2140.348        2.291        0.832      170.735       55.871        0.107      338.531       11.244      856.551
05/28/2013  02:08:00       -9.135      -66.480       13.435       29.203       44.159       23.135      852.837     1950.056      535.222        0.401        0.167       67.104       18.075        0.073      338.539       11.259      856.538
05/28/2013  02:09:00     -103.418      -18.299      -11.487       68.265       54.043       29.026     4660.043     2920.641      842.531        0.979        0.421      105.024       30.832        0.086      338.496       11.187      856.590
05/28/2013  02:10:00     -100.489      -24.061       16.636      105.321       44.300       30.921    11092.423     1962.452      956.132        1.248        0.701      103.330       44.344        0.184      338.485       11.169      856.657
05/28/2013  02:11:00     -148.709      -65.165       -8.057       99.824       50.860       42.622     9964.828     2586.692     1816.667        2.039        0.718      162.360       44.267        0.074      338.473       11.145      856.706
05/28/2013  02:12:00     -263.707      -75.191       -8.599      106.068       60.879       49.203    11250.369     3706.293     2420.908        4.632        0.869      274.217       46.575        0.029      338.470       11.139      856.731
05/28/2013  02:13:00     -260.203      -71.637       -9.910       82.080       81.661       44.567     6737.103     6668.508     1986.195        4.416        0.770      269.884       40.610        0.023      338.456       11.115      856.737
05/28/2013  02:14:00     -222.549     -132.326       -2.998       97.827       82.877       59.951     9570.085     6868.602     3594.088        4.354        1.002      258.918       54.924        0.045      338.466       11.131      856.726
05/28/2013  02:15:00     -158.176      -89.477        6.680      115.658       74.988       48.772    13376.693     5623.152     2378.732        2.722        1.069      181.730       54.085        0.089      338.430       11.072      856.679
05/28/2013  02:16:00      -96.165      -29.745        1.889       38.672       47.102       25.754     1495.506     2218.586      663.293        0.726        0.219      100.660       22.954        0.052      338.440       11.094      856.644
05/28/2013  02:17:00     -181.807      -52.446      -10.954       83.544       90.832       42.767     6979.527     8250.379     1828.992        2.649        0.853      189.220       45.426        0.058      338.441       11.092      856.647
05/28/2013  02:18:00     -126.526       -9.033      -12.544       89.868       50.119       36.865     8076.207     2511.959     1359.038        1.410        0.597      126.848       43.417        0.117      338.446       11.101      856.661
05/28/2013  02:19:00      -86.393      -67.050        8.095       92.813       76.257       41.723     8614.322     5815.200     1740.815        1.410        0.809      109.360       46.242        0.179      338.469       11.141      856.671
05/28/2013  02:20:00     -119.492     -102.966      -12.720       89.168       67.398       40.450     7951.000     4542.430     1636.172        1.958        0.706      157.735       32.667        0.043      338.472       11.144      856.637
05/28/2013  02:21:00     -296.184      -86.277      -10.619      118.148       97.894       42.629    13958.936     9583.214     1817.217        6.032        1.268      308.494       45.982        0.022      338.527       11.235      856.624
05/28/2013  02:22:00     -287.490     -115.046       -9.985      105.993       93.553       52.776    11234.584     8752.070     2785.281        5.937        1.139      309.654       50.191        0.026      338.566       11.301      856.583
05/28/2013  02:23:00     -157.016      -55.856       -7.857       66.151       55.031       36.261     4375.941     3028.379     1314.870        1.828        0.436      166.656       16.738        0.010      338.526       11.235      856.534
05/28/2013  02:24:00     -118.548      -36.072        4.771       78.880       74.337       34.844     6221.979     5526.008     1214.082        1.417        0.648      123.915       38.421        0.096      338.502       11.195      856.516
05/28/2013  02:25:00     -159.583     -116.063      -14.431       72.945       81.531       34.705     5320.956     6647.282     1204.407        2.616        0.659      197.326       34.374        0.030      338.549       11.275      856.483
05/28/2013  02:26:00      -85.272      -38.080       10.272       79.646       56.302       32.490     6343.412     3169.931     1055.613        0.970        0.528       93.389       35.869        0.148      338.525       11.235      856.455
05/28/2013  02:27:00     -134.908      -47.723      -12.723       54.552       46.413       29.904     2975.957     2154.212      894.252        1.333        0.301      143.100       25.363        0.031      338.551       11.280      856.433
05/28/2013  02:28:00     -192.458      -45.458       -2.366       96.975       70.486       45.419     9404.111     4968.286     2062.884        2.777        0.822      197.754       51.305        0.067      338.539       11.256      856.449
05/28/2013  02:29:00     -140.873     -102.875       -2.795      124.019       63.249       34.850    15380.718     4000.466     1214.541        2.551        1.030      174.438       40.157        0.053      338.529       11.242      856.419
05/28/2013  02:30:00     -276.287      -67.084      -16.739       73.189       58.430       38.323     5356.636     3414.103     1468.668        4.568        0.512      284.315       34.508        0.015      338.514       11.213      856.386
05/28/2013  02:31:00     -146.417      -72.069        0.771       51.288       33.476       27.725     2630.417     1120.624      768.676        1.558        0.226      163.193       19.976        0.015      338.513       11.215      856.392
05/28/2013  02:32:00      -48.029      -44.485        8.591       47.073       58.686       34.279     2215.873     3444.077     1175.030        0.560        0.342       65.466       28.169        0.185      338.472       11.146      856.418
05/28/2013  02:33:00     -155.652      -10.929      -10.150       85.047       54.982       35.341     7232.913     3022.997     1249.011        1.798        0.575      156.035       38.595        0.061      338.472       11.145      856.440
05/28/2013  02:34:00     -125.609      -41.500       -0.446       69.040       54.190       29.381     4766.572     2936.519      863.258        1.303        0.428      132.287       32.178        0.059      338.485       11.168      856.463
05/28/2013  02:35:00     -183.869      -91.382       -8.515       84.864       69.763       36.693     7201.837     4866.880     1346.410        2.782        0.671      205.325       34.518        0.028      338.531       11.244      856.468
05/28/2013  02:36:00     -229.789       57.546       -9.937      130.684       86.697       58.816    17078.360     7516.387     3459.325        4.213        1.403      236.885       71.325        0.091      338.555       11.283      856.462
05/28/2013  02:37:00     -142.398      -38.361       -2.610       86.010       80.786       35.007     7397.677     6526.393     1225.523        1.845        0.757      147.475       44.328        0.090      338.540       11.259      856.493
05/28/2013  02:38:00     -115.535        7.704      -10.124       88.407       46.313       39.630     7815.728     2144.880     1570.572        1.252        0.577      115.792       34.853        0.091      338.590       11.343      856.507
05/28/2013  02:39:00     -212.373      -69.369      -14.728      123.715       97.050       52.206    15305.411     9418.704     2725.482        3.879        1.372      223.416       60.046        0.072      338.590       11.343      856.530
05/28/2013  02:40:00     -337.396     -131.773       -6.843      123.714       85.773       59.123    15305.241     7357.035     3495.565        7.870        1.308      362.216       63.701        0.031      338.648       11.439      856.550
05/28/2013  02:41:00     -291.635      -11.169      -24.202      118.480       56.556       49.900    14037.431     3198.557     2490.013        5.274        0.986      291.849       50.423        0.030      338.609       11.373      856.557
05/28/2013  02:42:00     -259.762      -78.347      -14.901      101.815       87.332       41.581    10366.374     7626.795     1729.019        4.678        0.986      271.320       28.328        0.011      338.586       11.336      856.512
05/28/2013  02:43:00     -226.411        8.261      -21.495      117.136       75.403       46.414    13720.888     5685.658     2154.259        3.667        1.078      226.562       53.766        0.056      338.592       11.345      856.494
05/28/2013  02:44:00     -327.887      -52.044      -31.414      129.298      123.157       48.362    16717.932    15167.735     2338.861        7.271        1.711      331.992       51.038        0.024      338.606       11.368      856.508
05/28/2013  02:45:00     -375.235      -75.104      -25.997      151.558       81.257       61.391    22969.772     6602.687     3768.828        9.022        1.667      382.677       70.343        0.034      338.628       11.405      856.567
05/28/2013  02:46:00     -295.984      -17.783      -15.748       82.555       99.976       54.762     6815.386     9995.111     2998.874        5.399        0.990      296.518       45.909        0.024      338.628       11.406      856.607
05/28/2013  02:47:00     -175.134      -41.456       -0.354      116.956      103.098       53.224    13678.620    10629.216     2832.782        2.976        1.357      179.974       58.957        0.107      338.621       11.394      856.604
05/28/2013  02:48:00     -293.570     -103.018      -10.262       89.612      102.992       49.137     8030.311    10607.280     2414.414        5.897        1.053      311.121       41.925        0.018      338.655       11.449      856.613
05/28/2013  02:49:00     -384.286      -89.583      -41.801       90.498      102.187       44.877     8189.934    10442.087     2013.989        8.904        1.032      394.590       34.807        0.008      338.685       11.500      856.599
05/28/2013  02:50:00     -363.794      -46.331      -28.627      170.352      136.781       68.673    29019.841    18709.126     4716.003        9.387        2.622      366.732       73.911        0.041      338.687       11.505      856.607
05/28/2013  02:51:00     -388.605      -98.693      -11.309      145.325      136.528       72.958    21119.334    18639.893     5322.850       10.297        2.254      400.942       69.221        0.030      338.681       11.495      856.606
05/28/2013  02:52:00     -369.354     -144.997      -30.879      164.256       92.101       74.863    26979.898     8482.549     5604.399        9.973        2.053      396.796       81.396        0.042      338.706       11.536      856.617
05/28/2013  02:53:00     -391.283     -111.916      -23.824      204.529      132.555       62.230    41832.139    17570.857     3872.539       11.472        3.164      406.974       77.054        0.036      338.711       11.543      856.653
05/28/2013  02:54:00     -309.859      -31.976       -5.005      180.922      129.231       65.311    32732.881    16700.732     4265.562        7.537        2.685      311.504       66.400        0.045      338.688       11.508      856.670
05/28/2013  02:55:00     -148.927      -98.168       11.231      118.420       85.180       50.563    14023.255     7255.714     2556.590        2.789        1.192      178.371       54.500        0.093      338.658       11.457      856.663
05/28/2013  02:56:00     -153.996       -8.607      -10.358       98.734       59.893       43.435     9748.404     3587.162     1886.608        1.956        0.761      154.236       47.028        0.093      338.645       11.435      856.619
05/28/2013  02:57:00     -235.524      -69.656       -8.176      110.823       82.142       36.914    12281.640     6747.309     1362.646        4.039        1.020      245.608       41.055        0.028      338.626       11.402      856.592
05/28/2013  02:58:00     -133.710      -11.359       10.582      123.248       85.209       48.215    15190.044     7260.600     2324.684        2.144        1.239      134.192       48.326        0.130      338.602       11.364      856.576
05/28/2013  02:59:00     -176.941      -19.386        2.841       93.128       78.292       51.297     8672.776     6129.601     2631.384        2.456        0.872      178.000       47.771        0.072      338.610       11.377      856.591
05/28/2013  03:00:00     -238.148      -34.338       -6.078       84.698       77.545       41.185     7173.672     6013.155     1696.167        3.640        0.744      240.611       36.995        0.024      338.601       11.361      856.589
05/28/2013  03:01:00     -259.761      -35.031      -13.906      126.639      134.843       68.675    16037.469    18182.678     4716.238        5.391        1.947      262.112       68.420        0.068      338.651       11.444      856.581
05/28/2013  03:02:00     -173.815     -129.843        1.439      113.345      111.181       57.255    12847.185    12361.116     3278.187        3.777        1.424      216.958       60.206        0.077      338.664       11.466      856.577
05/28/2013  03:03:00     -124.033      -77.035       18.009      152.366       98.296       69.758    23215.444     9662.116     4866.237        2.969        1.887      146.009       88.954        0.371      338.684       11.501      856.580
05/28/2013  03:04:00     -308.991     -200.265      -17.288      117.520      112.526       58.655    13811.058    12662.171     3440.441        8.289        1.496      368.214       60.472        0.027      338.680       11.492      856.594
05/28/2013  03:05:00     -257.033     -142.166       -3.932      176.782      113.571       72.724    31251.977    12898.401     5288.775        6.786        2.472      293.730       76.068        0.067      338.648       11.441      856.624
05/28/2013  03:06:00     -226.773     -108.085       -2.103      134.913       99.243       66.733    18201.520     9849.269     4453.325        4.780        1.625      251.214       66.012        0.069      338.614       11.381      856.641
05/28/2013  03:07:00     -206.302      -37.098       -8.909       82.002       88.388       33.102     6724.374     7812.351     1095.764        2.982        0.782      209.611       24.402        0.014      338.573       11.315      856.641
05/28/2013  03:08:00     -114.451      -52.291        9.455      105.519       73.535       48.038    11134.272     5407.362     2307.665        1.738        0.942      125.830       48.950        0.151      338.537       11.254      856.587
05/28/2013  03:09:00     -148.784     -131.841        0.639       95.950      109.245       49.997     9206.341    11934.540     2499.698        3.158        1.182      198.793       51.555        0.067      338.527       11.237      856.451
05/28/2013  03:10:00     -210.205     -123.420       -9.041      107.579       94.195       53.209    11573.268     8872.731     2831.220        4.138        1.164      243.759       47.266        0.038      338.516       11.217      856.307
05/28/2013  03:11:00     -274.471     -197.084      -10.159      145.413      141.730       70.840    21145.051    20087.312     5018.275        8.026        2.313      337.900       81.133        0.058      338.494       11.180      856.253
05/28/2013  03:12:00     -215.430     -161.731       -2.550       96.018       94.976       62.299     9219.373     9020.359     3881.128        4.734        1.106      269.382       65.464        0.059      338.438       11.086      856.290
05/28/2013  03:13:00     -170.486     -133.213        5.255      122.909      111.144       59.884    15106.594    12353.012     3586.091        3.894        1.552      216.359       55.719        0.066      338.376       10.983      856.346
05/28/2013  03:14:00     -231.321     -110.351       -4.795      115.512       85.314       53.149    13343.033     7278.417     2824.834        4.457        1.172      256.294       52.829        0.042      338.311       10.873      856.365
05/28/2013  03:15:00     -293.293     -159.927       -7.093      106.384       85.920       55.183    11317.624     7382.199     3045.164        6.669        1.087      334.062       48.264        0.021      338.313       10.877      856.362
05/28/2013  03:16:00     -352.790     -205.871      -10.299      132.889      116.260       67.533    17659.592    13516.364     4560.667       10.134        1.787      408.465       61.223        0.022      338.334       10.913      856.322
05/28/2013  03:17:00     -325.271     -155.137        5.465      125.361       97.605       60.769    15715.269     9526.703     3692.906        7.941        1.447      360.373       62.084        0.030      338.323       10.894      856.287
05/28/2013  03:18:00     -209.737      -47.544       -1.617      121.943       97.017       59.542    14870.185     9412.319     3545.273        3.704        1.391      215.058       58.742        0.075      338.304       10.862      856.266
05/28/2013  03:19:00     -165.276      -97.035       -1.826       81.803       72.764       40.202     6691.739     5294.616     1616.219        2.517        0.680      191.656       33.232        0.030      338.279       10.819      856.276
05/28/2013  03:20:00     -233.014     -117.323       -1.299      112.897      111.350       61.331    12745.748    12398.759     3761.436        4.848        1.445      260.884       63.220        0.059      338.282       10.824      856.269
05/28/2013  03:21:00     -217.893      -52.584       -1.901      131.005       99.682       62.245    17162.424     9936.511     3874.419        4.060        1.549      224.148       60.785        0.074      338.299       10.853      856.256
05/28/2013  03:22:00     -160.692      -76.999        8.519       93.564       78.807       46.247     8754.132     6210.608     2138.815        2.446        0.855      178.187       47.696        0.072      338.279       10.821      856.220
05/28/2013  03:23:00     -225.672     -134.197       -9.125      103.956       86.182       52.263    10806.896     7427.299     2731.465        4.499        1.048      262.558       53.267        0.041      338.262       10.791      856.195
05/28/2013  03:24:00     -144.810      -78.051       21.012      115.957       66.721       50.304    13446.103     4451.746     2530.500        2.396        1.021      164.505       52.375        0.101      338.273       10.811      856.227
05/28/2013  03:25:00     -265.436     -128.792      -21.820      120.152       96.032       61.663    14436.592     9222.189     3802.327        5.749        1.373      295.032       57.928        0.039      338.283       10.827      856.253
05/28/2013  03:26:00     -100.098      -55.103       13.362      144.254       88.533       67.919    20809.101     7838.080     4613.042        2.324        1.663      114.263       82.384        0.520      338.269       10.804      856.292
05/28/2013  03:27:00     -168.949      -84.213        0.125      110.193       78.746       49.059    12142.480     6200.911     2406.788        2.819        1.038      188.773       60.022        0.101      338.259       10.786      856.312
05/28/2013  03:28:00     -134.445     -108.785        1.064       91.536       76.176       53.884     8378.905     5802.825     2903.454        2.350        0.854      172.944       48.246        0.078      338.260       10.788      856.362
05/28/2013  03:29:00     -288.898     -139.589      -18.805      170.168      109.447       74.600    28957.145    11978.598     5565.231        7.489        2.325      320.854       90.569        0.080      338.341       10.924      856.385
05/28/2013  03:30:00     -180.351     -146.204        1.476      131.505      127.559       70.513    17293.572    16271.253     4972.129        4.621        1.927      232.169       75.278        0.105      338.309       10.870      856.411
05/28/2013  03:31:00     -193.094     -127.350        3.945      129.882      112.267       58.705    16869.456    12603.977     3446.230        4.321        1.646      231.308       61.583        0.071      338.281       10.824      856.425
05/28/2013  03:32:00     -173.996      -39.874       -4.232       87.091       90.006       50.248     7584.875     8101.072     2524.902        2.504        0.911      178.506       48.382        0.073      338.269       10.804      856.435
05/28/2013  03:33:00     -163.184      -78.168       -0.960       75.577       72.443       41.809     5711.870     5248.049     1747.973        2.272        0.635      180.940       45.004        0.062      338.280       10.822      856.458
05/28/2013  03:34:00     -186.542      -30.058       -2.782       87.353       76.735       43.356     7630.562     5888.234     1879.716        2.555        0.770      188.948       47.810        0.064      338.244       10.761      856.466
05/28/2013  03:35:00     -214.221      -75.168      -19.621       99.901       83.029       49.395     9980.280     6893.881     2439.852        3.562        0.966      227.027       44.858        0.039      338.260       10.787      856.471
05/28/2013  03:36:00     -239.666      -28.623      -25.088      158.085       74.942       47.936    24990.731     5616.293     2297.815        4.589        1.645      241.369       60.647        0.063      338.303       10.862      856.488
05/28/2013  03:37:00     -238.266      -42.192       -6.037      129.931       72.162       48.681    16882.064     5207.337     2369.793        4.152        1.223      241.972       59.638        0.061      338.292       10.843      856.527
05/28/2013  03:38:00     -209.892       38.069       -5.932      130.455       97.615       45.848    17018.608     9528.700     2102.080        3.709        1.432      213.316       40.779        0.037      338.283       10.828      856.559
05/28/2013  03:39:00     -116.008      -49.064       -6.045       71.302       66.860       30.022     5083.914     4470.229      901.297        1.318        0.523      125.957       31.716        0.063      338.282       10.826      856.603
05/28/2013  03:40:00     -205.339      -13.364       -9.206      108.371       83.089       40.991    11744.230     6903.762     1680.267        3.137        1.016      205.773       45.578        0.049      338.309       10.870      856.637
05/28/2013  03:41:00     -266.002       -0.804      -29.622      115.582       70.835       56.378    13359.134     5017.548     3178.461        4.659        1.078      266.004       54.626        0.042      338.411       11.041      856.692
05/28/2013  03:42:00     -134.991      -20.882      -17.107       65.884       43.244       32.896     4340.741     1870.023     1082.174        1.312        0.365      136.597       39.029        0.082      338.365       10.965      856.715
05/28/2013  03:43:00     -193.326       54.364      -32.865       77.253       67.667       38.786     5967.956     4578.757     1504.357        2.673        0.603      200.824       34.840        0.030      338.327       10.901      856.746
05/28/2013  03:44:00     -101.394      132.442      -26.189       72.289       77.936       39.752     5225.705     6074.042     1580.259        2.069        0.644      166.798       38.368        0.053      338.432       11.077      856.775
05/28/2013  03:45:00     -105.160       87.988      -11.867       65.745       98.770       42.857     4322.441     9755.502     1836.713        1.743        0.796      137.115       38.784        0.080      338.447       11.103      856.840
05/28/2013  03:46:00      -31.308       -9.101        9.844       48.314       34.189       23.337     2334.197     1168.887      544.595        0.260        0.202       32.604       21.129        0.420      338.459       11.124      856.840
05/28/2013  03:47:00      -86.071      111.177      -19.060       82.239       77.033       31.667     6763.237     5934.067     1002.790        1.691        0.685      140.600       39.952        0.081      338.455       11.116      856.823
05/28/2013  03:48:00      -77.830      153.728      -12.602       46.397       59.513       31.898     2152.637     3541.834     1017.503        1.828        0.336      172.308       34.338        0.040      338.480       11.160      856.836
05/28/2013  03:49:00      -12.610       83.886       -4.748       27.313       37.295       16.954      745.987     1390.954      287.425        0.482        0.121       84.829       13.772        0.026      338.456       11.120      856.854
05/28/2013  03:50:00       13.380       34.086       -4.543       24.615       33.696       16.785      605.910     1135.390      281.732        0.169        0.101       36.617       17.056        0.217      338.430       11.076      856.874
05/28/2013  03:51:00       18.531       70.597       -7.999       19.374       26.821       14.370      375.342      719.349      206.501        0.335        0.065       72.989       11.319        0.024      338.419       11.059      856.838
05/28/2013  03:52:00       27.159       47.468       -6.742       39.418       20.217       15.523     1553.785      408.740      240.969        0.262        0.110       54.688       11.787        0.046      338.420       11.060      856.814
05/28/2013  03:53:00       -6.846      -28.938      -10.538       50.600       40.617       24.754     2560.371     1649.707      612.782        0.291        0.241       29.737       19.502        0.430      338.504       11.200      856.813
05/28/2013  03:54:00      -20.027      -65.251        3.170       35.692       29.365       26.062     1273.902      862.313      679.225        0.374        0.141       68.256       17.852        0.068      338.586       11.339      856.798
05/28/2013  03:55:00     -115.822      -95.322        4.821      103.822       99.833       61.226    10778.952     9966.611     3748.591        2.351        1.225      150.003       64.318        0.184      338.499       11.188      856.800
05/28/2013  03:56:00     -202.978      -66.474      -12.980       78.126       66.450       40.985     6103.699     4415.580     1679.785        2.899        0.610      213.585       41.048        0.037      338.542       11.260      856.836
05/28/2013  03:57:00      -64.814      -42.659        6.811       90.344       49.314       31.651     8162.039     2431.911     1001.781        0.883        0.580       77.593       27.469        0.125      338.568       11.307      856.822
05/28/2013  03:58:00     -178.236      -28.141       -6.834      119.260       47.701       41.784    14222.956     2275.369     1745.877        2.542        0.912      180.444       56.810        0.099      338.576       11.319      856.790
05/28/2013  03:59:00      -93.532      -52.924       -2.252       60.462       61.008       30.303     3655.655     3721.964      918.289        0.992        0.415      107.467       22.128        0.042      338.596       11.355      856.776
05/28/2013  04:00:00     -184.504      -46.406      -15.279      123.976       81.702       45.035    15370.127     6675.151     2028.107        3.025        1.204      190.251       53.257        0.078      338.566       11.303      856.775
05/28/2013  04:01:00     -179.902      -19.484        6.738      125.136       69.429       50.228    15659.141     4820.361     2522.831        2.789        1.150      180.954       62.096        0.118      338.564       11.300      856.796
05/28/2013  04:02:00      -97.235     -126.562       19.097      104.214      133.826       60.372    10860.566    17909.469     3644.788        2.912        1.621      159.601       54.685        0.117      338.707       11.539      856.781
05/28/2013  04:03:00     -217.163      -88.205       -3.362      160.626      143.873       65.102    25800.775    20699.577     4238.252        5.284        2.537      234.393       61.238        0.068      338.638       11.423      856.745
05/28/2013  04:04:00     -368.662     -134.246      -32.778      197.984      103.661       67.912    39197.769    10745.658     4612.068       10.477        2.728      392.344       64.649        0.027      338.718       11.556      856.727
05/28/2013  04:05:00     -159.041      -11.505        2.556       89.970       89.234       46.568     8094.525     7962.776     2168.595        2.183        0.911      159.457       42.741        0.072      338.650       11.444      856.720
05/28/2013  04:06:00     -248.263     -115.326      -19.025       79.959       94.399       51.851     6393.511     8911.159     2688.557        4.664        0.900      273.742       40.215        0.022      338.659       11.455      856.701
05/28/2013  04:07:00     -138.117      -56.540        2.061      100.621       99.797       56.220    10124.605     9959.373     3160.655        2.276        1.162      149.241       56.369        0.143      338.668       11.473      856.666
05/28/2013  04:08:00     -175.116     -116.867        2.719       89.150       75.639       53.912     7947.776     5721.233     2906.543        3.045        0.829      210.532       52.285        0.062      338.707       11.539      856.605
05/28/2013  04:09:00     -164.130     -125.072       -3.061       83.624       85.822       37.828     6993.003     7365.472     1430.982        2.919        0.789      206.353       34.480        0.028      338.692       11.513      856.566
05/28/2013  04:10:00     -281.904     -130.470      -13.219      132.265      113.898       58.305    17494.064    12972.706     3399.416        6.526        1.693      310.632       62.035        0.040      338.707       11.537      856.557
05/28/2013  04:11:00     -259.494      -89.907       -6.546      171.668      137.016       65.119    29469.959    18773.305     4240.538        6.396        2.624      274.628       69.734        0.064      338.696       11.520      856.579
05/28/2013  04:12:00     -313.371     -100.516        6.907      176.264      100.730       66.346    31069.162    10146.439     4401.855        7.698        2.281      329.097       55.497        0.028      338.680       11.495      856.592
05/28/2013  04:13:00     -233.481      -96.494        4.658      131.731      120.729       68.605    17353.079    14575.607     4706.655        5.023        1.832      252.635       58.698        0.054      338.693       11.515      856.570
05/28/2013  04:14:00     -272.231     -188.481       -8.187      113.918      136.112       67.712    12977.342    18526.464     4584.869        7.289        1.804      331.111       55.102        0.028      338.730       11.578      856.563
05/28/2013  04:15:00     -393.632     -201.814       -6.200      214.322      192.130       80.560    45933.851    36913.933     6489.927       14.251        4.467      442.352       96.406        0.047      338.787       11.673      856.562
05/28/2013  04:16:00     -294.848     -100.708        5.044      172.279      162.408       79.833    29680.163    26376.318     6373.316        7.976        3.121      311.573       98.891        0.101      338.765       11.636      856.594
05/28/2013  04:17:00     -217.154      -97.459        7.956      191.127      110.131       73.139    36529.516    12128.746     5349.314        5.535        2.700      238.021       87.152        0.134      338.748       11.608      856.646
05/28/2013  04:18:00     -173.870      -17.647       -8.043       85.539       79.939       52.527     7316.856     6390.263     2759.118        2.353        0.823      174.763       53.473        0.094      338.724       11.568      856.654
05/28/2013  04:19:00     -281.687      -80.615      -12.897      120.957      119.254       54.840    14630.712    14221.516     3007.392        5.893        1.593      292.995       49.482        0.029      338.778       11.658      856.657
05/28/2013  04:20:00     -159.564      -79.729       -8.587      125.017      107.669       63.000    15629.247    11592.667     3968.963        3.154        1.560      178.374       68.485        0.147      338.715       11.553      856.668
05/28/2013  04:21:00     -314.722      -14.001      -28.409      125.566       73.262       60.766    15766.771     5367.388     3692.484        6.244        1.241      315.033       59.510        0.036      338.732       11.580      856.696
05/28/2013  04:22:00     -238.159       -0.049      -17.363      128.354      109.760       58.234    16474.779    12047.293     3391.156        4.446        1.596      238.159       65.782        0.076      338.754       11.616      856.731
05/28/2013  04:23:00     -105.467      -54.325        6.629       65.198       59.198       40.856     4250.753     3504.392     1669.228        1.177        0.471      118.636       33.092        0.078      338.729       11.578      856.813
05/28/2013  04:24:00       10.324      -33.104        9.389       68.506       71.230       59.418     4693.090     5073.707     3530.440        0.729        0.665       34.677       60.083        3.002      338.741       11.599      856.878
05/28/2013  04:25:00       64.281      130.576       -5.314       44.075       61.434       44.414     1942.617     3774.197     1972.596        1.445        0.384      145.541       33.202        0.052      338.635       11.420      856.911
05/28/2013  04:26:00       68.422      101.939       -7.249       59.604       82.272       40.425     3552.618     6768.714     1634.151        1.354        0.598      122.772       39.062        0.101      338.696       11.523      856.915
05/28/2013  04:27:00      143.666       93.453       13.115       64.813       48.427       40.441     4200.756     2345.145     1635.484        1.886        0.409      171.387       27.676        0.026      338.592       11.347      856.917
05/28/2013  04:28:00      113.257       97.110       16.060       62.694       58.542       52.917     3930.590     3427.136     2800.261        1.634        0.508      149.190       27.890        0.035      338.518       11.223      856.925
05/28/2013  04:29:00       89.313       96.963       -7.055       46.754       63.170       38.601     2185.924     3990.475     1490.048        1.255        0.383      131.828       32.279        0.060      338.715       11.554      856.947
05/28/2013  04:30:00      114.725       57.907       16.809       33.503       27.489       36.248     1122.426      755.647     1313.922        0.999        0.160      128.511       16.306        0.016      338.604       11.367      856.936
05/28/2013  04:31:00       51.021       38.049       24.914       36.153       26.361       27.482     1307.011      694.880      755.250        0.371        0.138       63.647       17.722        0.078      338.539       11.261      856.956
05/28/2013  04:32:00       80.719       59.573       36.240       37.217       29.637       35.089     1385.129      878.322     1231.233        0.744        0.175      100.322       25.587        0.065      338.528       11.240      856.968
05/28/2013  04:33:00       89.192       74.205       41.581       52.227       39.763       35.374     2727.707     1581.114     1251.328        1.037        0.278      116.024       30.662        0.070      338.529       11.242      856.965
05/28/2013  04:34:00       16.050       54.415       67.211       36.774       32.960       20.052     1352.320     1086.368      402.070        0.529        0.142       56.732        9.072        0.026      338.480       11.160      856.990
05/28/2013  04:35:00       26.586       44.854        3.550       28.836       32.307       23.802      831.497     1043.748      566.538        0.259        0.122       52.141       21.187        0.165      338.438       11.088      857.021
05/28/2013  04:36:00       17.721       37.560        1.695       23.482       27.928       19.216      551.387      779.998      369.243        0.171        0.085       41.530       17.365        0.175      338.494       11.183      857.046
05/28/2013  04:37:00      -53.310       92.194       -2.664       76.946       75.876       36.787     5920.648     5757.121     1353.253        1.219        0.652      106.497       42.283        0.158      338.505       11.202      857.078
05/28/2013  04:38:00        7.765      174.795      -12.721       30.566       58.363       31.766      934.287     3406.217     1009.098        1.806        0.267      174.967       29.773        0.029      338.595       11.351      857.080
05/28/2013  04:39:00       29.504      173.488      -22.097       24.246       44.169       24.892      587.872     1950.903      619.610        1.731        0.158      175.979       25.016        0.020      338.624       11.403      857.051
05/28/2013  04:40:00       44.085       77.022        3.382       36.866       51.666       27.958     1359.103     2669.336      781.623        0.635        0.241       88.746       25.985        0.086      338.508       11.207      857.048
05/28/2013  04:41:00       12.754      118.369       -3.311       38.306       55.294       35.352     1467.359     3057.380     1249.764        0.998        0.289      119.054       34.795        0.085      338.525       11.236      857.068
05/28/2013  04:42:00       52.043       81.695        5.809       56.281       51.652       37.492     3167.537     2667.919     1405.656        0.833        0.362       96.863       36.121        0.139      338.424       11.066      857.062
05/28/2013  04:43:00       19.581      129.882      -11.740       44.911       75.177       33.061     2016.975     5651.513     1093.011        1.307        0.438      131.349       28.115        0.046      338.366       10.968      857.070
05/28/2013  04:44:00      -26.325      107.273       -5.661       43.894       45.191       28.620     1926.680     2042.256      819.084        0.851        0.239      110.456       27.373        0.061      338.411       11.045      857.095
05/28/2013  04:45:00      -19.667      111.103       -8.660       39.720       58.502       29.467     1577.651     3422.491      868.289        0.934        0.293      112.830       30.229        0.072      338.407       11.037      857.109
05/28/2013  04:46:00      -52.105      129.282       -8.444       36.264       36.013       32.444     1315.113     1296.907     1052.620        1.158        0.183      139.387       24.507        0.031      338.394       11.015      857.097
05/28/2013  04:47:00       -4.168      140.306       -9.106       40.408       57.224       34.306     1632.800     3274.534     1176.904        1.293        0.304      140.368       31.615        0.051      338.352       10.945      857.067
05/28/2013  04:48:00       40.937       91.066       -4.335       46.775       74.705       36.345     2187.865     5580.852     1320.973        0.954        0.454       99.844       41.162        0.170      338.303       10.862      857.038
05/28/2013  04:49:00      -32.265      148.862      -12.134       85.523       76.403       46.564     7314.218     5837.420     2168.238        1.933        0.766      152.318       49.765        0.107      338.293       10.845      857.019
05/28/2013  04:50:00       48.102      147.596      -17.759       60.144       68.716       44.827     3617.354     4721.841     2009.493        1.738        0.517      155.237       35.281        0.052      338.243       10.760      856.994
05/28/2013  04:51:00       52.506      141.805       -7.628       69.877       82.363       48.816     4882.743     6783.605     2383.005        1.848        0.702      151.214       47.547        0.099      338.238       10.753      856.984
05/28/2013  04:52:00       35.325      121.201      -14.193       35.702       83.862       39.366     1274.634     7032.819     1549.718        1.300        0.493      126.244       48.760        0.149      338.275       10.815      856.966
05/28/2013  04:53:00       26.613       87.528       13.536       46.962       52.156       46.647     2205.471     2720.296     2175.961        0.783        0.355       91.484       39.658        0.188      338.234       10.748      856.972
05/28/2013  04:54:00       59.189       94.040       18.992       56.981       74.706       57.975     3246.846     5580.979     3361.152        1.245        0.609      111.116       50.865        0.210      338.206       10.700      856.981
05/28/2013  04:55:00       34.500      181.196      -14.077       60.488      106.480       59.850     3658.850    11338.020     3582.079        2.640        0.929      184.451       61.473        0.111      338.242       10.757      856.997
05/28/2013  04:56:00       23.695      225.851      -33.185       33.926       44.977       28.450     1150.983     2022.967      809.374        2.833        0.199      227.090       24.304        0.011      338.255       10.781      857.017
05/28/2013  04:57:00       44.770      143.412       -5.661       62.416       94.173       51.563     3895.717     8868.550     2658.786        1.901        0.771      150.238       47.890        0.102      338.205       10.695      857.018
05/28/2013  04:58:00       25.545      210.144      -21.297       59.191      107.786       53.835     3503.622    11617.795     2898.248        3.164        0.901      211.691       57.252        0.073      338.194       10.677      857.005
05/28/2013  04:59:00       -4.771      138.354      -13.968       45.084       87.718       41.086     2032.531     7694.437     1688.033        1.539        0.571      138.436       46.680        0.114      338.210       10.705      857.018
05/28/2013  05:00:00        0.715      210.307      -31.718       36.386       71.726       29.319     1323.972     5144.660      859.624        2.628        0.366      210.308       22.967        0.012      338.218       10.718      857.011
05/28/2013  05:01:00      -19.803      284.304      -33.666       50.663       58.440       35.036     2566.733     3415.277     1227.525        4.478        0.360      284.993       28.303        0.010      338.251       10.771      856.998
05/28/2013  05:02:00      -14.452      198.512      -18.668       48.725       42.819       27.776     2374.121     1833.443      771.516        2.247        0.249      199.038       25.223        0.016      338.234       10.747      856.999
05/28/2013  05:03:00       16.509      162.928      -19.666       23.474       32.238       16.829      551.015     1039.265      283.214        1.454        0.094      163.762       10.831        0.004      338.255       10.782      856.978
05/28/2013  05:04:00       10.577       74.360       -6.117       23.461       37.403       21.249      550.422     1398.976      451.504        0.404        0.120       75.108       24.889        0.110      338.229       10.740      856.963
05/28/2013  05:05:00       42.314       44.617       -1.182       22.061       27.976       21.015      486.678      782.672      441.630        0.275        0.086       61.491       15.362        0.062      338.231       10.742      856.946
05/28/2013  05:06:00       60.681       33.638        2.379       16.711       24.058       18.187      279.257      578.804      330.778        0.300        0.059       69.381       12.864        0.034      338.247       10.770      856.921
05/28/2013  05:07:00        7.492        9.790       11.489       24.357       12.670       17.067      593.245      160.520      291.275        0.066        0.052       12.328        9.416        0.583      338.296       10.851      856.898
05/28/2013  05:08:00       46.914       36.137       12.280       17.953       19.034       13.387      322.318      362.308      179.201        0.226        0.043       59.218        7.615        0.017      338.327       10.903      856.855
05/28/2013  05:09:00       65.296       29.360        2.528       11.721       14.991       10.840      137.392      224.740      117.508        0.281        0.024       71.594        7.613        0.011      338.380       10.992      856.815
05/28/2013  05:10:00       77.863       59.303        7.082        8.857       15.812       15.484       78.455      250.009      239.747        0.510        0.028       97.875       10.117        0.011      338.357       10.955      856.790
05/28/2013  05:11:00       23.440       61.771       11.939       38.814       46.436       23.532     1506.522     2156.297      553.742        0.436        0.211       66.069       24.851        0.141      338.408       11.038      856.775
05/28/2013  05:12:00       15.292       39.194       16.863       31.776       28.932       33.465     1009.739      837.054     1119.889        0.251        0.148       42.071       25.974        0.381      338.588       11.343      856.729
05/28/2013  05:13:00       67.068       60.291       -0.757       25.435       28.992       21.273      646.919      840.508      452.521        0.504        0.097       90.184       17.386        0.037      338.363       10.965      856.704
05/28/2013  05:14:00       24.213       55.212       -2.958       35.037       20.619       14.757     1227.564      425.154      217.770        0.276        0.094       60.288        6.409        0.011      338.248       10.770      856.693
05/28/2013  05:15:00      -21.668        3.323      -10.699       19.307       20.056       15.830      372.772      402.239      250.597        0.081        0.051       21.921       13.539        0.381      338.254       10.780      856.710
05/28/2013  05:16:00      -56.413      -13.083       -8.923       32.399       15.349       12.584     1049.671      235.581      158.345        0.244        0.072       57.910       15.353        0.070      338.331       10.909      856.737
05/28/2013  05:17:00       25.204       19.249       14.027       26.208       36.837       18.915      686.876     1356.942      357.777        0.180        0.120       31.714       23.560        0.552      338.297       10.854      856.726
05/28/2013  05:18:00       12.314       23.558       16.114       24.484       29.329       16.094      599.450      860.172      259.023        0.134        0.086       26.582       10.726        0.163      338.373       10.980      856.716
05/28/2013  05:19:00       24.947       39.755       35.010       22.314       23.181       12.158      497.927      537.363      147.812        0.231        0.059       46.934        8.278        0.031      338.299       10.856      856.711
05/28/2013  05:20:00       68.384       55.316       43.169       50.833       22.215       25.220     2583.949      493.499      636.066        0.666        0.186       87.956       11.397        0.017      338.297       10.853      856.704
05/28/2013  05:21:00       17.896       28.479       26.776       29.438       23.633       22.774      866.592      558.506      518.666        0.190        0.097       33.635       18.556        0.304      338.293       10.846      856.741
05/28/2013  05:22:00        8.724        1.280       12.848       20.444       13.487       11.047      417.957      181.909      122.032        0.048        0.036        8.817        7.003        0.631      338.286       10.834      856.791
05/28/2013  05:23:00      -33.142       47.523      -13.658       21.813       23.602       12.541      475.817      557.073      157.272        0.237        0.060       57.938       10.949        0.036      338.207       10.702      856.835
05/28/2013  05:24:00      -43.925       57.923       -8.638       25.765       21.816       14.027      663.818      475.958      196.750        0.335        0.067       72.695       14.795        0.041      338.272       10.811      856.863
05/28/2013  05:25:00      -51.104       94.953      -21.271       12.899       18.953       13.819      166.375      359.234      190.971        0.640        0.036      107.832        4.599        0.002      338.604       11.368      856.867
05/28/2013  05:26:00      -33.382       77.940      -11.967       41.584       25.709       23.398     1729.266      660.935      547.444        0.513        0.147       84.788       22.543        0.071      338.681       11.497      856.875
05/28/2013  05:27:00      -55.591        0.400       -6.251       37.822       43.090       15.288     1430.492     1856.719      233.717        0.332        0.176       55.593       11.218        0.041      338.602       11.365      856.896
05/28/2013  05:28:00       -4.230        2.828       20.838       54.139       22.990       21.105     2931.074      528.528      445.405        0.218        0.195        5.088       24.580       23.337      338.462       11.130      856.933
05/28/2013  05:29:00      -24.607       61.552      -19.750       29.350       34.809       17.604      861.414     1211.701      309.907        0.358        0.119       66.288       16.014        0.058      338.562       11.298      856.963
05/28/2013  05:30:00       38.098       13.949       -2.010       54.064       32.021       21.076     2922.960     1025.364      444.218        0.302        0.220       40.572       15.044        0.137      338.506       11.204      857.010
05/28/2013  05:31:00      110.214       90.529       11.747       16.254       19.518       25.623      264.186      380.935      656.558        1.089        0.065      142.628       15.797        0.012      338.389       11.008      857.024
05/28/2013  05:32:00      115.281       80.831        2.631       27.673       25.349       27.088      765.772      642.566      733.758        1.099        0.107      140.795       17.635        0.016      338.319       10.890      857.019
05/28/2013  05:33:00      108.342       60.290       -0.970       33.249       25.703       25.792     1105.469      660.632      665.242        0.890        0.122      123.987       11.317        0.008      338.280       10.824      856.996
05/28/2013  05:34:00      103.078       36.927        7.373       58.380       34.193       23.464     3408.186     1169.135      550.561        0.858        0.256      109.492       11.853        0.012      338.293       10.847      856.973
05/28/2013  05:35:00      104.443       61.611        8.792       47.178       23.986       19.623     2225.793      575.314      385.074        0.898        0.159      121.261       10.359        0.007      338.236       10.751      856.972
05/28/2013  05:36:00       31.723       57.376        4.758       39.356       27.757       25.067     1548.889      770.429      628.373        0.363        0.147       65.562       15.284        0.054      338.079       10.486      857.005
05/28/2013  05:37:00        3.124       87.185      -13.216       19.792       29.631       13.076      391.740      878.007      170.985        0.461        0.072       87.240       13.044        0.022      338.130       10.573      857.033
05/28/2013  05:38:00      -69.937       89.911      -14.297       38.812       40.375       17.687     1506.359     1630.148      312.818        0.831        0.172      113.908       20.732        0.033      338.182       10.659      857.041
05/28/2013  05:39:00       -2.918       90.054      -13.234       33.051       31.010       15.696     1092.370      961.632      246.364        0.530        0.115       90.101       13.249        0.022      338.077       10.485      857.047
05/28/2013  05:40:00       -2.197      100.421      -21.217       17.498       22.869       10.501      306.181      522.970      110.269        0.574        0.047      100.445        9.852        0.010      338.021       10.388      857.052
05/28/2013  05:41:00      -32.569      159.720      -25.045       37.448       58.485       23.853     1402.324     3420.468      568.984        1.629        0.270      163.007       29.012        0.032      338.020       10.386      857.059
05/28/2013  05:42:00      -52.842      229.509      -25.797       42.837       64.920       25.937     1835.002     4214.572      672.741        3.143        0.336      235.514       27.478        0.014      337.991       10.336      857.074
05/28/2013  05:43:00      -18.910      208.343      -25.304       50.330       50.686       24.608     2533.141     2569.066      605.569        2.506        0.285      209.200       22.951        0.012      337.967       10.299      857.070
05/28/2013  05:44:00      -31.712      154.674      -17.088       59.741       56.109       28.796     3569.031     3148.188      829.226        1.638        0.377      157.891       28.141        0.032      337.971       10.305      857.070
05/28/2013  05:45:00       18.511      163.177       -4.206       50.787       72.733       36.975     2579.302     5290.109     1367.170        1.811        0.462      164.224       40.511        0.061      337.922       10.223      857.081
05/28/2013  05:46:00      -27.562      194.766      -24.377       47.908       53.409       24.619     2295.174     2852.569      606.084        2.252        0.288      196.707       13.965        0.005      337.965       10.294      857.105
05/28/2013  05:47:00      -51.829      135.564      -15.014       27.919       53.822       24.947      779.459     2896.857      622.336        1.279        0.215      145.134       20.699        0.020      337.960       10.289      857.163
05/28/2013  05:48:00      -53.417      170.279      -13.172       46.470       49.087       25.381     2159.496     2409.578      644.192        1.862        0.261      178.461       23.700        0.018      338.059       10.454      857.195
05/28/2013  05:49:00      -60.941      138.819      -25.573       57.586       68.185       18.944     3316.173     4649.144      358.890        1.598        0.416      151.607       13.114        0.007      338.103       10.527      857.203
05/28/2013  05:50:00      -99.316       38.638      -20.704       30.898       49.386       23.592      954.706     2438.991      556.567        0.787        0.198      106.568       11.825        0.012      338.054       10.446      857.215
05/28/2013  05:51:00      -81.724       66.933      -17.376       33.332       44.835       20.566     1111.009     2010.203      422.963        0.750        0.177      105.635       16.637        0.025      337.999       10.352      857.235
05/28/2013  05:52:00     -170.841      -57.129       -3.832       78.526       68.428       41.454     6166.273     4682.345     1718.444        2.251        0.628      180.140       45.519        0.064      337.895       10.176      857.263
05/28/2013  05:53:00      -86.741       20.324       -3.061       80.700      124.063       47.915     6512.435    15391.677     2295.873        1.607        1.210       89.090       25.025        0.079      337.816       10.044      857.275
05/28/2013  05:54:00        5.936       39.704        2.581       55.725       46.193       32.804     3105.264     2133.822     1076.097        0.397        0.316       40.146       27.502        0.469      337.816       10.046      857.253
05/28/2013  05:55:00      -65.471       72.071      -14.924       29.825       69.752       22.979      889.529     4865.304      528.029        0.799        0.314       97.368       23.055        0.056      337.804       10.027      857.242
05/28/2013  05:56:00     -118.780       39.453      -16.225       32.372       35.308       21.467     1047.944     1246.669      460.815        0.934        0.138      125.161       18.244        0.021      337.772        9.973      857.259
05/28/2013  05:57:00     -137.743       -4.675      -18.488       51.969       39.051       21.264     2700.735     1524.981      452.158        1.201        0.234      137.822       20.449        0.022      337.803       10.023      857.270
05/28/2013  05:58:00     -126.804      -17.271      -12.058       43.485       62.542       35.772     1890.903     3911.500     1279.638        1.180        0.354      127.974       22.646        0.031      337.748        9.931      857.288
05/28/2013  05:59:00      -96.374       45.562       -6.427       70.368       44.362       30.503     4951.709     1967.987      930.462        0.963        0.393      106.601       35.578        0.111      337.758        9.948      857.299
05/28/2013  06:00:00     -107.327       50.951       -5.931       53.212       45.356       27.859     2831.504     2057.180      776.122        0.991        0.283      118.807       11.054        0.009      337.762        9.956      857.307
05/28/2013  06:01:00     -139.740       13.426      -12.902       60.535       47.957       25.386     3664.503     2299.877      644.444        1.324        0.330      140.384       24.543        0.031      337.824       10.059      857.336
05/28/2013  06:02:00     -113.251       59.640      -11.163       64.816       39.963       31.552     4201.153     1597.017      995.513        1.165        0.340      127.995       34.335        0.072      337.773        9.974      857.338
05/28/2013  06:03:00     -138.230       66.383      -20.540       53.951       47.835       33.960     2910.712     2288.186     1153.291        1.514        0.318      153.343       20.830        0.018      337.855       10.110      857.326
05/28/2013  06:04:00      -72.677       60.316       -8.789       44.891       50.837       33.310     2015.177     2584.378     1109.579        0.735        0.285       94.445       27.394        0.084      337.883       10.157      857.297
05/28/2013  06:05:00     -135.886      -33.263       -3.202       84.769      102.271       38.806     7185.769    10459.375     1505.903        1.936        0.958      139.898       30.477        0.047      337.850       10.101      857.291
05/28/2013  06:06:00     -178.852      -43.958      -17.434       65.238       60.206       34.507     4255.949     3624.729     1190.716        2.165        0.454      184.175       37.628        0.042      337.830       10.066      857.296
05/28/2013  06:07:00     -263.826      -55.972      -16.735       93.794       71.019       49.534     8797.351     5043.748     2453.652        4.465        0.815      269.698       47.765        0.031      337.816       10.043      857.314
05/28/2013  06:08:00     -226.341       41.025      -27.098       64.139       46.848       30.321     4113.761     2194.711      919.376        3.044        0.361      230.029       25.600        0.012      337.911       10.203      857.314
05/28/2013  06:09:00     -149.587       73.503      -24.257       67.159       79.265       37.072     4510.357     6282.917     1374.352        2.027        0.608      166.671       38.753        0.054      337.868       10.132      857.302
05/28/2013  06:10:00     -176.122       70.769      -24.492       58.259       61.185       38.088     3394.110     3743.605     1450.699        2.261        0.429      189.809       31.749        0.028      337.860       10.118      857.305
05/28/2013  06:11:00     -179.528       29.967      -36.002       56.081       60.184       31.024     3145.060     3622.111      962.491        2.108        0.386      182.012       28.306        0.024      337.895       10.176      857.329
05/28/2013  06:12:00      -66.758       88.601      -10.503       49.047       65.853       34.675     2405.596     4336.682     1202.340        1.018        0.397      110.935       44.581        0.161      337.910       10.204      857.347
05/28/2013  06:13:00     -153.127       94.237      -29.119       53.131       43.649       24.383     2822.942     1905.193      594.549        1.925        0.266      179.801       20.975        0.014      337.966       10.296      857.370
05/28/2013  06:14:00      -88.948       47.835       -8.116       37.786       36.949       24.444     1427.807     1365.256      597.490        0.683        0.170      100.995       16.118        0.025      337.966       10.299      857.370
05/28/2013  06:15:00     -163.808      106.675      -32.222       91.588       72.145       40.799     8388.342     5204.936     1664.546        2.725        0.763      195.480       42.374        0.047      338.051       10.437      857.357
05/28/2013  06:16:00      -43.239       90.230        2.235       77.725       65.598       38.347     6041.118     4303.055     1470.507        1.091        0.591      100.056       46.567        0.217      338.097       10.517      857.338
05/28/2013  06:17:00      -80.601      163.909      -20.701       47.651       73.885       40.367     2270.592     5458.920     1629.487        2.157        0.468      182.655       30.864        0.029      338.113       10.542      857.356
05/28/2013  06:18:00      -93.166      184.137      -20.817       61.873       86.505       44.987     3828.264     7483.177     2023.850        2.818        0.667      206.364       41.953        0.041      338.158       10.617      857.362
05/28/2013  06:19:00     -102.798      155.061      -11.116       60.636       66.267       40.580     3676.772     4391.343     1646.774        2.222        0.486      186.041       39.963        0.046      338.167       10.632      857.349
05/28/2013  06:20:00      -74.781      178.224      -21.120       54.407       80.501       36.805     2960.113     6480.409     1354.611        2.430        0.540      193.277       41.859        0.047      338.179       10.653      857.334
05/28/2013  06:21:00     -126.099      130.152      -24.616       75.984       57.842       38.337     5773.614     3345.719     1469.700        2.202        0.529      181.220       39.639        0.048      338.162       10.622      857.357
05/28/2013  06:22:00     -113.878      129.480      -24.890       48.286       41.132       33.253     2331.582     1691.878     1105.742        1.774        0.256      172.433       27.847        0.026      338.170       10.637      857.374
05/28/2013  06:23:00      -76.716      220.730      -27.665       59.599       70.321       38.871     3551.991     4945.075     1510.921        3.269        0.500      233.681       42.203        0.033      338.186       10.661      857.373
05/28/2013  06:24:00     -163.312      166.075      -38.170       60.589       76.600       29.184     3671.008     5867.543      851.692        3.305        0.520      232.920       23.368        0.010      338.190       10.670      857.386
05/28/2013  06:25:00     -136.914      165.113      -22.904       72.847       88.590       41.899     5306.697     7848.190     1755.504        3.072        0.746      214.494       43.021        0.040      338.234       10.745      857.399
05/28/2013  06:26:00      -78.769      209.649      -19.909       54.997       84.142       44.027     3024.684     7079.847     1938.370        3.130        0.602      223.958       42.126        0.035      338.204       10.692      857.402
05/28/2013  06:27:00      -99.559      186.561      -31.084       54.576       83.646       39.754     2978.582     6996.668     1580.372        2.862        0.578      211.464       37.714        0.032      338.225       10.728      857.409
05/28/2013  06:28:00     -115.302       76.461      -22.629       45.331       42.805       29.628     2054.881     1832.301      877.824        1.221        0.238      138.351       21.101        0.023      338.229       10.739      857.420
05/28/2013  06:29:00      -92.124      104.994      -27.275       26.016       50.839       21.975      676.824     2584.576      482.896        1.200        0.187      139.680       19.096        0.019      338.276       10.817      857.425
05/28/2013  06:30:00      -67.374       55.638      -17.774       31.489       32.707       21.114      991.564     1069.725      445.807        0.523        0.125       87.377        2.949        0.001      338.282       10.829      857.424
05/28/2013  06:31:00      -85.374       68.908      -22.509       28.509       34.630       18.266      812.760     1199.239      333.631        0.744        0.117      109.714       11.412        0.011      338.266       10.802      857.424
05/28/2013  06:32:00     -151.263       34.752      -10.773       60.475       28.039       23.668     3657.183      786.207      560.181        1.460        0.250      155.203       21.225        0.019      338.275       10.815      857.427
05/28/2013  06:33:00     -107.057       -4.597       -5.392       33.148       40.493       21.138     1098.818     1639.670      446.808        0.735        0.159      107.156       16.039        0.022      338.284       10.831      857.443
05/28/2013  06:34:00     -127.178       66.111      -24.041       49.893       40.852       32.289     2489.317     1668.921     1042.576        1.316        0.260      143.335       33.461        0.054      338.227       10.736      857.441
05/28/2013  06:35:00      -42.426      141.290      -20.598       58.423       65.362       24.572     3413.252     4272.150      603.760        1.524        0.414      147.522       15.923        0.012      338.313       10.879      857.434
05/28/2013  06:36:00      -67.104      109.425       -7.085       64.608       47.633       30.674     4174.254     2268.888      940.921        1.195        0.369      128.362       33.678        0.069      338.332       10.911      857.439
05/28/2013  06:37:00      -37.087       44.377       -4.660       32.742       35.239       20.918     1072.048     1241.813      437.548        0.306        0.138       57.834       21.533        0.139      338.422       11.063      857.438
05/28/2013  06:38:00      -45.494       60.240       -5.254       40.691       55.926       20.496     1655.779     3127.732      420.088        0.546        0.260       75.489       20.578        0.074      338.361       10.959      857.442
05/28/2013  06:39:00        7.215      133.003        4.143       41.202       88.501       46.996     1697.576     7832.425     2208.642        1.475        0.587      133.199       51.992        0.152      338.419       11.056      857.446
05/28/2013  06:40:00      -56.842      174.527       -2.672       46.878       76.702       35.927     2197.522     5883.142     1290.720        2.153        0.469      183.550       28.375        0.024      338.457       11.119      857.451
05/28/2013  06:41:00      -62.725      232.216      -24.891       62.993       73.594       39.882     3968.142     5416.073     1590.557        3.472        0.549      240.538       35.106        0.021      338.516       11.215      857.463
05/28/2013  06:42:00      -55.273      206.698      -34.072       60.204       58.816       27.913     3624.553     3459.337      779.130        2.740        0.393      213.961       15.902        0.006      338.564       11.299      857.481
05/28/2013  06:43:00      -58.381      180.332      -22.074       40.324       83.199       25.683     1626.048     6922.045      659.641        2.281        0.460      189.547       26.791        0.020      338.560       11.291      857.491
05/28/2013  06:44:00      -96.958      103.213      -16.210       48.649       56.660       42.302     2366.721     3210.333     1789.430        1.384        0.368      141.612       39.547        0.078      338.547       11.273      857.507
05/28/2013  06:45:00      -23.396      187.714       -8.268       48.932      121.089       35.126     2394.321    14662.516     1233.859        2.707        0.915      189.167       51.000        0.073      338.538       11.255      857.499
05/28/2013  06:46:00      -79.997      242.297      -20.639       56.984       71.832       44.676     3247.177     5159.778     1995.911        3.797        0.520      255.161       41.465        0.026      338.495       11.182      857.502
05/28/2013  06:47:00      -65.803      344.973      -50.796       63.593       98.713       37.458     4044.062     9744.254     1403.127        7.055        0.760      351.193       16.246        0.002      338.483       11.161      857.511
05/28/2013  06:48:00      -67.728      257.611      -30.653       54.174       70.809       38.100     2934.846     5013.871     1451.579        4.064        0.470      266.366       39.814        0.022      338.466       11.132      857.544
05/28/2013  06:49:00      -15.695      248.810      -25.839       51.045       53.368       28.862     2605.593     2848.129      833.015        3.455        0.314      249.304       24.309        0.010      338.423       11.059      857.562
05/28/2013  06:50:00       -1.208      193.590      -18.010       42.342      142.718       53.405     1792.836    20368.375     2852.083        3.140        1.251      193.593       72.021        0.138      338.440       11.090      857.556
05/28/2013  06:51:00     -161.873      177.568      -42.578      115.805      123.622       48.635    13410.840    15282.347     2365.319        4.530        1.553      240.278       54.140        0.051      338.521       11.227      857.593
05/28/2013  06:52:00     -150.139      142.327      -29.362       65.983       68.649       48.650     4353.755     4712.720     2366.795        2.755        0.572      206.879       37.530        0.033      338.526       11.234      857.621
05/28/2013  06:53:00      -94.482       90.739      -18.961       63.009       48.927       34.480     3970.182     2393.871     1188.847        1.254        0.378      130.997       33.532        0.066      338.537       11.256      857.584
05/28/2013  06:54:00      -56.191       79.396       -5.157       39.535       45.932       31.482     1563.020     2109.782      991.099        0.708        0.233       97.268       25.830        0.071      338.578       11.325      857.542
05/28/2013  06:55:00      -79.633       69.538       -9.615       50.208       39.262       26.950     2520.868     1541.534      726.298        0.803        0.239      105.721       24.400        0.053      338.614       11.386      857.539
05/28/2013  06:56:00     -148.567       58.592      -31.005       57.823       92.149       35.262     3343.506     8491.459     1243.414        1.977        0.654      159.703       46.296        0.084      338.516       11.221      857.553
05/28/2013  06:57:00     -121.374      -32.356      -10.356       61.086       85.591       39.474     3731.464     7325.837     1558.168        1.425        0.631      125.613       31.250        0.062      338.484       11.166      857.554
05/28/2013  06:58:00      -33.346       -2.951        5.218       47.990       37.857       27.820     2303.007     1433.189      773.946        0.283        0.226       33.477       20.677        0.381      338.465       11.134      857.555
05/28/2013  06:59:00     -122.733       31.043      -22.794       59.632       43.655       28.110     3556.019     1905.763      790.190        1.140        0.313      126.598       36.197        0.082      338.480       11.160      857.555
05/28/2013  07:00:00     -159.383        6.984      -18.965       53.141       45.441       22.398     2823.926     2064.914      501.674        1.560        0.270      159.536       15.626        0.010      338.471       11.143      857.563
05/28/2013  07:01:00     -178.350      -59.563      -18.460       65.033       45.781       30.835     4229.298     2095.922      950.819        2.149        0.364      188.033       29.549        0.025      338.464       11.131      857.580
05/28/2013  07:02:00     -118.392      -45.177       -9.151       59.008       33.597       28.028     3481.916     1128.784      785.568        1.077        0.270      126.719       30.578        0.058      338.446       11.103      857.584
05/28/2013  07:03:00      -47.710      -11.395      -11.847       29.711       31.976       13.406      882.740     1022.464      179.713        0.232        0.104       49.052       11.675        0.057      338.468       11.139      857.576
05/28/2013  07:04:00      -65.557       19.230       -3.092       43.950       19.110       21.526     1931.607      365.193      463.371        0.372        0.138       68.319       25.311        0.137      338.465       11.134      857.558
05/28/2013  07:05:00      -77.594      -14.492       -9.004       32.305       21.055       15.751     1043.622      443.322      248.099        0.402        0.087       78.935       10.181        0.017      338.451       11.109      857.575
05/28/2013  07:06:00      -80.617      -21.272       -8.186       37.416       34.858       22.250     1399.936     1215.066      495.076        0.506        0.156       83.377       20.411        0.060      338.452       11.113      857.588
05/28/2013  07:07:00      -56.455      -41.272        0.961       40.751       29.642       20.383     1660.617      878.630      415.457        0.392        0.148       69.932       20.188        0.083      338.528       11.241      857.586
05/28/2013  07:08:00     -114.385      -44.966      -10.589       31.304       28.252       15.506      979.911      798.171      240.436        0.862        0.101      122.906       15.761        0.016      338.471       11.144      857.591
05/28/2013  07:09:00      -78.495      -32.920      -17.459       42.674       29.570       17.604     1821.092      874.380      309.884        0.528        0.150       85.118       18.028        0.045      338.498       11.189      857.590
05/28/2013  07:10:00      -83.107      -28.375       -6.317       37.749       20.455       13.977     1424.988      418.423      195.344        0.489        0.102       87.818       16.889        0.037      338.461       11.128      857.581
05/28/2013  07:11:00      -76.502        4.847      -13.577       18.217       41.992       15.039      331.872     1763.353      226.184        0.419        0.116       76.655       18.638        0.059      338.478       11.156      857.579
05/28/2013  07:12:00      -71.768       48.585      -16.044       27.065       26.183       16.840      732.505      685.546      283.595        0.473        0.085       86.667       19.217        0.049      338.476       11.153      857.579
05/28/2013  07:13:00     -117.997       -3.180      -14.554       15.312       18.733       13.044      234.462      350.921      170.135        0.745        0.038      118.040        9.082        0.006      338.529       11.240      857.589
05/28/2013  07:14:00      -75.483        5.931       -7.878       23.822       29.242       12.497      567.495      855.121      156.164        0.369        0.079       75.716        9.552        0.016      338.495       11.186      857.604
05/28/2013  07:15:00      -70.017       35.367      -20.638       19.482       28.198       17.294      379.567      795.111      299.073        0.403        0.074       78.443       13.096        0.028      338.542       11.262      857.624
05/28/2013  07:16:00      -58.103       52.344      -10.494       27.518       20.178       19.813      757.220      407.156      392.561        0.389        0.078       78.204       12.028        0.024      338.602       11.366      857.646
05/28/2013  07:17:00      -58.493       67.339      -14.862       21.809       31.760       20.666      475.648     1008.710      427.099        0.504        0.096       89.196       15.270        0.029      338.618       11.392      857.655
05/28/2013  07:18:00      -31.889       66.394      -11.056       25.221       26.306       13.435      636.100      692.022      180.493        0.353        0.075       73.655       12.228        0.028      338.675       11.487      857.683
05/28/2013  07:19:00       -9.527       64.631        0.339       17.673       29.228       18.179      312.322      854.252      330.482        0.288        0.075       65.329       13.082        0.040      338.742       11.600      857.666
05/28/2013  07:20:00       10.683       56.165       -3.108       26.949       31.553       16.683      726.260      995.587      278.339        0.264        0.100       57.172       22.198        0.151      338.672       11.481      857.659
05/28/2013  07:21:00       18.458       52.383       -9.429       22.736       28.875       16.173      516.946      833.757      261.582        0.239        0.081       55.540        8.712        0.025      338.653       11.452      857.635
05/28/2013  07:22:00       32.972       94.025       -5.605       43.730       37.705       26.066     1912.287     1421.676      679.420        0.699        0.201       99.639       24.517        0.061      338.595       11.355      857.613
05/28/2013  07:23:00      122.159       71.819        1.241       33.520       24.330       30.340     1123.604      591.964      920.532        1.136        0.132      141.707       14.397        0.010      338.519       11.224      857.597
05/28/2013  07:24:00      111.259       58.713        0.320       43.318       30.325       28.750     1876.430      919.630      826.543        0.972        0.181      125.801       16.054        0.016      338.520       11.227      857.564
05/28/2013  07:25:00       26.601       37.004        1.237       52.679       34.642       21.724     2775.107     1200.034      471.930        0.326        0.222       45.573       14.279        0.098      338.527       11.239      857.558
05/28/2013  07:26:00       67.504       60.731       -1.648       31.551       20.686       19.151      995.465      427.895      366.761        0.502        0.090       90.802       12.851        0.020      338.518       11.225      857.544
05/28/2013  07:27:00       78.495       60.032       19.903       31.955       30.815       28.703     1021.145      949.580      823.870        0.648        0.140       98.820       17.755        0.032      338.532       11.247      857.528
05/28/2013  07:28:00      116.851       71.143       16.776       46.532       50.723       34.931     2165.220     2572.865     1220.146        1.248        0.298      136.805       24.422        0.032      338.539       11.258      857.523
05/28/2013  07:29:00      128.939       82.815       17.048       62.030       57.759       36.852     3847.689     3336.055     1358.089        1.616        0.427      153.243       30.144        0.039      338.540       11.259      857.530
05/28/2013  07:30:00      125.382       78.438       23.338       52.668       38.508       46.334     2773.941     1482.879     2146.856        1.441        0.320      147.896       22.600        0.023      338.555       11.283      857.527
05/28/2013  07:31:00      107.246       61.618        4.183       35.842       23.976       26.046     1284.666      574.832      678.404        0.893        0.127      123.687       15.057        0.015      338.541       11.262      857.528
05/28/2013  07:32:00      141.481       87.223       31.689       77.878       51.392       41.014     6065.024     2641.133     1682.170        1.951        0.519      166.207       13.123        0.006      338.563       11.298      857.551
05/28/2013  07:33:00       53.695       56.569       14.711       58.507       37.193       28.345     3423.077     1383.308      803.451        0.595        0.280       77.995       14.410        0.034      338.576       11.321      857.594
05/28/2013  07:34:00       77.887       57.000       -0.436       47.130       31.664       29.727     2221.245     1002.634      883.667        0.671        0.205       96.516        9.021        0.009      338.600       11.361      857.633
05/28/2013  07:35:00      121.099       81.806       15.496       37.334       34.165       24.600     1393.851     1167.278      605.152        1.238        0.158      146.141       14.027        0.009      338.585       11.338      857.673
05/28/2013  07:36:00      105.201       77.635       25.759       35.539       27.827       30.101     1262.999      774.357      906.082        1.035        0.147      130.746       12.583        0.009      338.597       11.357      857.687
05/28/2013  07:37:00       93.215       34.266       13.327       31.788       25.962       23.831     1010.485      674.049      567.894        0.615        0.113       99.314       15.652        0.025      338.665       11.470      857.688
05/28/2013  07:38:00       70.312       62.999       -4.774       34.319       34.201       28.872     1177.813     1169.679      833.577        0.606        0.159       94.407       19.010        0.041      338.677       11.488      857.690
05/28/2013  07:39:00       29.936       36.921       19.347       32.090       26.409       24.651     1029.791      697.445      607.671        0.248        0.117       47.532       19.472        0.168      338.711       11.548      857.681
05/28/2013  07:40:00       28.817       32.062       26.554       34.122       34.549       20.072     1164.320     1193.630      402.866        0.266        0.138       43.109       10.409        0.058      338.879       11.831      857.689
05/28/2013  07:41:00       28.183       25.282        7.948       44.392       25.388       29.724     1970.653      644.534      883.535        0.250        0.175       37.861       25.735        0.462      338.871       11.817      857.706
05/28/2013  07:42:00       67.079       75.452       50.043       51.693       38.988       46.592     2672.148     1520.056     2170.845        0.953        0.318      100.958       31.652        0.098      338.878       11.829      857.703
05/28/2013  07:43:00       30.961       39.849       52.570       48.910       48.558       41.166     2392.226     2357.857     1694.638        0.588        0.322       50.463       41.238        0.668      338.975       11.990      857.714
05/28/2013  07:44:00       66.652       80.694       63.951       47.507       40.170       33.205     2256.946     1613.662     1102.545        1.001        0.249      104.662       24.487        0.055      338.890       11.847      857.720
05/28/2013  07:45:00       23.810       50.647       49.172       43.817       61.072       34.261     1919.916     3729.825     1173.821        0.619        0.341       55.965       37.894        0.458      339.000       12.033      857.733
05/28/2013  07:46:00       47.667       72.834       67.565       53.693       49.815       26.596     2882.899     2481.541      707.373        0.911        0.304       87.045       15.155        0.030      338.984       12.008      857.747
05/28/2013  07:47:00       72.225       65.265       34.453       45.795       31.852       40.205     2097.179     1014.580     1616.428        0.769        0.236       97.344       25.673        0.070      338.815       11.723      857.748
05/28/2013  07:48:00       82.838       75.561       37.190       60.152       45.006       34.906     3618.280     2025.520     1218.444        1.041        0.343      112.123       29.687        0.070      338.891       11.850      857.754
05/28/2013  07:49:00      111.258       69.803       12.210       52.147       47.412       32.795     2719.342     2247.876     1075.523        1.172        0.302      131.342       20.909        0.025      338.849       11.780      857.751
05/28/2013  07:50:00      136.293       54.440       15.099       67.457       52.229       47.015     4550.425     2727.899     2210.435        1.563        0.474      146.763       35.249        0.058      338.843       11.768      857.759
05/28/2013  07:51:00      177.210       83.790       33.787       65.170       52.955       45.859     4247.149     2804.205     2103.076        2.436        0.458      196.021       38.525        0.039      338.783       11.667      857.758
05/28/2013  07:52:00       85.377       85.691       61.295       95.027       51.800       51.292     9030.056     2683.194     2630.920        1.636        0.717      120.963       53.975        0.199      338.866       11.808      857.739
05/28/2013  07:53:00       49.375      114.740      104.461       64.166       47.856       42.885     4117.291     2290.164     1839.115        1.738        0.412      124.913       43.962        0.124      338.961       11.969      857.714
05/28/2013  07:54:00      109.681       63.257       24.026       48.714       49.042       31.850     2373.035     2405.098     1014.432        1.120        0.290      126.615       23.827        0.035      338.916       11.893      857.717
05/28/2013  07:55:00       49.575       26.289       25.989       47.573       34.169       33.184     2263.180     1167.546     1101.190        0.418        0.227       56.114       24.385        0.189      339.083       12.173      857.732
05/28/2013  07:56:00       53.789       29.843       24.182       59.027       40.765       29.049     3484.221     1661.754      843.841        0.518        0.299       61.513       23.619        0.147      339.003       12.038      857.760
05/28/2013  07:57:00       69.043       36.642       21.783       29.374       22.593       21.371      862.819      510.431      456.731        0.421        0.091       78.164       12.434        0.025      339.024       12.074      857.780
05/28/2013  07:58:00       79.997       65.386       17.069       52.115       41.389       31.213     2715.984     1713.037      974.220        0.818        0.270      103.319       22.130        0.046      338.946       11.943      857.784
05/28/2013  07:59:00       85.020       36.894       17.951       43.099       38.890       33.097     1857.540     1512.464     1095.416        0.669        0.223       92.680       21.963        0.056      338.946       11.943      857.794
05/28/2013  08:00:00       85.899       77.627       47.570       52.751       41.494       46.556     2782.685     1721.790     2167.441        1.117        0.334      115.779       31.751        0.075      338.992       12.018      857.796
05/28/2013  08:01:00       94.256      102.422       56.991       85.077       66.864       53.972     7238.061     4470.787     2912.982        1.862        0.731      139.192       38.599        0.077      338.899       11.864      857.796
05/28/2013  08:02:00      141.011       94.179       27.921       71.800       46.118       54.210     5155.287     2126.891     2938.687        1.988        0.511      169.569       43.711        0.066      338.892       11.851      857.783
05/28/2013  08:03:00      102.912       92.759       13.607       56.240       47.951       38.651     3162.976     2299.334     1493.920        1.317        0.348      138.546       24.862        0.032      338.789       11.679      857.790
05/28/2013  08:04:00       99.556       90.926        4.909       61.520       50.877       43.920     3784.761     2588.504     1928.944        1.325        0.415      134.830       25.361        0.035      338.849       11.779      857.794
05/28/2013  08:05:00      181.808      114.542       21.826       30.293       34.926       27.576      917.661     1219.847      760.453        2.477        0.145      214.882       21.261        0.010      338.750       11.612      857.812
05/28/2013  08:06:00      114.606       77.312       22.222       41.134       38.737       29.846     1692.040     1500.529      890.800        1.184        0.204      138.245       17.207        0.015      338.808       11.711      857.821
05/28/2013  08:07:00      103.801       62.686       23.623       30.678       20.713       25.046      941.120      429.010      627.317        0.863        0.100      121.261       12.594        0.011      338.902       11.870      857.812
05/28/2013  08:08:00       65.608       49.660       33.750       42.287       33.598       22.337     1788.175     1128.841      498.942        0.566        0.171       82.283       20.172        0.060      339.026       12.077      857.812
05/28/2013  08:09:00       41.046       16.823       51.571       46.060       49.497       30.868     2121.517     2449.925      952.816        0.507        0.276       44.360       28.522        0.413      339.066       12.144      857.815
05/28/2013  08:10:00       50.981       54.396       55.221       42.694       52.687       37.191     1822.791     2775.962     1383.153        0.729        0.299       74.552       33.465        0.201      339.076       12.162      857.821
05/28/2013  08:11:00        1.236       21.697       48.351       20.605       42.374       25.835      424.571     1795.531      667.447        0.285        0.144       21.732       16.302        0.563      339.215       12.396      857.829
05/28/2013  08:12:00       14.743        0.266       15.128       21.320       24.156       16.031      454.556      583.513      256.982        0.087        0.065       14.745        8.610        0.341      339.202       12.375      857.833
05/28/2013  08:13:00        6.539      -30.315       24.177       17.768       28.888       19.825      315.700      834.545      393.043        0.154        0.077       31.012        7.650        0.061      339.328       12.586      857.822
05/28/2013  08:14:00       15.212       19.977       35.011       24.847       20.550       13.739      617.391      422.288      188.773        0.154        0.061       25.110       12.535        0.249      339.225       12.412      857.820
05/28/2013  08:15:00       -2.404       16.796       60.144       26.710       41.262       24.251      713.424     1702.577      588.087        0.345        0.150       16.967       25.396        2.240      339.308       12.553      857.819
05/28/2013  08:16:00       23.801       68.649       77.777       47.097       45.688       36.205     2218.096     2087.411     1310.792        0.847        0.281       72.658       36.232        0.249      339.160       12.303      857.829
05/28/2013  08:17:00       68.960       -4.610       44.235       55.157       88.563       51.236     3042.273     7843.389     2625.095        1.012        0.676       69.114       54.575        0.624      339.061       12.136      857.815
05/28/2013  08:18:00       58.317       -6.089       44.202       64.316       71.511       36.975     4136.589     5113.764     1367.148        0.800        0.531       58.634       44.897        0.586      339.268       12.484      857.800
05/28/2013  08:19:00       25.455      -23.525       24.466       42.995       58.595       31.897     1848.604     3433.427     1017.423        0.405        0.315       34.661       35.213        1.032      339.242       12.440      857.802
05/28/2013  08:20:00        8.711      -55.437        8.105       31.028       45.952       26.337      962.750     2111.622      693.642        0.349        0.188       56.118       21.916        0.153      339.300       12.540      857.794
05/28/2013  08:21:00       29.198        6.553       44.551       40.489       72.605       50.973     1639.336     5271.497     2598.271        0.619        0.475       29.924       51.302        2.939      339.339       12.604      857.789
05/28/2013  08:22:00       45.251       43.337       66.639       59.314       83.528       59.375     3518.178     6976.947     3525.331        1.119        0.701       62.656       51.742        0.682      339.334       12.595      857.798
05/28/2013  08:23:00      109.203       67.787       56.159       71.431       62.590       62.754     5102.401     3917.447     3938.125        1.631        0.648      128.531       47.412        0.136      339.087       12.180      857.808
05/28/2013  08:24:00      142.948      100.892       97.922      104.377       74.373       69.284    10894.474     5531.272     4800.259        3.071        1.061      174.967       64.103        0.134      339.067       12.146      857.825
05/28/2013  08:25:00      138.476        6.507       43.947      102.869       73.272       53.721    10581.991     5368.857     2885.902        1.999        0.942      138.628       61.523        0.197      339.072       12.154      857.819
05/28/2013  08:26:00       81.377       -0.138       63.916       79.373       71.034       55.887     6300.127     5045.761     3123.393        1.259        0.723       81.377       45.894        0.318      339.242       12.441      857.796
05/28/2013  08:27:00      119.504       81.165      103.834       98.922       59.610       79.111     9785.623     3553.409     6258.591        2.562        0.980      144.461       39.824        0.076      339.141       12.268      857.805
05/28/2013  08:28:00       99.135      104.285       92.925       81.272       62.066       47.043     6605.165     3852.221     2213.025        2.100        0.634      143.886       34.484        0.057      339.137       12.263      857.811
05/28/2013  08:29:00       34.221       56.999       92.353       64.385       66.688       63.539     4145.417     4447.240     4037.187        1.279        0.631       66.483       52.103        0.614      339.275       12.496      857.826
05/28/2013  08:30:00       79.052       72.514      105.150       66.596       95.315       48.973     4435.010     9084.856     2398.351        1.924        0.796      107.273       55.342        0.266      339.195       12.362      857.835
05/28/2013  08:31:00       34.960       21.876      100.166       73.582      101.570       66.917     5414.310    10316.447     4477.942        1.597        1.010       41.240       65.980        2.560      339.369       12.654      857.796
05/28/2013  08:32:00       95.454      153.132      140.192      138.818      107.399       91.637    19270.369    11534.483     8397.279        4.570        1.960      180.446       90.345        0.251      339.328       12.583      857.759
05/28/2013  08:33:00      162.435      144.137       52.311       63.051       48.315       75.526     3975.448     2334.377     5704.183        3.095        0.601      217.165       49.332        0.052      339.300       12.534      857.826
05/28/2013  08:34:00      127.720      113.610       75.084       58.876       65.954       65.525     3466.407     4349.884     4293.465        2.348        0.605      170.937       52.912        0.096      339.137       12.262      857.856
05/28/2013  08:35:00      122.623       44.163       73.134       92.367       79.495       69.487     8531.606     6319.409     4828.426        2.100        0.984      130.334       58.887        0.204      339.184       12.341      857.858
05/28/2013  08:36:00       53.590       64.533       81.369       59.794       60.262       45.900     3575.346     3631.486     2106.802        1.148        0.466       83.883       48.622        0.336      339.355       12.631      857.889
05/28/2013  08:37:00       34.144       45.637       26.363       34.897       29.999       35.947     1217.827      899.959     1292.171        0.368        0.170       56.996       23.476        0.170      339.386       12.683      857.932
05/28/2013  08:38:00       21.667       76.207      -10.368       25.396       36.589       22.560      644.953     1338.773      508.957        0.444        0.125       79.227       15.813        0.040      339.212       12.389      857.959
05/28/2013  08:39:00       69.058       40.946       13.974       39.582       39.327       38.001     1566.719     1546.614     1444.113        0.560        0.228       80.285       23.656        0.087      339.224       12.411      857.978
05/28/2013  08:40:00       35.305       47.834       -7.140      103.684       58.295       35.105    10750.460     3398.270     1232.351        0.948        0.769       59.452       18.923        0.101      339.193       12.358      857.956
05/28/2013  08:41:00       -2.085        5.527       -7.070       56.433       58.034       23.218     3184.639     3367.911      539.086        0.359        0.355        5.908       15.528        6.909      339.391       12.693      857.985
05/28/2013  08:42:00     -164.621      105.924      -35.957      114.654       81.904       41.632    13145.527     6708.277     1733.252        3.060        1.079      195.755       27.378        0.020      339.333       12.593      858.013
05/28/2013  08:43:00     -135.110       80.684      -20.919       57.844       47.707       37.540     3345.985     2275.942     1409.218        1.612        0.352      157.368       31.739        0.041      339.304       12.544      858.015
05/28/2013  08:44:00      -84.274       -2.603       -3.885       72.267       60.661       38.968     5222.535     3679.784     1518.527        0.877        0.521       84.314       33.433        0.157      339.341       12.607      858.032
05/28/2013  08:45:00      -75.743        4.494       -3.685       62.572       44.715       30.399     3915.271     1999.420      924.093        0.630        0.342       75.877       26.607        0.123      339.407       12.720      858.049
05/28/2013  08:46:00     -122.569       84.243      -15.243       78.334       63.854       45.575     6136.281     4077.298     2077.101        1.732        0.615      148.728       28.501        0.037      339.335       12.598      858.080
05/28/2013  08:47:00      -78.702      122.315        0.813       75.531      102.968       56.168     5704.922    10602.397     3154.791        2.031        0.973      145.447       44.409        0.093      339.314       12.562      858.080
05/28/2013  08:48:00     -169.831       41.150      -20.073      104.384       71.811       39.025    10895.944     5156.870     1522.940        2.425        0.879      174.745       34.010        0.038      339.365       12.646      858.090
05/28/2013  08:49:00     -102.875       46.308       -3.941       93.287       93.688       49.176     8702.471     8777.431     2418.238        1.632        0.995      112.817       55.562        0.243      339.410       12.723      858.085
05/28/2013  08:50:00     -174.867      108.572      -26.585      102.983       97.600       50.078    10605.454     9525.851     2507.845        3.285        1.132      205.831       61.898        0.090      339.272       12.489      858.082
05/28/2013  08:51:00      -98.613       98.380      -14.370       55.005       70.851       41.499     3025.529     5019.830     1722.180        1.469        0.488      139.295       35.563        0.065      339.345       12.614      858.069
05/28/2013  08:52:00      -47.322       86.995        2.059       56.312       53.882       42.359     3170.988     2903.249     1794.277        0.884        0.393       99.033       37.065        0.140      339.393       12.694      858.082
05/28/2013  08:53:00      -31.217       79.416       -2.409       67.171       63.579       34.615     4511.891     4042.246     1198.226        0.852        0.488       85.331       37.599        0.194      339.430       12.758      858.079
05/28/2013  08:54:00     -102.371      116.598      -20.767      112.190       78.546       46.149    12586.686     6169.421     2129.706        2.269        1.044      155.161       47.176        0.092      339.378       12.667      858.087
05/28/2013  08:55:00     -123.882      207.669      -30.608      108.300      134.053       55.856    11728.932    17970.107     3119.909        4.611        1.641      241.813       72.951        0.091      339.338       12.602      858.096
05/28/2013  08:56:00     -207.512      180.661      -34.236       93.289       85.351       51.476     8702.883     7284.738     2649.785        4.775        0.932      275.136       46.291        0.028      339.316       12.562      858.102
05/28/2013  08:57:00     -100.566      204.010      -32.802       75.108       88.882       48.713     5641.203     7900.083     2372.937        3.436        0.796      227.450       36.130        0.025      339.327       12.581      858.116
05/28/2013  08:58:00     -130.967      287.424      -30.782       84.550      127.248       58.514     7148.719    16192.069     3423.851        6.373        1.338      315.856       67.463        0.046      339.316       12.562      858.107
05/28/2013  08:59:00     -157.955      243.898      -38.586       69.596      109.426       57.471     4843.644    11973.952     3302.859        5.302        1.006      290.578       54.090        0.035      339.280       12.502      858.102
05/28/2013  09:00:00      -79.034      284.094      -24.979      102.416       83.043       62.337    10488.962     6896.096     3885.886        5.442        1.064      294.882       45.009        0.023      339.300       12.534      858.102
05/28/2013  09:01:00      -26.516      308.226      -33.826       84.210       84.194       52.970     7091.341     7088.668     2805.796        5.692        0.849      309.364       51.220        0.027      339.288       12.515      858.097
05/28/2013  09:02:00      -50.396      198.106       -8.939       46.341      104.873       43.424     2147.492    10998.425     1885.642        2.845        0.752      204.416       43.942        0.046      339.401       12.706      858.090
05/28/2013  09:03:00      -65.117      141.877       -3.811       67.469       83.352       48.236     4552.024     6947.602     2326.760        1.910        0.691      156.107       37.944        0.059      339.428       12.753      858.103
05/28/2013  09:04:00      -53.557      143.238       -8.622       51.116       46.882       34.611     2612.808     2197.916     1197.911        1.473        0.300      152.923       26.621        0.030      339.503       12.880      858.100
05/28/2013  09:05:00      -49.516      109.180      -12.729       65.136       64.950       31.240     4242.654     4218.542      975.929        1.198        0.472      119.884       24.264        0.041      339.476       12.837      858.105
05/28/2013  09:06:00     -117.318      217.365      -28.406       66.980      112.354       47.607     4486.350    12623.491     2266.386        4.059        0.969      247.004       43.038        0.030      339.413       12.727      858.119
05/28/2013  09:07:00      -90.112      282.760      -40.745       75.796       73.631       31.571     5745.096     5421.508      996.734        5.095        0.608      296.771       25.522        0.007      339.387       12.680      858.119
05/28/2013  09:08:00      -79.262      161.147      -18.668       48.971       85.149       38.915     2398.180     7250.422     1514.363        2.188        0.558      179.585       38.833        0.047      339.491       12.859      858.115
05/28/2013  09:09:00     -127.919      302.164      -40.660       79.328       99.922       46.619     6292.904     9984.309     2173.329        6.388        0.923      328.125       46.285        0.020      339.424       12.745      858.121
05/28/2013  09:10:00     -111.696      206.148      -29.378       71.680       73.030       54.737     5138.050     5333.344     2996.173        3.465        0.673      234.463       49.764        0.045      339.407       12.718      858.127
05/28/2013  09:11:00      -92.725      281.556      -35.451       97.316       86.625       46.618     9470.312     7503.860     2173.205        5.413        0.957      296.432       46.849        0.025      339.302       12.539      858.114
05/28/2013  09:12:00      -31.439      256.601      -32.379       54.778      104.757       47.158     3000.604    10973.967     2223.872        4.204        0.810      258.520       55.216        0.046      339.365       12.645      858.098
05/28/2013  09:13:00       21.973      210.813      -11.685       65.601       94.737       65.090     4303.504     8975.031     4236.740        3.129        0.876      211.955       63.591        0.090      339.393       12.692      858.086
05/28/2013  09:14:00      -22.264      264.976      -34.569       77.173       75.252       46.486     5955.680     5662.841     2160.993        4.284        0.689      265.910       43.792        0.027      339.390       12.685      858.071
05/28/2013  09:15:00      -54.827      294.791      -32.623       75.210      100.841       47.406     5656.526    10168.977     2247.318        5.452        0.904      299.846       49.566        0.027      339.387       12.681      858.057
05/28/2013  09:16:00       31.668      191.834       -7.439       68.625      169.077       63.856     4709.355    28587.180     4077.651        3.761        1.869      194.431       81.799        0.177      339.437       12.767      858.044
05/28/2013  09:17:00      -19.223      212.804      -18.725       57.424       74.677       51.773     3297.557     5576.671     2680.460        2.878        0.578      213.671       44.383        0.043      339.461       12.807      858.066
05/28/2013  09:18:00      -49.649      162.292      -16.695       36.559       38.085       28.859     1336.579     1450.432      832.868        1.635        0.181      169.716       22.824        0.018      339.510       12.893      858.067
05/28/2013  09:19:00      -18.281      152.178      -10.560       45.127       55.918       37.344     2036.419     3126.866     1394.541        1.508        0.328      153.272       36.597        0.057      339.557       12.971      858.050
05/28/2013  09:20:00       -8.868      198.340      -17.627       88.146      134.855       41.330     7769.720    18185.921     1708.162        3.369        1.383      198.538       55.599        0.078      339.570       12.991      858.045
05/28/2013  09:21:00     -102.295      204.190      -27.125       67.698      112.645       45.148     4582.989    12688.986     2038.345        3.610        0.966      228.380       42.051        0.034      339.636       13.102      858.057
05/28/2013  09:22:00      -94.239      143.481      -18.051       84.384      100.414       34.739     7120.632    10083.042     1206.787        2.410        0.921      171.662       35.517        0.043      339.590       13.025      858.048
05/28/2013  09:23:00      -69.575      249.123      -35.022       50.801       87.909       39.419     2580.710     7727.973     1553.819        3.999        0.593      258.656       28.232        0.012      339.553       12.962      858.054
05/28/2013  09:24:00     -103.370      183.796      -19.474       68.723      105.385       45.705     4722.812    11105.941     2088.908        3.138        0.896      210.870       52.384        0.062      339.625       13.083      858.065
05/28/2013  09:25:00     -120.586      167.832      -25.383       63.066       83.413       41.189     3977.294     6957.810     1696.495        2.799        0.632      206.660       39.887        0.037      339.628       13.090      858.080
05/28/2013  09:26:00      -40.798      219.442      -11.445       77.569       95.019       50.164     6017.020     9028.529     2516.404        3.375        0.878      223.202       48.019        0.046      339.666       13.153      858.096
05/28/2013  09:27:00      -22.935      198.984      -10.846       50.971       81.285       41.297     2598.093     6607.241     1705.452        2.557        0.546      200.301       45.525        0.052      339.563       12.980      858.109
05/28/2013  09:28:00      -25.651       83.625        6.983       69.299       64.788       40.972     4802.372     4197.450     1678.737        0.919        0.534       87.471       24.430        0.078      339.643       13.116      858.093
05/28/2013  09:29:00       24.579      158.719       -5.688       49.359       74.842       43.858     2436.322     5601.389     1923.517        1.789        0.498      160.610       44.489        0.077      339.596       13.037      858.071
05/28/2013  09:30:00       31.612      190.247       -9.655       79.667      147.960       54.844     6346.853    21892.194     3007.832        3.426        1.562      192.855       57.483        0.089      339.603       13.047      858.050
05/28/2013  09:31:00      -17.937      330.682      -49.784       69.693       88.135       41.708     4857.053     7767.841     1739.539        6.326        0.718      331.168       42.504        0.016      339.430       12.753      858.057
05/28/2013  09:32:00      -52.416      214.375      -25.999       86.275       98.826       45.648     7443.320     9766.497     2083.763        3.433        0.965      220.690       54.600        0.061      339.534       12.930      858.053
05/28/2013  09:33:00       96.912      164.208       -0.634       94.389      110.102       65.306     8909.349    12122.346     4264.839        3.082        1.265      190.673       70.276        0.136      339.568       12.988      858.046
05/28/2013  09:34:00      -30.277      204.432      -24.838       76.283       90.737       50.031     5819.116     8233.169     2503.113        2.994        0.828      206.662       49.979        0.058      339.621       13.077      858.075
05/28/2013  09:35:00     -117.199      383.761      -38.914      158.196      149.803       90.072    25026.014    22441.045     8112.952       10.904        2.779      401.258      100.994        0.063      339.539       12.937      858.087
05/28/2013  09:36:00     -129.691      223.166      -27.102       87.004       93.335       52.522     7569.685     8711.388     2758.526        4.320        0.952      258.114       52.553        0.041      339.584       13.013      858.079
05/28/2013  09:37:00      -90.819      262.506      -25.634      115.962      130.469       66.776    13447.101    17022.053     4459.049        5.637        1.746      277.772       63.496        0.052      339.551       12.960      858.074
05/28/2013  09:38:00     -126.082      195.212      -38.064       66.744       68.686       45.364     4454.790     4717.791     2057.929        3.334        0.562      232.389       41.382        0.032      339.523       12.911      858.058
05/28/2013  09:39:00      -80.533      138.107      -20.727       53.189       60.006       36.189     2829.039     3600.766     1309.673        1.686        0.387      159.872       28.130        0.031      339.650       13.127      858.063
05/28/2013  09:40:00      -68.908       83.301       -9.583       46.870       47.464       30.896     2196.834     2252.811      954.576        0.859        0.270      108.108       27.223        0.063      339.657       13.141      858.028
05/28/2013  09:41:00      -15.336      200.372      -14.986       39.894       75.029       32.942     1591.552     5629.426     1085.145        2.446        0.415      200.958       26.263        0.017      339.638       13.105      858.006
05/28/2013  09:42:00      -44.292      365.507      -43.884       59.469       69.365       33.595     3536.577     4811.552     1128.651        7.348        0.474      368.181       17.497        0.002      339.554       12.963      858.026
05/28/2013  09:43:00      -85.229      228.006      -39.580       65.366      108.820       44.042     4272.728    11841.713     1939.669        3.943        0.903      243.415       42.020        0.030      339.625       13.084      857.999
05/28/2013  09:44:00     -193.292       83.566      -19.747      115.486      102.806       64.104    13337.093    10569.017     4109.374        3.637        1.401      210.583       63.631        0.091      339.633       13.097      857.985
05/28/2013  09:45:00      -13.958      159.211      -20.967       63.351       79.421       44.438     4013.371     6307.671     1974.694        1.914        0.615      159.822       37.241        0.054      339.765       13.322      857.999
05/28/2013  09:46:00     -110.292      188.964      -29.905       62.505       84.135       40.341     3906.821     7078.657     1627.408        3.069        0.631      218.796       30.126        0.019      339.732       13.264      857.997
05/28/2013  09:47:00       -5.221      133.002      -30.994       51.910       92.351       25.977     2694.687     8528.629      674.827        1.529        0.595      133.105       13.566        0.010      339.767       13.325      858.026
05/28/2013  09:48:00      -16.442       77.189        9.004       32.494       45.073       23.193     1055.871     2031.568      537.915        0.497        0.181       78.921       23.734        0.090      339.908       13.565      858.041
05/28/2013  09:49:00     -116.624       71.029      -11.931       69.749       51.521       33.920     4864.944     2654.437     1150.536        1.373        0.433      136.551       29.596        0.047      339.818       13.412      858.051
05/28/2013  09:50:00      -67.787      121.472       -6.202       52.208       68.264       41.352     2725.687     4659.937     1709.975        1.424        0.455      139.106       31.432        0.051      339.896       13.542      858.064
05/28/2013  09:51:00      -29.521       24.474       -4.693       48.997       38.460       32.497     2400.666     1479.171     1056.074        0.321        0.247       38.346        9.355        0.060      339.954       13.642      858.078
05/28/2013  09:52:00      -51.141     -112.447        5.708       75.086       51.241       35.190     5637.939     2625.606     1238.339        1.240        0.475      123.531       30.186        0.060      339.874       13.506      858.096
05/28/2013  09:53:00      -54.451     -126.066       12.352       66.335       78.781       39.604     4400.285     6206.473     1568.447        1.559        0.609      137.323       34.912        0.065      339.619       13.076      858.111
05/28/2013  09:54:00      -58.266     -164.796       -5.846       52.222       55.328       32.420     2727.085     3061.211     1051.080        1.871        0.342      174.793       33.893        0.038      339.539       12.940      858.089
05/28/2013  09:55:00      -49.873      -77.741       -9.303       28.299       29.094       21.911      800.835      846.477      480.101        0.537        0.106       92.364       12.916        0.020      339.585       13.018      858.079
05/28/2013  09:56:00      -43.398     -103.354       -5.692       21.720       38.336       18.326      471.748     1469.642      335.851        0.744        0.114      112.096        9.532        0.007      339.615       13.069      858.061
05/28/2013  09:57:00     -100.523      -45.641      -11.639       32.551       41.901       22.988     1059.582     1755.710      528.452        0.783        0.167      110.399       15.130        0.019      339.680       13.179      858.048
05/28/2013  09:58:00     -116.920      -77.459       -1.897       60.246       42.890       34.676     3629.624     1839.554     1202.449        1.317        0.334      140.250       34.758        0.061      339.635       13.103      858.041
05/28/2013  09:59:00      -36.050      -85.330        5.567       23.406       44.640       21.452      547.826     1992.687      460.167        0.581        0.150       92.633       15.395        0.028      339.637       13.106      858.038
05/28/2013  10:00:00      -63.533      -19.108      -10.335       34.874       27.889       17.832     1216.222      777.817      317.982        0.341        0.116       66.344       16.475        0.062      339.643       13.117      858.062
05/28/2013  10:01:00      -25.837       18.160        2.188       20.422       15.608       18.127      417.059      243.612      328.580        0.100        0.049       31.580       15.305        0.235      339.754       13.304      858.083
05/28/2013  10:02:00       -3.981       34.365       10.245       11.485       24.145       18.813      131.894      582.993      353.920        0.119        0.053       34.594       16.075        0.216      339.834       13.441      858.088
05/28/2013  10:03:00        1.252       34.295        0.206       13.091       23.761       11.326      171.373      564.570      128.288        0.102        0.043       34.318       11.897        0.120      339.842       13.453      858.095
05/28/2013  10:04:00      -24.852        4.686       -4.745       15.106       10.944        7.933      228.181      119.773       62.927        0.054        0.021       25.290        2.271        0.008      339.877       13.512      858.093
05/28/2013  10:05:00      -64.307      -46.239       -1.120       44.055       59.883       23.564     1940.844     3585.918      555.266        0.618        0.304       79.205       20.878        0.069      339.818       13.412      858.115
05/28/2013  10:06:00      -27.490     -127.163        3.994       69.320       58.815       33.850     4805.298     3459.217     1145.798        1.317        0.471      130.100       23.528        0.033      339.650       13.130      858.136
05/28/2013  10:07:00     -187.302     -114.036       -4.073       76.931       50.666       46.596     5918.305     2567.070     2171.203        2.938        0.533      219.286       43.984        0.040      339.635       13.101      858.141
05/28/2013  10:08:00     -202.465      -92.748       -2.996       58.065       58.468       34.160     3371.494     3418.486     1166.937        2.878        0.398      222.697       26.907        0.015      339.710       13.228      858.173
05/28/2013  10:09:00     -143.453      -11.973      -21.703       78.181       58.367       35.392     6112.291     3406.702     1252.605        1.598        0.539      143.952       35.162        0.060      339.608       13.056      858.191
05/28/2013  10:10:00     -182.063     -134.740       -3.495      137.637       89.303       63.717    18943.858     7974.987     4059.865        4.114        1.549      226.499       73.758        0.106      339.569       12.989      858.192
05/28/2013  10:11:00     -133.388     -143.152       17.272      111.139       94.437       57.702    12351.784     8918.377     3329.486        3.159        1.230      195.665       65.151        0.111      339.525       12.916      858.212
05/28/2013  10:12:00     -328.539     -158.084      -19.925       99.326      117.880       55.807     9865.623    13895.648     3114.385        8.010        1.344      364.594       48.490        0.018      339.434       12.762      858.200
05/28/2013  10:13:00     -264.897     -134.493       -6.623      105.587       86.342       56.588    11148.568     7454.932     3202.252        5.505        1.090      297.084       57.413        0.037      339.415       12.729      858.206
05/28/2013  10:14:00     -251.675      -47.291      -27.168      117.120      103.238       46.030    13717.129    10658.166     2118.733        4.640        1.325      256.080       52.748        0.042      339.387       12.683      858.190
05/28/2013  10:15:00     -191.534      -27.083      -17.044       77.791       80.671       33.905     6051.411     6507.869     1149.542        2.571        0.685      193.440       30.277        0.024      339.405       12.712      858.184
05/28/2013  10:16:00     -112.639     -108.471       -3.205       68.353       49.784       41.273     4672.100     2478.471     1703.480        1.666        0.443      156.376       41.648        0.071      339.435       12.766      858.180
05/28/2013  10:17:00     -180.081      -65.772      -12.175       92.490       54.449       39.394     8554.348     2964.741     1551.888        2.498        0.654      191.716       35.001        0.033      339.428       12.753      858.170
05/28/2013  10:18:00     -105.204       -2.735      -14.019       36.653       47.112       28.081     1343.442     2219.498      788.523        0.781        0.218      105.240       11.414        0.012      339.480       12.840      858.169
05/28/2013  10:19:00     -115.279      -31.734       -9.791       62.736       35.740       26.601     3935.810     1277.375      707.634        1.016        0.296      119.567       26.856        0.050      339.517       12.902      858.171
05/28/2013  10:20:00     -209.613      -92.343       -7.106      105.116       63.459       38.736    11049.285     4027.021     1500.504        3.454        0.829      229.052       40.182        0.031      339.542       12.944      858.174
05/28/2013  10:21:00     -249.616     -157.686       -5.841      162.617      101.801       68.831    26444.228    10363.467     4737.652        6.437        2.077      295.251       77.421        0.069      339.504       12.878      858.168
05/28/2013  10:22:00     -244.864      -47.825       -7.780      118.933      103.197       50.361    14144.960    10649.692     2536.190        4.481        1.367      249.491       57.071        0.052      339.483       12.844      858.161
05/28/2013  10:23:00     -105.566      -37.910       12.383      102.126      101.593       62.015    10429.692    10321.046     3845.888        1.866        1.230      112.166       62.286        0.308      339.574       12.999      858.158
05/28/2013  10:24:00     -208.566      -10.322      -14.837      136.112       95.661       57.490    18526.445     9150.937     3305.128        3.740        1.549      208.821       52.961        0.064      339.519       12.906      858.184
05/28/2013  10:25:00     -166.228      -16.490        3.311      136.357       63.928       48.138    18593.196     4086.799     2317.266        2.645        1.250      167.044       59.621        0.127      339.422       12.743      858.206
05/28/2013  10:26:00     -127.731       11.998       15.127       96.083       76.035       41.201     9231.922     5781.336     1697.524        1.670        0.836      128.293       51.573        0.162      339.460       12.808      858.221
05/28/2013  10:27:00      -79.714      -12.594       -2.509       66.698       46.790       35.470     4448.670     2189.298     1258.129        0.721        0.395       80.703       26.583        0.109      339.491       12.858      858.232
05/28/2013  10:28:00     -156.068      -82.799      -14.229       78.020       86.267       33.728     6087.068     7441.961     1137.552        2.304        0.733      176.671       20.724        0.014      339.444       12.780      858.241
05/28/2013  10:29:00     -175.174      -39.812      -22.055       74.302       63.204       37.581     5520.815     3994.725     1412.360        2.184        0.546      179.641       17.784        0.010      339.425       12.746      858.265
05/28/2013  10:30:00     -146.494      -39.335      -23.208       69.750       83.475       38.644     4864.997     6968.075     1493.321        1.843        0.666      151.683       25.658        0.029      339.428       12.753      858.293
05/28/2013  10:31:00      -87.191      100.818       -9.521       89.064      118.882       57.532     7932.398    14133.044     3309.891        2.161        1.269      133.291       51.393        0.149      339.330       12.589      858.311
05/28/2013  10:32:00     -114.963      123.134      -19.683       63.346      104.591       42.646     4012.767    10939.189     1818.718        2.277        0.839      168.460       30.543        0.033      339.350       12.622      858.319
05/28/2013  10:33:00     -101.744      139.409      -30.401       70.582       82.814       33.209     4981.780     6858.214     1102.850        2.182        0.647      172.588       32.925        0.036      339.318       12.566      858.326
05/28/2013  10:34:00      -33.566       62.769        3.220       32.563       30.441       20.099     1060.335      926.655      403.965        0.373        0.120       71.180       18.392        0.067      339.367       12.651      858.305
05/28/2013  10:35:00       -5.263       22.438       -4.145       44.456       36.411       22.959     1976.348     1325.753      527.119        0.219        0.191       23.047       21.678        0.885      339.413       12.730      858.276
05/28/2013  10:36:00     -125.763      -51.812       -7.517       54.898       31.827       21.210     3013.795     1012.970      449.873        1.152        0.224      136.018       17.120        0.016      339.435       12.766      858.277
05/28/2013  10:37:00     -129.457      -37.307      -22.120       66.177       48.664       32.637     4379.344     2368.143     1065.159        1.323        0.391      134.725       23.242        0.030      339.445       12.782      858.282
05/28/2013  10:38:00     -150.462       -5.284      -24.897       69.300       57.217       28.547     4802.483     3273.821      814.936        1.609        0.445      150.555       28.308        0.035      339.440       12.774      858.301
05/28/2013  10:39:00     -185.956     -102.057      -17.506       67.281       89.064       45.072     4526.727     7932.387     2031.451        2.989        0.725      212.121       32.191        0.023      339.489       12.853      858.308
05/28/2013  10:40:00     -192.027      187.008      -40.132      113.302       81.650       63.323    12837.282     6666.797     4009.749        4.848        1.176      268.041       66.496        0.062      339.498       12.868      858.335
05/28/2013  10:41:00     -167.656       45.426      -24.841       69.671       70.852       34.941     4854.002     5020.064     1220.855        2.094        0.555      173.701       28.783        0.027      339.565       12.984      858.323
05/28/2013  10:42:00     -188.723       68.577       -7.621      118.911      110.158       60.240    14139.798    12134.849     3628.897        3.514        1.495      200.796       65.581        0.107      339.539       12.939      858.311
05/28/2013  10:43:00     -134.569       11.006      -22.156      100.321       48.468       36.285    10064.288     2349.123     1316.618        1.622        0.687      135.018       26.912        0.040      339.557       12.970      858.277
05/28/2013  10:44:00     -207.249      117.784      -35.093       79.292       60.877       39.025     6287.287     3705.968     1522.959        3.478        0.576      238.380       42.603        0.032      339.479       12.838      858.251
05/28/2013  10:45:00      -59.338       79.587       -3.449       43.853       58.547       34.091     1923.121     3427.793     1162.209        0.819        0.326       99.273       29.228        0.087      339.581       13.011      858.244
05/28/2013  10:46:00     -112.006       29.037      -16.606       60.798       59.789       36.373     3696.455     3574.667     1322.978        1.113        0.430      115.709       24.849        0.046      339.569       12.992      858.235
05/28/2013  10:47:00     -238.053       18.161      -26.189      116.790       85.410       54.325    13639.802     7294.851     2951.173        4.078        1.194      238.745       51.222        0.046      339.609       13.058      858.243
05/28/2013  10:48:00     -136.359      -10.151       -3.658      105.840       77.296       44.312    11202.133     5974.649     1963.572        1.892        0.957      136.736       51.413        0.141      339.930       13.600      858.235
05/28/2013  10:49:00     -133.204      102.574      -13.523      121.929       85.006       62.145    14866.698     7226.095     3861.978        2.720        1.298      168.121       68.965        0.168      340.005       13.725      858.240
05/28/2013  10:50:00     -133.485      180.998      -34.173       71.999       96.964       44.762     5183.855     9402.063     2003.641        3.417        0.829      224.897       57.723        0.066      339.854       13.471      858.231
05/28/2013  10:51:00      -12.941      236.150      -23.036       51.441       68.459       37.497     2646.131     4686.572     1406.023        3.260        0.437      236.504       36.934        0.024      339.962       13.651      858.206
05/28/2013  10:52:00      -36.141      107.014        2.134       51.675       57.771       37.505     2670.346     3337.459     1406.602        1.009        0.371      112.952       30.715        0.074      340.341       14.296      858.187
05/28/2013  10:53:00      -48.317      250.497      -34.987       70.668      100.252       46.452     4993.957    10050.556     2157.817        4.175        0.860      255.114       40.958        0.026      340.254       14.146      858.186
05/28/2013  10:54:00        6.760      167.862       -6.635       47.925       88.324       49.590     2296.771     7801.167     2459.139        2.041        0.628      167.998       47.632        0.080      340.554       14.652      858.186
05/28/2013  10:55:00      -24.413       91.618      -21.473       48.767       52.582       29.566     2378.214     2764.877      874.167        0.773        0.301       94.814       25.671        0.073      340.245       14.133      858.162
05/28/2013  10:56:00     -136.957       22.056       -1.263      116.431      115.989       51.021    13556.077    13453.515     2603.170        2.442        1.481      138.722       54.893        0.157      340.238       14.118      858.165
05/28/2013  10:57:00     -273.255       90.354      -29.170       95.918       70.005       53.209     9200.190     4900.690     2831.217        5.030        0.847      287.806       42.570        0.022      339.984       13.688      858.160
05/28/2013  10:58:00      -78.562       46.627        5.646       80.485       73.362       39.486     6477.912     5381.930     1559.171        1.090        0.671       91.357       37.548        0.169      340.374       14.350      858.148
05/28/2013  10:59:00      -34.689       35.526        8.002       45.509       58.266       35.355     2071.041     3394.885     1250.009        0.462        0.336       49.653       23.812        0.230      340.512       14.584      858.105
05/28/2013  11:00:00     -177.736      169.997      -43.575       79.648      121.424       53.652     6343.780    14743.674     2878.518        4.317        1.198      245.945       47.670        0.038      340.066       13.828      858.096
05/28/2013  11:01:00     -196.138      162.145      -33.602       95.656       90.535       53.423     9150.099     8196.509     2854.031        4.304        1.010      254.482       48.700        0.037      340.155       13.976      858.078
05/28/2013  11:02:00     -146.426      279.679      -48.304       95.359      101.732       49.044     9093.385    10349.375     2405.333        6.192        1.092      315.691       45.130        0.020      339.945       13.622      858.057
05/28/2013  11:03:00      -60.912      298.691      -33.284       87.092      151.291       61.837     7584.960    22888.981     3823.846        6.416        1.715      304.838       79.565        0.068      340.034       13.773      858.052
05/28/2013  11:04:00      -23.033      262.637      -23.713       61.949       95.680       42.990     3837.629     9154.620     1848.143        4.245        0.742      263.645       49.462        0.035      340.018       13.746      858.039
05/28/2013  11:05:00       78.998      218.019      -33.557       71.833       87.841       46.992     5160.040     7716.030     2208.237        3.499        0.754      231.891       43.275        0.035      340.078       13.848      857.992
05/28/2013  11:06:00       25.842      137.997       -4.920       73.713      113.252       56.238     5433.534    12826.072     3162.706        2.058        1.071      140.395       63.108        0.202      340.131       13.939      857.960
05/28/2013  11:07:00      -56.217      223.389      -18.678       69.878       75.396       45.373     4882.983     5684.564     2058.751        3.302        0.631      230.354       39.018        0.029      340.351       14.307      857.955
05/28/2013  11:08:00      -45.165      299.681      -24.591       57.144       77.939       40.680     3265.402     6074.461     1654.852        5.172        0.550      303.065       38.600        0.016      340.160       13.984      857.956
05/28/2013  11:09:00      -30.786       60.323       -2.430       41.446      118.470       29.251     1717.774    14035.138      855.629        1.060        0.830       67.725       40.394        0.356      340.383       14.365      857.960
05/28/2013  11:10:00       10.633       90.994       -1.537       39.150       39.978       29.240     1532.747     1598.279      854.963        0.619        0.199       91.613       25.601        0.078      340.544       14.639      857.945
05/28/2013  11:11:00       34.105       91.185        4.754       67.999       64.032       46.409     4623.847     4100.082     2153.777        1.019        0.544       97.354       38.737        0.158      340.728       14.948      857.975
05/28/2013  11:12:00     -125.148      156.047      -21.799      144.296      127.634       63.603    20821.278    16290.514     4045.332        4.082        2.058      200.031       70.445        0.124      340.697       14.894      857.992
05/28/2013  11:13:00     -136.561      274.917      -33.042       62.299       93.927       52.162     3881.159     8822.233     2720.881        5.537        0.771      306.966       49.454        0.026      340.360       14.324      858.018
05/28/2013  11:14:00     -113.832      269.842      -28.579       81.367      105.713       52.904     6620.622    11175.140     2798.843        5.359        1.030      292.870       42.491        0.021      340.496       14.553      858.022
05/28/2013  11:15:00     -124.172      306.304      -33.488       95.009      106.521       54.376     9026.716    11346.754     2956.762        6.684        1.167      330.516       57.829        0.031      340.489       14.541      858.029
05/28/2013  11:16:00     -104.153      360.827      -44.168      106.722      127.903       55.500    11389.487    16359.135     3080.246        8.691        1.541      375.559       55.502        0.022      340.391       14.376      858.037
05/28/2013  11:17:00      -94.619      301.312      -27.024       97.041      122.899       60.136     9417.034    15104.166     3616.395        6.430        1.407      315.819       58.710        0.035      340.349       14.304      858.022
05/28/2013  11:18:00     -122.126      330.020      -35.021       67.887       91.680       51.132     4608.702     8405.196     2614.486        7.034        0.781      351.892       54.177        0.024      340.335       14.281      858.029
05/28/2013  11:19:00      -74.620      212.654      -29.654       79.646       83.060       40.809     6343.538     6899.029     1665.409        3.329        0.745      225.366       37.004        0.027      340.456       14.487      858.027
05/28/2013  11:20:00       13.333      221.845      -13.204       67.453       93.929       54.801     4549.861     8822.700     3003.154        3.297        0.819      222.246       47.038        0.045      340.478       14.524      858.014
05/28/2013  11:21:00      -23.493      184.666        2.071       61.029       80.275       54.859     3724.511     6444.028     3009.532        2.392        0.659      186.154       51.646        0.077      340.467       14.506      857.995
05/28/2013  11:22:00      -31.617      255.243      -28.391       78.702       94.219       53.348     6194.025     8877.225     2846.042        4.243        0.896      257.194       55.762        0.047      340.545       14.636      857.985
05/28/2013  11:23:00      -96.086      302.538      -35.943       97.923      100.078       43.673     9588.881    10015.629     1907.372        6.178        1.076      317.430       54.909        0.030      340.548       14.640      857.977
05/28/2013  11:24:00      -53.656      248.899      -22.451       51.779       73.375       42.176     2681.108     5383.931     1778.808        3.759        0.492      254.616       38.261        0.023      340.538       14.624      857.981
05/28/2013  11:25:00      -56.526      331.330      -37.047       51.781      102.456       37.794     2681.265    10497.195     1428.389        6.447        0.730      336.117       18.335        0.003      340.516       14.587      857.991
05/28/2013  11:26:00      -44.385      189.456      -14.750       53.743       96.054       45.932     2888.262     9226.369     2109.707        2.615        0.711      194.586       54.496        0.078      340.624       14.769      857.973
05/28/2013  11:27:00      -92.502      283.466      -26.255       69.465      118.718       49.481     4825.428    14094.077     2448.323        5.548        1.068      298.177       53.098        0.032      340.675       14.857      857.972
05/28/2013  11:28:00     -203.866       78.583      -32.216      144.410      143.638       44.435    20854.380    20631.796     1974.452        4.611        2.173      218.487       50.007        0.052      340.850       15.153      857.959
05/28/2013  11:29:00      -83.232       46.183       -8.801       68.154       62.782       29.100     4644.993     3941.566      846.830        0.928        0.472       95.186       23.409        0.060      341.038       15.473      857.958
05/28/2013  11:30:00      -24.555      129.654       -7.656       58.604       69.426       39.831     3434.391     4819.928     1586.478        1.365        0.492      131.958       24.776        0.035      341.185       15.722      857.945
05/28/2013  11:31:00      -70.211      394.530      -41.433      121.054      129.896       65.386    14654.119    16872.908     4275.363        9.905        1.790      400.729       68.556        0.029      341.023       15.446      857.966
05/28/2013  11:32:00      -47.245      348.891      -41.160       89.863      145.292       57.308     8075.302    21109.823     3284.260        7.905        1.623      352.075       73.851        0.044      340.919       15.268      857.989
05/28/2013  11:33:00     -155.679      295.494      -42.625       85.869      130.771       55.800     7373.471    17101.026     3113.663        7.047        1.379      333.995       51.188        0.023      341.058       15.504      858.009
05/28/2013  11:34:00     -115.009      234.350      -20.896       76.067      113.162       55.223     5786.262    12805.630     3049.577        4.511        1.082      261.050       58.458        0.050      341.060       15.508      858.043
05/28/2013  11:35:00      -96.362      310.078      -16.395      155.292      172.871       92.646    24115.599    29884.496     8583.294        8.413        3.129      324.706       96.906        0.089      341.008       15.420      858.020
05/28/2013  11:36:00     -112.268      331.699      -47.705      103.842      163.520       64.248    10783.246    26738.795     4127.771        8.327        2.082      350.183       66.846        0.036      340.901       15.239      857.994
05/28/2013  11:37:00      -77.100      255.522      -12.367      130.872      177.404       68.638    17127.452    31472.122     4711.118        6.234        2.666      266.901       75.470        0.080      341.048       15.488      857.993
05/28/2013  11:38:00      -67.759      416.553      -51.022       98.311      206.770       62.650     9665.058    42753.923     3924.962       11.852        2.817      422.028       79.833        0.036      340.819       15.101      857.989
05/28/2013  11:39:00        3.234      404.610      -47.668       94.686      148.484       65.186     8965.435    22047.391     4249.158       10.062        1.763      404.623       75.635        0.035      340.639       14.795      857.971
05/28/2013  11:40:00      -30.644      406.129      -53.322       71.833      121.681       51.333     5159.984    14806.383     2635.044        9.566        1.130      407.283       53.120        0.017      340.717       14.927      857.944
05/28/2013  11:41:00     -180.759      265.305      -44.654       87.174      110.703       62.914     7599.335    12255.070     3958.207        6.443        1.191      321.030       60.740        0.036      340.872       15.191      857.973
05/28/2013  11:42:00     -150.196      219.591      -16.162      108.866      119.423       72.093    11851.868    14261.903     5197.365        5.117        1.566      266.043       69.187        0.068      341.025       15.448      857.981
05/28/2013  11:43:00     -249.057      117.903      -29.526      138.490       95.965       68.906    19179.504     9209.220     4748.048        5.496        1.657      275.554       70.402        0.065      340.945       15.313      858.011
05/28/2013  11:44:00     -173.059       67.974        1.432      127.556      120.123       70.751    16270.539    14429.598     5005.652        3.513        1.785      185.930       63.157        0.115      341.030       15.457      858.029
05/28/2013  11:45:00     -147.320      139.676      -17.597       90.122      113.110       61.582     8121.894    12793.856     3792.293        3.311        1.235      203.009       49.970        0.061      341.016       15.433      858.045
05/28/2013  11:46:00     -315.651      110.422      -36.339      161.414      113.915       65.485    26054.579    12976.607     4288.317        7.823        2.166      334.408       73.802        0.049      340.937       15.300      858.065
05/28/2013  11:47:00     -189.881      125.851      -12.561      115.385      108.641       59.081    13313.622    11802.938     3490.599        4.032        1.430      227.801       63.376        0.077      341.079       15.542      858.071
05/28/2013  11:48:00     -234.843      195.569      -51.659      111.440      105.030       62.596    12418.975    11031.273     3918.319        6.171        1.368      305.611       73.247        0.057      340.936       15.297      858.091
05/28/2013  11:49:00      -76.096      277.274      -18.320       65.446      157.308       59.253     4283.195    24745.750     3510.892        5.777        1.627      287.526       64.386        0.050      341.252       15.832      858.084
05/28/2013  11:50:00     -151.600      419.316      -46.376       93.833       88.244       55.496     8804.559     7786.945     3079.814       11.031        0.984      445.880       42.608        0.009      340.943       15.307      858.090
05/28/2013  11:51:00     -115.708      370.956      -49.527       83.635      107.623       44.879     6994.806    11582.700     2014.097        8.702        1.030      388.582       34.990        0.008      340.804       15.073      858.117
05/28/2013  11:52:00     -103.474      267.695      -27.430      101.255      124.590       66.555    10252.570    15522.728     4429.610        5.666        1.510      286.997       71.622        0.062      340.817       15.096      858.129
05/28/2013  11:53:00     -147.268      373.370      -49.290      113.597      109.134       60.309    12904.214    11910.128     3637.180        9.598        1.423      401.364       61.857        0.024      340.692       14.886      858.140
05/28/2013  11:54:00     -147.960      271.265      -49.923      143.517      183.979       72.462    20596.987    33848.131     5250.680        7.882        2.985      308.993       71.106        0.053      340.784       15.041      858.120
05/28/2013  11:55:00     -186.774      211.771      -38.063      115.580      101.820       62.178    13358.771    10367.336     3866.047        5.438        1.380      282.368       72.949        0.067      340.845       15.145      858.149
05/28/2013  11:56:00     -244.493      299.398      -67.360      100.027      115.216       63.349    10005.417    13274.835     4013.120        9.062        1.365      386.544       63.699        0.027      340.771       15.017      858.183
05/28/2013  11:57:00     -135.276      152.759       -9.890       90.481       89.808       61.753     8186.724     8065.559     3813.466        3.090        1.003      204.047       54.814        0.072      340.905       15.247      858.203
05/28/2013  11:58:00     -129.158      143.421      -23.822       95.515      164.284       52.135     9123.100    26989.249     2718.072        3.832        1.942      193.006       48.836        0.064      340.828       15.115      858.194
05/28/2013  11:59:00      -37.372      321.368      -24.045       65.727      135.290       56.041     4320.088    18303.279     3140.585        6.550        1.288      323.533       60.518        0.035      340.944       15.313      858.172
05/28/2013  12:00:00      -74.997      302.205      -43.361       76.393      154.488       43.097     5835.850    23866.480     1857.332        6.519        1.578      311.372       32.547        0.011      340.924       15.276      858.157
05/28/2013  12:01:00      -70.725      163.507      -10.568       77.106      204.370       60.131     5945.404    41766.905     3615.715        4.158        2.566      178.147       79.573        0.200      341.049       15.491      858.105
05/28/2013  12:02:00     -188.070       53.789      -17.503      118.276      147.730       63.937    13989.206    21824.189     4087.925        3.923        1.995      195.611       56.677        0.084      341.159       15.675      858.130
05/28/2013  12:03:00     -299.404      317.251      -55.899      163.132      193.245       90.872    26612.055    37343.487     8257.764       13.280        3.611      436.223       84.725        0.038      341.342       15.984      858.093
05/28/2013  12:04:00     -215.474       -6.100      -17.103      129.499      121.767       68.787    16769.938    14827.303     4731.673        4.154        1.816      215.561       58.954        0.075      341.386       16.061      858.111
05/28/2013  12:05:00     -154.539       22.646      -21.468      110.143       91.557       47.395    12131.488     8382.622     2246.276        2.380        1.138      156.190       31.540        0.041      341.401       16.087      858.154
05/28/2013  12:06:00     -113.568       50.763      -11.112       89.103       90.242       58.528     7939.389     8143.580     3425.472        1.755        0.975      124.397       53.339        0.184      341.378       16.048      858.165
05/28/2013  12:07:00      -98.857      160.874      -10.041      115.323       95.061       85.524    13299.406     9036.672     7314.332        3.270        1.483      188.820       68.027        0.130      341.295       15.907      858.175
05/28/2013  12:08:00     -242.423      165.468      -26.739      135.197      206.301       82.659    18278.207    42560.134     6832.492        7.726        3.384      293.511       71.665        0.060      341.209       15.761      858.166
05/28/2013  12:09:00     -278.044      181.847      -46.218      115.678      136.543       74.330    13381.392    18643.913     5524.994        7.503        1.878      332.230       57.133        0.030      341.139       15.641      858.191
05/28/2013  12:10:00     -146.045       89.102      -21.214       87.870       85.728       52.998     7721.064     7349.320     2808.793        2.380        0.894      171.080       45.362        0.070      341.259       15.845      858.198
05/28/2013  12:11:00     -209.811      169.221      -32.271       96.050      116.001       53.959     9225.596    13456.196     2911.591        4.964        1.280      269.549       46.472        0.030      341.156       15.669      858.201
05/28/2013  12:12:00     -261.221       16.204      -15.450      124.234      118.366       56.602    15434.194    14010.491     3203.799        5.069        1.632      261.723       41.064        0.025      341.116       15.603      858.207
05/28/2013  12:13:00      -68.056      -40.994       14.687       95.011       52.979       44.750     9027.120     2806.733     2002.532        1.018        0.692       79.449       50.713        0.407      341.425       16.128      858.182
05/28/2013  12:14:00     -140.993        0.693      -18.888       82.578       58.387       33.881     6819.174     3409.035     1147.939        1.580        0.569      140.995       34.946        0.061      341.453       16.175      858.167
05/28/2013  12:15:00     -174.803      -16.302      -17.528      100.646       79.880       52.289    10129.619     6380.793     2734.114        2.518        0.962      175.562       42.134        0.058      341.507       16.266      858.137
05/28/2013  12:16:00     -204.886       54.253      -30.688       82.781       85.166       42.037     6852.751     7253.222     1767.146        3.087        0.794      211.947       27.118        0.016      341.331       15.967      858.122
05/28/2013  12:17:00     -163.481       97.730      -32.165       88.094       72.359       42.898     7760.517     5235.811     1840.258        2.607        0.742      190.466       29.299        0.024      341.526       16.296      858.127
05/28/2013  12:18:00     -123.332      184.949      -28.814       91.182       82.767       46.846     8314.175     6850.377     2194.545        3.380        0.868      222.299       46.416        0.044      341.412       16.103      858.133
05/28/2013  12:19:00      -49.191      193.291      -13.036       60.966      107.457       51.916     3716.894    11546.962     2695.308        2.895        0.898      199.453       59.018        0.088      341.508       16.267      858.083
05/28/2013  12:20:00     -132.208      170.011      -30.178      154.060      191.235       69.071    23734.384    36570.793     4770.766        5.617        3.254      215.367       60.987        0.080      341.596       16.415      858.053
05/28/2013  12:21:00     -128.432      154.019      -21.171       84.289      235.642       70.022     7104.713    55527.117     4903.120        5.409        3.377      200.541       67.799        0.114      341.553       16.344      858.074
05/28/2013  12:22:00     -269.369       77.023      -31.539      162.678      137.485       73.127    26463.969    18902.201     5347.539        6.509        2.536      280.164       80.711        0.083      341.342       15.984      858.050
05/28/2013  12:23:00      -82.443       90.811       -5.255       81.349       93.385       51.459     6617.603     8720.712     2648.068        1.653        0.899      122.652       51.878        0.179      341.559       16.353      858.042
05/28/2013  12:24:00     -154.420       97.740      -21.932       70.882       93.671       38.935     5024.204     8774.333     1515.955        2.459        0.766      182.753       26.285        0.021      341.595       16.414      858.062
05/28/2013  12:25:00     -154.176      -46.435        0.098       80.291      105.501       54.104     6446.650    11130.455     2927.292        2.321        1.025      161.017       42.501        0.070      341.625       16.465      858.066
05/28/2013  12:26:00     -208.395      -22.275      -23.424       82.364       80.431       49.386     6783.898     6469.193     2438.973        3.008        0.785      209.582       35.784        0.029      341.431       16.135      858.071
05/28/2013  12:27:00     -166.818       66.859      -31.810       78.766       61.073       39.523     6204.088     3729.871     1562.073        2.240        0.575      179.717       32.132        0.032      341.386       16.059      858.096
05/28/2013  12:28:00     -262.425       10.807      -17.458      170.841      132.911       67.064    29186.478    17665.426     4497.584        6.031        2.567      262.647       87.462        0.111      341.424       16.124      858.072
05/28/2013  12:29:00     -297.961       11.506      -21.212      150.600      120.953       65.043    22680.250    14629.623     4230.583        6.544        2.077      298.183       61.113        0.042      341.506       16.262      858.060
05/28/2013  12:30:00     -369.384      -20.438      -42.141      152.951       81.552       56.470    23394.129     6650.681     3188.866        8.593        1.662      369.949       61.880        0.028      341.401       16.083      858.080
05/28/2013  12:31:00     -223.464      -32.682      -13.469       90.497       94.756       53.899     8189.668     8978.760     2905.085        3.563        1.004      225.842       40.522        0.032      341.469       16.200      858.093
05/28/2013  12:32:00     -278.246      -19.191       -8.046      132.076      120.676       71.559    17443.987    14562.608     5120.687        5.748        1.856      278.907       69.599        0.062      341.336       15.975      858.083
05/28/2013  12:33:00     -170.587      -56.377       -1.446      119.614      100.707       59.285    14307.543    10141.808     3514.707        3.012        1.398      179.661       44.975        0.063      341.406       16.092      858.072
05/28/2013  12:34:00     -195.656      -31.819      -25.294       80.180       76.365       58.805     6428.758     5831.605     3458.042        2.782        0.786      198.227       44.427        0.050      341.355       16.006      858.083
05/28/2013  12:35:00      -90.537        5.008       -8.048       72.381       63.378       43.341     5238.974     4016.787     1878.445        0.971        0.557       90.676       40.803        0.202      341.489       16.235      858.071
05/28/2013  12:36:00      -36.807       69.396       24.070      122.303       81.952       51.124    14958.100     6716.120     2613.681        1.551        1.214       78.553       46.718        0.354      341.556       16.350      858.058
05/28/2013  12:37:00     -130.546       87.771      -16.931       97.718      117.047       41.106     9548.859    13699.919     1689.721        2.498        1.247      157.309       30.787        0.038      341.502       16.256      858.022
05/28/2013  12:38:00     -234.470      -22.381      -26.468      151.819      144.218       76.698    23049.119    20798.885     5882.654        5.295        2.487      235.536       80.874        0.118      341.479       16.217      858.047
05/28/2013  12:39:00     -339.493      104.141      -51.104      142.196      113.063       56.339    20219.599    12783.259     3174.072        8.244        1.809      355.107       51.204        0.021      341.405       16.092      858.050
05/28/2013  12:40:00     -343.304      -97.220      -32.248      129.557      136.799       54.939    16784.985    18714.024     3018.282        8.343        1.926      356.804       31.962        0.008      341.509       16.267      858.071
05/28/2013  12:41:00     -119.849      -62.652       13.312      164.844      103.637       57.766    27173.505    10740.721     3336.862        2.985        2.063      135.237       58.253        0.186      341.839       16.829      858.061
05/28/2013  12:42:00     -186.914      -60.195       -0.115      160.754      122.271       81.013    25841.756    14950.235     6563.118        4.295        2.368      196.368       79.332        0.163      342.115       17.296      858.083
05/28/2013  12:43:00     -350.837      -70.926      -10.081      161.309      166.313       80.605    26020.752    27659.964     6497.173        9.419        3.009      357.935       69.970        0.038      341.927       16.976      858.085
05/28/2013  12:44:00     -353.371      -73.915      -33.422      126.880      113.360       60.375    16098.595    12850.444     3645.081        8.202        1.630      361.019       45.803        0.016      341.787       16.739      858.095
05/28/2013  12:45:00     -203.624       12.994      -33.787      148.328       78.230       51.651    22001.275     6119.892     2667.785        3.678        1.539      204.038       64.056        0.099      341.917       16.961      858.123
05/28/2013  12:46:00     -170.943       79.117      -11.081      131.514      122.580       81.239    17295.934    15025.766     6599.766        3.726        1.946      188.365       77.466        0.169      341.907       16.944      858.122
05/28/2013  12:47:00     -269.711      -33.464      -21.967      147.646      140.561       68.664    21799.300    19757.312     4714.685        6.030        2.314      271.779       78.420        0.083      341.888       16.911      858.124
05/28/2013  12:48:00     -334.701       -2.766      -29.783      117.102      123.161       50.592    13712.900    15168.592     2559.504        7.217        1.572      334.712       54.471        0.026      341.664       16.530      858.153
05/28/2013  12:49:00     -296.789      115.074      -35.299      131.279      114.505       62.620    17234.187    13111.380     3921.296        6.841        1.713      318.317       51.668        0.026      341.622       16.460      858.167
05/28/2013  12:50:00     -182.636      116.936      -26.479       92.959       87.588       63.409     8641.325     7671.673     4020.719        3.403        1.017      216.864       29.255        0.018      341.760       16.694      858.181
05/28/2013  12:51:00     -143.909       -2.421       -7.448       67.551       96.593       53.669     4563.116     9330.216     2880.343        1.877        0.839      143.929       38.388        0.071      341.818       16.794      858.140
05/28/2013  12:52:00     -206.102       28.671      -34.883      190.170       75.567       41.408    36164.568     5710.316     1714.657        4.405        2.179      208.086       62.858        0.091      341.454       16.175      858.108
05/28/2013  12:53:00     -327.034      -87.662      -14.360      162.609      128.590       66.795    26441.773    16535.332     4461.541        8.113        2.372      338.579       77.351        0.052      341.639       16.488      858.063
05/28/2013  12:54:00     -142.671       27.627      -20.764       80.096       79.606       48.746     6415.342     6337.153     2376.149        1.834        0.756      145.321       41.235        0.081      341.766       16.706      858.075
05/28/2013  12:55:00     -205.498      -47.305      -18.297      115.419      105.282       45.268    13321.440    11084.300     2049.165        3.562        1.323      210.873       26.937        0.016      341.810       16.777      858.084
05/28/2013  12:56:00     -192.315      -94.260        2.938      171.628       84.182       57.763    29456.302     7086.594     3336.606        4.287        1.994      214.173       64.819        0.092      341.681       16.560      858.074
05/28/2013  12:57:00     -149.823       26.709       -3.156       62.155      122.663       51.750     3863.182    15046.157     2678.018        2.238        1.079      152.185       36.501        0.058      341.645       16.500      858.095
05/28/2013  12:58:00     -171.448       23.732        6.202      141.629      126.183       67.440    20058.883    15922.104     4548.221        3.526        2.026      173.083       76.079        0.193      341.729       16.641      858.106
05/28/2013  12:59:00     -299.790      -88.359      -24.673      178.198      116.231       66.119    31754.625    13509.687     4371.779        7.395        2.482      312.540       81.980        0.069      341.671       16.543      858.090
05/28/2013  13:00:00     -354.458      -66.239      -43.057      141.592      111.367       62.699    20048.348    12402.586     3931.214        8.413        1.819      360.594       59.095        0.027      341.771       16.710      858.080
05/28/2013  13:01:00     -325.662       39.514      -50.621       96.190      131.811       64.082     9252.596    17374.261     4106.504        7.045        1.537      328.050       58.629        0.032      341.651       16.507      858.087
05/28/2013  13:02:00     -132.417      109.325      -33.869      127.823       78.015       44.579    16338.715     6086.356     1987.284        2.752        1.221      171.715       55.443        0.104      341.972       17.055      858.066
05/28/2013  13:03:00      -52.183      192.682       -9.421       56.063       83.138       47.468     3143.096     6911.918     2253.214        2.612        0.615      199.623       44.383        0.049      341.911       16.950      858.053
05/28/2013  13:04:00     -121.231      163.887       -1.688       99.840       89.538       56.428     9967.963     8017.045     3184.111        3.136        1.058      203.853       44.082        0.047      342.070       17.219      858.049
05/28/2013  13:05:00     -182.116      177.348      -21.340       88.519      119.920       55.642     7835.602    14380.819     3096.002        4.519        1.266      254.202       52.139        0.042      342.139       17.335      858.048
05/28/2013  13:06:00      -73.225      124.513      -14.357       92.282       70.623       36.263     8516.041     4987.569     1314.980        1.794        0.741      144.448       36.365        0.063      342.085       17.247      858.043
05/28/2013  13:07:00     -151.653       96.435      -17.702      147.249      107.846       65.695    21682.266    11630.730     4315.837        3.511        1.881      179.718       71.358        0.158      342.340       17.680      858.051
05/28/2013  13:08:00     -297.668      121.480      -27.175      180.091      128.632       84.442    32432.898    16546.165     7130.414        8.010        2.805      321.502       83.138        0.067      342.059       17.202      858.034
05/28/2013  13:09:00     -195.128       67.758       -1.803      164.788      207.091       95.167    27155.054    42886.590     9056.830        6.087        3.955      206.557       86.519        0.175      342.018       17.132      858.021
05/28/2013  13:10:00     -311.452       93.697      -23.126      186.041      145.612       94.407    34611.390    21202.836     8912.629        8.551        3.236      325.240       86.804        0.071      341.918       16.961      858.021
05/28/2013  13:11:00     -196.718      108.138       -6.574      137.120      154.167       98.653    18801.786    23767.325     9732.434        5.136        2.615      224.481       86.360        0.148      342.185       17.415      858.020
05/28/2013  13:12:00     -260.144       62.566      -29.156      163.300      115.795       72.661    26666.871    13408.478     5279.565        5.889        2.268      267.562       70.871        0.070      341.957       17.027      858.067
05/28/2013  13:13:00     -236.098      112.501      -36.983       93.902      117.808       59.059     8817.634    13878.786     3488.006        4.797        1.309      261.531       58.684        0.050      341.955       17.025      858.062
05/28/2013  13:14:00     -138.351       61.358       -2.021      111.449      157.312       70.094    12420.876    24747.013     4913.224        3.249        2.104      151.346       67.861        0.201      342.391       17.767      858.027
05/28/2013  13:15:00     -119.023       63.334        3.229       95.477      117.156       53.688     9115.915    13725.505     2882.388        2.195        1.286      134.825       49.799        0.136      342.646       18.200      858.042
05/28/2013  13:16:00      -89.431       35.759      -22.489       60.691       47.513       29.619     3683.447     2257.531      877.281        0.830        0.341       96.315       19.398        0.041      342.308       17.628      858.033
05/28/2013  13:17:00     -133.546       79.169       -4.320       73.718       63.335       44.659     5434.315     4011.326     1994.389        1.778        0.572      155.249       40.388        0.068      342.358       17.710      858.038
05/28/2013  13:18:00     -120.865      191.598      -24.971       86.858      153.569       56.713     7544.392    23583.342     3216.399        4.314        1.717      226.535       43.675        0.037      342.236       17.502      858.051
05/28/2013  13:19:00     -196.028      231.063      -38.410      118.975      141.915       64.545    14155.068    20139.981     4166.104        6.587        1.923      303.013       64.809        0.046      341.959       17.031      857.992
05/28/2013  13:20:00     -157.884      215.330      -36.056       77.916      104.038       61.867     6070.883    10823.955     3827.581        4.665        1.036      267.010       53.555        0.040      342.061       17.204      857.962
05/28/2013  13:21:00      -85.748      105.210        9.330       87.402      114.720       53.152     7639.159    13160.636     2825.103        2.106        1.181      135.727       49.155        0.131      342.659       18.221      857.943
05/28/2013  13:22:00      -64.934      240.580      -21.660       98.272      184.595       60.853     9657.397    34075.234     3703.094        5.499        2.372      249.188       76.130        0.093      342.251       17.528      857.943
05/28/2013  13:23:00     -101.063      414.801      -35.584      101.044       87.158       51.118    10209.881     7596.545     2613.013       10.198        1.021      426.935       34.370        0.006      341.860       16.864      857.944
05/28/2013  13:24:00     -114.390      156.504       -1.286      110.628      148.952       61.014    12238.497    22186.624     3722.719        3.786        1.907      193.852       65.044        0.113      342.405       17.790      857.957
05/28/2013  13:25:00     -111.950      252.894      -17.287       86.997      142.307       65.644     7568.480    20251.256     4309.127        5.445        1.606      276.565       74.563        0.073      342.251       17.529      857.972
05/28/2013  13:26:00     -125.012      260.113      -33.288       76.170      103.056       51.738     5801.878    10620.442     2676.866        5.174        0.955      288.595       49.701        0.030      342.026       17.145      857.980
05/28/2013  13:27:00     -110.055      215.754      -14.873       79.128      125.722       56.975     6261.306    15806.042     3246.147        4.209        1.266      242.202       67.389        0.077      342.298       17.606      857.974
05/28/2013  13:28:00     -246.409       49.355      -35.827      152.618       86.316       56.647    23292.167     7450.388     3208.901        4.919        1.698      251.303       76.170        0.092      342.336       17.674      857.957
05/28/2013  13:29:00     -109.940       59.980       -3.870       98.617       59.266       47.352     9725.253     3512.421     2242.250        1.559        0.774      125.237       49.516        0.156      342.387       17.760      857.947
05/28/2013  13:30:00     -105.084       67.798      -13.193      108.540      136.668       58.177    11780.923    18678.145     3384.528        2.482        1.692      125.057       50.365        0.162      342.451       17.869      857.944
05/28/2013  13:31:00     -193.169      -25.375        7.088      180.501       79.834       60.938    32580.437     6373.479     3713.491        4.033        2.133      194.828       77.046        0.156      342.751       18.380      857.952
05/28/2013  13:32:00     -316.767     -103.377      -13.271      165.743      122.485       60.923    27470.886    15002.661     3711.657        7.869        2.309      333.208       65.545        0.039      342.104       17.277      857.941
05/28/2013  13:33:00     -356.786       57.392      -24.235      183.084      119.621       69.502    33519.926    14309.244     4830.574        9.191        2.633      361.373       69.242        0.037      342.348       17.691      857.944
05/28/2013  13:34:00     -296.027      -18.387      -32.097      129.805      125.942       71.182    16849.246    15861.309     5066.826        6.338        1.889      296.598       66.333        0.050      342.171       17.391      857.991
05/28/2013  13:35:00     -162.379      -53.773      -25.662      105.713       82.016       52.842    11175.212     6726.593     2792.267        2.530        1.035      171.051       35.980        0.044      341.955       17.025      858.024
05/28/2013  13:36:00     -120.191       26.548      -22.936       77.317      113.503       69.163     5977.907    12883.037     4783.456        1.966        1.182      123.088       51.277        0.174      342.195       17.432      858.021
05/28/2013  13:37:00     -151.919      -15.461      -11.496      123.436       91.173       54.760    15236.445     8312.532     2998.687        2.499        1.327      152.704       48.026        0.099      342.223       17.482      858.025
05/28/2013  13:38:00     -162.185      -61.945       -3.908      133.539       92.399       64.058    17832.607     8537.561     4103.412        3.031        1.524      173.612       60.637        0.122      342.363       17.718      858.014
05/28/2013  13:39:00     -410.716       90.618      -39.114      109.837       95.885       67.582    12064.106     9193.855     4567.332       10.212        1.291      420.594       56.887        0.018      342.112       17.291      857.968
05/28/2013  13:40:00     -340.321      -16.523      -44.720      131.267       88.192       53.357    17231.076     7777.753     2846.926        7.297        1.393      340.722       42.488        0.016      342.031       17.153      857.939
05/28/2013  13:41:00     -155.822      -86.253       -2.379      136.597       97.126       51.144    18658.629     9433.410     2615.759        3.121        1.535      178.101       57.929        0.106      342.304       17.618      857.928
05/28/2013  13:42:00     -307.989      -75.751      -20.092      143.824      110.081       61.431    20685.244    12117.753     3773.761        6.878        1.829      317.168       69.284        0.048      342.043       17.173      857.909
05/28/2013  13:43:00     -145.901      -12.196       13.472      144.137      122.039       61.352    20775.422    14893.584     3764.068        3.052        1.972      146.410       63.539        0.188      342.391       17.767      857.886
05/28/2013  13:44:00     -196.034      -76.253        2.989      203.639       93.148       60.442    41469.011     8676.622     3653.198        4.902        2.690      210.342       82.130        0.152      342.300       17.610      857.893
05/28/2013  13:45:00     -231.450      -65.563      -19.433      140.350      102.472       72.560    19698.051    10500.505     5264.892        4.685        1.773      240.556       49.272        0.042      342.150       17.354      857.906
05/28/2013  13:46:00     -278.283      -63.383      -19.968      138.066      114.625       53.954    19062.122    13138.814     2911.038        5.848        1.756      285.410       56.267        0.039      342.081       17.237      857.908
05/28/2013  13:47:00      -84.546       42.342        9.301       96.673       74.808       51.997     9345.631     5596.167     2703.738        1.333        0.882       94.556       42.628        0.203      342.341       17.682      857.883
05/28/2013  13:48:00     -176.606      -51.667       -9.496      141.809       96.690       51.338    20109.711     9348.887     2635.561        3.302        1.605      184.009       45.823        0.062      342.355       17.706      857.900
05/28/2013  13:49:00     -283.916      -55.845      -27.394      128.047      122.519       65.170    16395.953    15010.918     4247.159        6.006        1.783      289.357       59.958        0.043      342.210       17.456      857.925
05/28/2013  13:50:00     -139.651       45.533        2.307      105.747       67.285       48.121    11182.494     4527.235     2315.669        1.980        0.901      146.886       58.574        0.159      342.182       17.412      857.928
05/28/2013  13:51:00      -51.072       68.721        2.429       89.203       58.572       45.778     7957.190     3430.671     2095.654        1.041        0.674       85.620       38.875        0.206      342.089       17.256      857.894
05/28/2013  13:52:00      -83.768      206.899        1.273       69.858       95.231       50.110     4880.158     9068.987     2511.021        3.314        0.823      223.213       41.106        0.034      342.012       17.122      857.872
05/28/2013  13:53:00     -254.006       88.627      -28.874      177.544      136.600       68.900    31521.944    18659.470     4747.205        6.406        2.746      269.024       85.174        0.100      342.075       17.229      857.892
05/28/2013  13:54:00     -251.214       46.854      -34.249      115.418      104.883       68.330    13321.217    11000.542     4668.948        4.773        1.450      255.546       61.165        0.057      342.105       17.278      857.932
05/28/2013  13:55:00     -161.957      146.319      -37.670      169.167      115.567       70.353    28617.449    13355.756     4949.540        4.798        2.346      218.264       63.905        0.086      342.147       17.352      857.925
05/28/2013  13:56:00     -293.430       94.537      -20.354      147.224       84.291       62.303    21674.895     7104.991     3881.686        6.405        1.633      308.283       67.692        0.048      342.003       17.105      857.934
05/28/2013  13:57:00     -168.606       65.031      -17.941       91.079      107.564       67.528     8295.413    11569.988     4560.009        2.870        1.221      180.713       64.397        0.127      342.305       17.619      857.950
05/28/2013  13:58:00     -310.716       56.140      -39.587       87.935       98.863       51.609     7732.520     9773.986     2663.489        6.071        1.008      315.747       45.853        0.021      341.919       16.961      857.961
05/28/2013  13:59:00     -219.701       60.868      -28.363       74.998       61.144       31.417     5624.709     3738.559      987.027        3.156        0.518      227.976       27.097        0.014      341.931       16.985      857.954
05/28/2013  14:00:00     -182.092      -18.277       -3.176       64.357       51.530       41.950     4141.762     2655.344     1759.763        2.103        0.428      183.007       40.874        0.050      342.089       17.252      857.987
05/28/2013  14:01:00     -233.440      116.257      -39.522      134.993       97.251       56.313    18223.206     9457.757     3171.163        5.021        1.543      260.787       51.362        0.039      342.080       17.236      858.040
05/28/2013  14:02:00     -355.999       98.695      -25.629      150.903      136.445       78.964    22771.629    18617.252     6235.316        9.237        2.381      369.427       77.928        0.044      342.107       17.282      858.047
05/28/2013  14:03:00     -284.666       49.902      -43.219      128.876      125.943       61.858    16609.046    15861.593     3826.354        6.084        1.815      289.007       54.882        0.036      342.152       17.357      858.077
05/28/2013  14:04:00      -10.549      267.101      -23.872       51.028       84.076       47.980     2603.852     7068.757     2302.035        4.200        0.599      267.309       44.105        0.027      342.039       17.165      858.017
05/28/2013  14:05:00     -114.589       92.350       14.138       97.983       80.375       63.949     9600.576     6460.097     4089.501        2.100        1.008      147.170       64.448        0.192      342.644       18.197      858.010
05/28/2013  14:06:00     -184.667      -88.235       11.925      172.894      127.276       70.420    29892.217    16199.194     4958.983        4.653        2.553      204.664       65.063        0.101      342.564       18.061      858.018
05/28/2013  14:07:00     -175.813      -78.998        9.860      199.574      159.480       66.850    39829.844    25433.809     4468.975        5.348        3.487      192.745       84.548        0.192      342.549       18.036      858.015
05/28/2013  14:08:00     -264.170      -19.972      -30.048      118.153       93.644       39.916    13960.114     8769.248     1593.295        4.770        1.216      264.924       34.359        0.017      342.161       17.375      858.026
05/28/2013  14:09:00     -202.535      -97.234      -13.198      137.334      118.282       69.332    18860.647    13990.561     4806.980        4.415        1.883      224.666       65.179        0.084      342.323       17.648      857.990
05/28/2013  14:10:00      -94.830      -33.534       -7.635      128.312       68.585       41.846    16463.925     4703.904     1751.122        1.654        1.146      100.585       38.917        0.150      342.622       18.160      857.983
05/28/2013  14:11:00      -72.316      -16.510       10.503      105.902       66.821       45.536    11215.305     4465.088     2073.521        1.168        0.888       74.176       36.098        0.237      342.650       18.208      857.977
05/28/2013  14:12:00     -197.841      117.847      -15.131      126.996       96.470       63.981    16128.006     9306.433     4093.522        4.139        1.476      230.280       63.536        0.076      342.445       17.856      857.979
05/28/2013  14:13:00     -173.958       55.241       -9.408      151.796       94.691       62.488    23042.045     8966.450     3904.694        3.465        1.796      182.518       66.474        0.133      342.839       18.528      857.963
05/28/2013  14:14:00     -166.157      119.745      -36.070       99.122      135.768       55.682     9825.188    18432.979     3100.519        3.730        1.568      204.810       59.260        0.084      342.486       17.929      857.990
05/28/2013  14:15:00     -198.804      162.884      -22.128      100.481      140.817       62.659    10096.410    19829.292     3926.139        5.019        1.693      257.010       51.021        0.039      342.364       17.718      857.989
05/28/2013  14:16:00     -117.215      334.259      -37.344      133.438      131.272       68.990    17805.794    17232.398     4759.646        8.332        1.990      354.215       76.438        0.047      342.190       17.425      858.010
05/28/2013  14:17:00      -55.429      279.232      -34.007       88.169       81.523       43.304     7773.856     6645.941     1875.259        4.924        0.815      284.680       42.343        0.022      342.233       17.496      857.968
05/28/2013  14:18:00      -75.061      351.662      -50.770       75.552      102.220       37.510     5708.143    10448.850     1406.966        7.472        0.878      359.583       19.945        0.003      342.229       17.488      857.930
05/28/2013  14:19:00      -86.796      445.265      -35.356       60.880      130.110       49.540     3706.333    16928.594     2454.190       11.506        1.154      453.645       56.293        0.015      342.352       17.698      857.940
05/28/2013  14:20:00     -204.451      325.394      -44.255      141.972      138.764       66.144    20156.160    19255.501     4375.010        9.671        2.189      384.293       59.081        0.024      342.560       18.052      857.932
05/28/2013  14:21:00     -205.129       45.017      -21.015      123.463      117.334       71.100    15243.025    13767.370     5055.149        3.930        1.703      210.010       64.198        0.093      342.656       18.216      857.957
05/28/2013  14:22:00     -231.626       90.567      -45.092      116.206       89.750       65.539    13503.836     8055.002     4295.324        4.487        1.293      248.703       63.388        0.065      342.588       18.100      857.988
05/28/2013  14:23:00     -211.619      110.564      -34.966      139.993      119.240       63.881    19598.167    14218.175     4080.770        4.806        1.895      238.762       45.298        0.036      342.280       17.575      857.979
05/28/2013  14:24:00     -131.040      120.190       -9.185      107.110       86.022       81.187    11472.550     7399.820     6591.377        2.858        1.273      177.812       82.562        0.216      342.565       18.063      857.961
05/28/2013  14:25:00     -145.047       35.337      -14.056      127.552       76.616       50.982    16269.512     5870.021     2599.117        2.361        1.237      149.290       54.912        0.135      342.754       18.385      857.977
05/28/2013  14:26:00     -224.609      147.513      -28.795      108.883      110.329       54.720    11855.577    12172.466     2994.285        5.003        1.351      268.718       47.888        0.032      342.360       17.711      857.981
05/28/2013  14:27:00     -126.061       24.515      -13.743       83.002       89.026       42.722     6889.335     7925.624     1825.136        1.666        0.832      128.422       29.827        0.054      342.400       17.781      857.963
05/28/2013  14:28:00     -129.817       12.193      -14.746      130.782      131.555       36.649    17103.913    17306.735     1343.127        2.648        1.788      130.388       39.993        0.094      342.385       17.756      857.969
05/28/2013  14:29:00     -223.484      -60.342       -5.274      160.350       83.963       55.553    25712.161     7049.766     3086.150        4.473        1.792      231.487       61.343        0.070      342.325       17.654      857.971
05/28/2013  14:30:00     -225.556        7.293      -17.162       82.680      110.644       43.178     6835.995    12242.160     1864.318        3.608        1.047      225.674       34.200        0.023      342.217       17.469      857.973
05/28/2013  14:31:00     -119.271        6.930       -2.259      125.727       59.475       42.344    15807.154     3537.298     1793.042        1.770        1.057      119.472       58.725        0.242      342.273       17.567      857.961
05/28/2013  14:32:00     -257.336        5.285      -19.153      163.407       68.066       50.531    26701.895     4633.012     2553.339        5.025        1.694      257.390       72.414        0.079      342.324       17.651      857.954
05/28/2013  14:33:00     -115.815       76.279      -15.809       98.577       75.317       49.685     9717.346     5672.715     2468.550        1.867        0.893      138.678       52.826        0.145      342.406       17.791      857.960
05/28/2013  14:34:00     -158.769       36.781      -19.829       75.741      113.152       56.239     5736.730    12803.421     3162.774        2.432        1.085      162.974       50.172        0.095      342.302       17.614      857.950
05/28/2013  14:35:00     -207.124       59.293      -36.132       81.887      106.862       56.999     6705.413    11419.471     3248.888        3.454        1.069      215.444       50.708        0.055      342.363       17.718      857.969
05/28/2013  14:36:00     -232.205      119.318      -49.994      112.818      113.354       64.469    12727.933    12849.198     4156.311        5.019        1.487      261.067       57.416        0.048      342.524       17.990      857.979
05/28/2013  14:37:00     -138.805       88.242        6.307       86.725       97.364       54.065     7521.249     9479.805     2923.037        2.351        0.996      164.480       41.024        0.062      342.961       18.734      857.981
05/28/2013  14:38:00      -74.855      129.203        1.370       86.340       94.284       64.304     7454.588     8889.412     4134.987        2.139        1.024      149.321       64.183        0.185      343.004       18.810      857.963
05/28/2013  14:39:00     -130.506      302.479      -19.980      117.515      133.364       77.958    13809.874    17786.050     6077.441        7.329        1.884      329.432       57.897        0.031      342.713       18.313      857.947
05/28/2013  14:40:00     -132.565      194.606      -24.599       78.190      147.219       54.789     6113.698    21673.416     3001.889        4.341        1.539      235.467       62.627        0.071      342.727       18.336      857.948
05/28/2013  14:41:00     -230.700       60.036      -37.868      126.126       85.090       64.850    15907.872     7240.346     4205.513        4.280        1.368      238.384       74.156        0.097      342.664       18.229      857.936
05/28/2013  14:42:00     -173.556      -19.630      -10.866       85.919       99.884       42.173     7382.103     9976.897     1778.568        2.488        0.957      174.663       34.573        0.039      342.904       18.639      857.920
05/28/2013  14:43:00     -154.705      108.065       -7.745      119.569      114.800       74.902    14296.814    13179.081     5610.383        3.437        1.654      188.711       69.416        0.135      342.963       18.739      857.946
05/28/2013  14:44:00     -229.801      -16.929        0.463      161.409      105.985       56.731    26052.822    11232.854     3218.411        4.679        2.025      230.424       53.286        0.053      342.989       18.782      857.913
05/28/2013  14:45:00     -196.843      -65.475        0.287      117.712       89.294       57.884    13856.067     7973.507     3350.545        3.410        1.259      207.447       52.785        0.065      342.769       18.410      857.894
05/28/2013  14:46:00      -53.719      -63.127       11.653      141.707       99.446       52.131    20080.946     9889.584     2717.674        1.984        1.634       82.889       65.354        0.622      343.053       18.892      857.919
05/28/2013  14:47:00     -222.470      -73.251      -16.567      119.294      104.172       59.503    14231.080    10851.718     3540.639        4.187        1.431      234.219       42.937        0.034      342.747       18.370      857.934
05/28/2013  14:48:00     -187.715      -36.104      -18.674      116.791       89.310       51.571    13640.033     7976.277     2659.614        3.058        1.214      191.156       32.219        0.028      342.751       18.377      857.959
05/28/2013  14:49:00     -161.737        4.054      -30.556       60.896       64.109       36.712     3708.330     4109.919     1347.775        1.814        0.458      161.788       29.341        0.033      342.404       17.788      857.994
05/28/2013  14:50:00      -70.178      112.829      -13.936      128.954      102.001       65.292    16629.192    10404.156     4263.056        2.457        1.565      132.873       72.277        0.296      342.394       17.770      857.944
05/28/2013  14:51:00     -258.058      -24.072      -12.034      118.787      115.446       51.741    14110.356    13327.692     2677.142        4.871        1.506      259.178       60.801        0.055      342.550       18.035      857.926
05/28/2013  14:52:00     -240.623      -38.066      -17.148      122.562       87.905       48.005    15021.407     7727.226     2304.492        4.234        1.253      243.616       42.915        0.031      342.538       18.016      857.941
05/28/2013  14:53:00     -102.656        4.917        6.664       92.976      108.848       48.386     8644.578    11847.872     2341.249        1.672        1.142      102.774       32.096        0.098      342.758       18.392      857.958
05/28/2013  14:54:00     -121.157       33.857       -0.522       76.356       90.340       37.344     5830.165     8161.272     1394.540        1.560        0.769      125.799       29.285        0.054      342.652       18.211      857.941
05/28/2013  14:55:00     -289.897      -36.847      -31.826      108.024       78.865       48.724    11669.208     6219.730     2374.076        5.333        1.013      292.230       51.158        0.031      342.422       17.817      857.931
05/28/2013  14:56:00     -153.228      -35.021      -37.197       64.375       66.922       34.872     4144.128     4478.593     1216.043        1.796        0.492      157.179       31.017        0.039      342.554       18.043      857.940
05/28/2013  14:57:00     -210.697      -19.715      -33.899       79.474       95.617       41.521     6316.061     9142.601     1723.956        3.155        0.859      211.617       36.294        0.029      342.431       17.834      857.945
05/28/2013  14:58:00      -34.865       30.261       -2.235       61.504       65.421       43.964     3782.732     4279.890     1932.829        0.606        0.500       46.166       39.100        0.717      342.732       18.348      857.912
05/28/2013  14:59:00     -157.584      205.513      -21.470      126.364      132.029       65.289    15967.832    17431.761     4262.704        5.259        1.883      258.976       67.747        0.068      342.587       18.099      857.913
05/28/2013  15:00:00      -77.733      190.075      -17.369      109.711       93.209       55.013    12036.438     8687.942     3026.429        3.311        1.188      205.355       55.040        0.072      342.673       18.245      857.903
05/28/2013  15:01:00      -80.515      343.401      -32.328       82.328      119.761       59.604     6777.929    14342.590     3552.616        7.506        1.234      352.714       66.612        0.036      342.391       17.765      857.893
05/28/2013  15:02:00     -173.691      157.709      -25.898      116.103      155.945       68.948    13479.881    24318.689     4753.865        4.912        2.128      234.608       63.106        0.072      342.520       17.986      857.873
05/28/2013  15:03:00     -231.420      279.654      -44.562      119.116      145.655       66.842    14188.698    21215.397     4467.826        8.680        1.994      362.990       62.479        0.030      342.340       17.679      857.893
05/28/2013  15:04:00     -199.310      216.734      -28.312      103.114      110.996       61.455    10632.486    12320.070     3776.692        5.711        1.336      294.446       53.133        0.033      342.457       17.875      857.871
05/28/2013  15:05:00     -176.268      238.248      -48.590      105.386       85.527       50.880    11106.257     7314.945     2588.796        5.560        1.050      296.366       47.163        0.025      342.340       17.678      857.868
05/28/2013  15:06:00     -109.217      172.869      -14.661       88.049      151.195       54.002     7752.593    22859.963     2916.270        3.777        1.676      204.479       50.562        0.061      342.481       17.917      857.850
05/28/2013  15:07:00     -146.951      129.880      -21.261      104.729       91.366       51.498    10968.242     8347.713     2652.013        3.044        1.098      196.121       52.747        0.072      342.516       17.980      857.870
05/28/2013  15:08:00     -138.413      212.976      -32.779       70.253       98.003       50.520     4935.500     9604.619     2552.276        4.134        0.855      254.001       39.110        0.024      342.465       17.890      857.872
05/28/2013  15:09:00     -155.115      142.424      -39.162       85.212       97.201       45.576     7261.025     9448.081     2077.149        3.233        0.939      210.583       45.067        0.046      342.534       18.008      857.863
05/28/2013  15:10:00     -113.251      212.840      -19.952       94.203       86.077       55.342     8874.132     7409.168     3062.781        3.893        0.967      241.094       51.016        0.045      342.692       18.276      857.874
05/28/2013  15:11:00      -86.179      102.837       -6.813       82.889      109.255       54.995     6870.619    11936.686     3024.421        1.994        1.092      134.173       68.958        0.264      342.746       18.370      857.839
05/28/2013  15:12:00     -113.813      125.566      -18.354       63.907       70.504       43.413     4084.121     4970.862     1884.673        2.000        0.547      169.470       40.435        0.057      342.816       18.490      857.822
05/28/2013  15:13:00      -58.098       16.918       29.363      122.061       95.015       61.733    14899.004     9027.847     3811.007        1.613        1.387       60.511       75.324        1.550      343.186       19.121      857.794
05/28/2013  15:14:00      -73.172      126.064       -9.005       75.218       99.299       50.409     5657.745     9860.230     2541.093        1.969        0.903      145.761       49.475        0.115      343.080       18.938      857.764
05/28/2013  15:15:00     -165.462      279.028      -32.587       94.523      105.028       67.596     8934.678    11030.934     4569.186        6.541        1.227      324.398       52.602        0.026      342.913       18.652      857.765
05/28/2013  15:16:00     -267.238       -5.127      -17.451      201.150       83.282       69.070    40461.184     6935.845     4770.653        6.195        2.608      267.288       89.551        0.112      343.308       19.326      857.737
05/28/2013  15:17:00     -451.447     -113.531      -29.817      231.871      134.529       88.766    53764.257    18097.966     7879.453       14.865        3.987      465.503      107.572        0.053      343.070       18.920      857.727
05/28/2013  15:18:00     -330.788     -101.312      -25.027      171.845      148.015       77.327    29530.656    21908.356     5979.479        8.886        2.871      345.955       65.475        0.036      343.086       18.946      857.733
05/28/2013  15:19:00     -250.972      -86.779       -4.605      213.308      119.065       89.995    45500.469    14176.374     8099.185        6.915        3.389      265.551      103.368        0.152      343.074       18.928      857.750
05/28/2013  15:20:00     -304.487       49.027      -48.557      116.639      196.388       71.030    13604.742    38568.238     5045.271        7.734        2.861      308.409       75.171        0.059      342.862       18.566      857.773
05/28/2013  15:21:00     -161.529      137.239      -17.051      114.144      113.399       65.057    13028.891    12859.257     4232.397        3.766        1.506      211.958       61.216        0.083      342.918       18.661      857.792
05/28/2013  15:22:00      -61.415      127.578      -13.176       99.422      128.326       52.642     9884.756    16467.611     2771.178        2.467        1.456      141.591       40.178        0.081      342.884       18.604      857.755
05/28/2013  15:23:00     -101.668      202.656      -20.174      156.526      147.450       67.953    24500.524    21741.640     4617.628        5.133        2.543      226.728       80.334        0.126      342.704       18.295      857.735
05/28/2013  15:24:00      -88.463      143.501        2.803       75.119      106.659       53.624     5642.851    11376.134     2875.492        2.416        0.995      168.577       53.380        0.100      343.104       18.980      857.734
05/28/2013  15:25:00      -72.810      220.640      -25.316       75.781       97.510       48.138     5742.742     9508.296     2317.261        3.609        0.878      232.343       45.086        0.038      342.898       18.627      857.755
05/28/2013  15:26:00      -17.250      314.073      -20.373       51.996      108.290       55.014     2703.557    11726.747     3026.554        5.840        0.873      314.546       62.989        0.040      342.548       18.032      857.709
05/28/2013  15:27:00     -177.114      184.010        0.880      131.286      118.133       63.871    17236.008    13955.460     4079.551        5.024        1.764      255.400       71.829        0.079      342.788       18.439      857.701
05/28/2013  15:28:00     -202.982      121.798      -36.333       80.711      112.986       58.947     6514.323    12765.765     3474.797        4.005        1.138      236.720       52.172        0.049      342.839       18.526      857.720
05/28/2013  15:29:00     -109.716      131.899      -19.745       82.081      105.426       34.916     6737.248    11114.684     1219.160        2.444        0.954      171.566       28.744        0.028      342.823       18.501      857.746
05/28/2013  15:30:00     -106.840      135.265      -21.731       78.911       79.840       47.977     6226.913     6374.482     2301.759        2.254        0.745      172.370       45.754        0.070      342.500       17.952      857.720
05/28/2013  15:31:00     -151.231      132.649      -33.894       95.858       76.014       47.910     9188.675     5778.111     2295.371        2.944        0.863      201.163       46.363        0.053      342.612       18.143      857.705
05/28/2013  15:32:00      -84.335      166.973      -14.338      109.270       91.301       55.080    11939.939     8335.911     3033.800        2.925        1.165      187.062       61.695        0.109      342.638       18.186      857.692
05/28/2013  15:33:00     -179.146       71.571      -30.078       88.249      125.882       58.531     7787.873    15846.191     3425.877        3.259        1.353      192.914       61.052        0.100      342.677       18.252      857.667
05/28/2013  15:34:00     -194.921      -65.659      -12.921      141.710      130.966       77.032    20081.809    17152.069     5933.974        4.281        2.158      205.683       86.990        0.179      342.737       18.352      857.652
05/28/2013  15:35:00     -219.795       17.479      -21.833       95.905      116.641       57.273     9197.791    13605.057     3280.150        3.758        1.304      220.489       41.157        0.035      342.711       18.309      857.673
05/28/2013  15:36:00     -108.529      123.094      -11.826       77.182       80.515       59.522     5957.117     6482.598     3542.910        2.152        0.799      164.106       64.582        0.155      342.834       18.519      857.714
05/28/2013  15:37:00      -51.379       96.048        2.426       61.747       66.098       36.512     3812.682     4369.009     1333.105        1.069        0.476      108.927       30.902        0.080      342.913       18.655      857.730
05/28/2013  15:38:00     -127.773       90.924      -26.451       73.206       73.947       43.150     5359.100     5468.112     1861.925        1.899        0.634      156.822       38.563        0.060      343.127       19.019      857.728
05/28/2013  15:39:00     -269.356      134.801      -35.660      100.380      109.438       57.306    10076.195    11976.705     3283.971        5.866        1.267      301.205       40.583        0.018      343.131       19.022      857.724
05/28/2013  15:40:00     -379.641      -48.095      -48.298      159.051      124.918       88.556    25297.100    15604.462     7842.177        9.875        2.437      382.676       82.321        0.046      342.781       18.428      857.700
05/28/2013  15:41:00     -230.503      -24.195       -2.582      143.029      147.255       97.567    20457.414    21684.024     9519.356        5.268        2.583      231.769       97.544        0.177      342.965       18.739      857.708
05/28/2013  15:42:00     -173.758      141.687      -14.612      152.054      121.259       80.804    23120.438    14703.671     6529.221        4.741        2.218      224.203       69.809        0.097      343.077       18.932      857.726
05/28/2013  15:43:00     -171.997      207.783      -32.789      121.499      184.213       69.051    14761.956    33934.319     4768.062        6.364        2.673      269.734       75.886        0.079      343.049       18.884      857.736
05/28/2013  15:44:00      -76.825      175.542       -0.902       93.290      118.875       59.596     8703.013    14131.149     3551.639        3.155        1.319      191.617       55.374        0.084      342.966       18.744      857.718
05/28/2013  15:45:00     -278.556      283.900      -61.688       92.900      151.010       67.987     8630.467    22804.017     4622.174        9.902        1.803      397.734       59.700        0.023      342.654       18.211      857.749
05/28/2013  15:46:00     -170.250      134.213       -8.714      119.227      104.609       72.142    14215.149    10943.073     5204.536        3.871        1.518      216.791       64.894        0.090      342.735       18.350      857.752
05/28/2013  15:47:00     -174.412       63.877      -18.814      138.387      114.568       76.803    19150.995    13125.786     5898.696        3.651        1.909      185.741       75.872        0.167      342.755       18.384      857.744
05/28/2013  15:48:00     -161.094       34.838       -5.316      113.696       84.164       58.139    12926.759     7083.616     3380.094        2.529        1.170      164.818       70.664        0.184      342.722       18.328      857.764
05/28/2013  15:49:00     -249.220      -46.958      -41.139       95.673      123.062       60.945     9153.233    15144.299     3714.320        4.701        1.401      253.605       33.342        0.017      342.745       18.366      857.786
05/28/2013  15:50:00     -224.938       31.976      -27.270      116.422      161.091       65.299    13554.158    25950.338     4263.979        4.806        2.188      227.199       44.721        0.039      342.923       18.669      857.770
05/28/2013  15:51:00     -169.479       84.239      -26.736      139.239       83.224       52.457    19387.467     6926.239     2751.763        3.280        1.453      189.260       71.310        0.142      342.975       18.759      857.786
05/28/2013  15:52:00     -221.664       90.174      -17.831      154.201      146.414       67.114    23778.037    21437.117     4504.278        5.364        2.486      239.304       63.506        0.070      343.121       19.004      857.789
05/28/2013  15:53:00     -311.652      -48.371      -12.712      160.314      115.072       70.438    25700.649    13241.501     4961.443        7.176        2.195      315.384       72.860        0.053      343.039       18.867      857.803
05/28/2013  15:54:00     -314.794      140.382      -48.441      206.396      216.697       98.872    42599.356    46957.597     9775.594       11.022        4.967      344.677      129.727        0.142      342.773       18.414      857.818
05/28/2013  15:55:00     -238.557       64.736      -38.588      128.528      113.599       63.776    16519.357    12904.789     4067.415        4.803        1.675      247.185       70.871        0.082      342.790       18.445      857.795
05/28/2013  15:56:00     -215.672        4.207      -27.676      118.655      112.782       52.098    14078.939    12719.881     2714.243        3.840        1.476      215.713       53.824        0.062      342.848       18.542      857.780
05/28/2013  15:57:00     -224.480       45.589      -35.942      135.098      135.223       63.801    18251.488    18285.392     4070.553        4.718        2.030      229.062       58.681        0.066      342.777       18.421      857.789
05/28/2013  15:58:00      -92.299      175.570      -16.467      102.609      133.919       64.962    10528.652    17934.295     4220.064        3.614        1.634      198.353       62.005        0.098      342.718       18.321      857.772
05/28/2013  15:59:00     -150.161      175.622      -29.966       72.593       88.540       50.076     5269.798     7839.341     2507.627        3.495        0.781      231.066       39.485        0.029      342.784       18.432      857.755
05/28/2013  16:00:00     -159.043      205.999      -29.393       72.917       96.891       50.512     5316.944     9387.959     2551.447        4.292        0.863      260.250       47.613        0.033      342.695       18.283      857.748
05/28/2013  16:01:00      -97.584      256.576      -16.149       72.065      134.284       52.901     5193.434    18032.316     2798.530        5.082        1.301      274.506       63.755        0.054      342.683       18.260      857.755
05/28/2013  16:02:00     -160.527      314.827      -40.203      100.275      151.575       63.284    10055.133    22975.109     4004.874        8.176        1.852      353.391       67.513        0.036      342.660       18.223      857.781
05/28/2013  16:03:00     -106.342      220.316      -31.759       77.185      114.251       39.995     5957.570    13053.302     1599.586        4.073        1.031      244.638       39.384        0.026      342.569       18.069      857.777
05/28/2013  16:04:00     -149.968       66.618      -24.665       55.394       60.254       35.185     3068.516     3630.597     1237.960        1.774        0.397      164.099       11.457        0.005      342.688       18.270      857.775
05/28/2013  16:05:00     -109.568      -24.865       10.121      136.298       76.363       44.315    18577.080     5831.290     1963.797        1.954        1.319      112.354       62.103        0.306      342.784       18.435      857.736
05/28/2013  16:06:00     -210.292      125.034      -34.731      113.101       96.969       48.131    12791.934     9402.921     2316.552        4.278        1.226      244.655       45.137        0.034      342.691       18.274      857.744
05/28/2013  16:07:00     -187.761      241.679      -49.714       98.451       95.514       56.211     9692.519     9122.997     3159.718        5.905        1.099      306.044       52.258        0.029      342.622       18.157      857.728
05/28/2013  16:08:00      -47.775      145.370      -17.596       51.722       78.347       40.466     2675.127     6138.179     1637.516        1.709        0.523      153.020       45.140        0.087      342.754       18.383      857.706
05/28/2013  16:09:00      -84.467       67.385      -21.689       56.355       59.997       37.346     3175.922     3599.600     1394.695        1.016        0.409      108.053       23.785        0.048      342.914       18.656      857.699
05/28/2013  16:10:00     -199.249      132.589      -41.186       89.808      144.119       55.896     8065.493    20770.167     3124.329        4.546        1.598      239.332       73.362        0.094      342.820       18.494      857.707
05/28/2013  16:11:00     -137.806       30.858      -34.104       88.641       95.273       59.648     7857.149     9076.937     3557.870        2.080        1.025      141.219       53.744        0.145      342.753       18.381      857.716
05/28/2013  16:12:00     -221.145       59.948      -34.954       85.506       96.714       47.387     7311.193     9353.553     2245.564        3.631        0.946      229.126       45.747        0.040      342.792       18.448      857.725
05/28/2013  16:13:00     -181.480      122.845      -29.447      134.923       57.938       54.021    18204.258     3356.781     2918.272        3.668        1.224      219.148       59.907        0.075      342.716       18.318      857.733
05/28/2013  16:14:00     -103.617      128.509      -14.338       82.916       73.620       45.146     6875.115     5419.977     2038.172        2.089        0.717      165.079       47.636        0.083      342.851       18.548      857.718
05/28/2013  16:15:00      -98.548      142.212      -17.546       83.149       80.660       46.849     6913.770     6506.033     2194.871        2.293        0.781      173.021       52.888        0.093      342.970       18.748      857.721
05/28/2013  16:16:00      -85.157       58.793       -4.178       70.196       97.168       42.136     4927.541     9441.545     1775.470        1.343        0.807      103.481       30.755        0.088      343.247       19.225      857.728
05/28/2013  16:17:00     -248.344       44.778      -44.449      128.982      196.692       81.541    16636.400    38687.916     6648.997        6.380        3.099      252.348       69.447        0.076      343.258       19.241      857.742
05/28/2013  16:18:00     -262.184      -54.846      -17.521      119.490      107.145       66.065    14277.937    11480.051     4364.563        5.108        1.506      267.859       52.689        0.039      343.029       18.850      857.725
05/28/2013  16:19:00     -271.560      192.866      -44.437      156.806      135.209       84.485    24588.124    18281.460     7137.668        8.145        2.500      333.080       76.803        0.053      342.882       18.600      857.746
05/28/2013  16:20:00     -134.915       24.424      -15.469      145.192      116.839       63.036    21080.758    13651.407     3973.529        2.887        1.935      137.108       58.800        0.184      343.222       19.180      857.695
05/28/2013  16:21:00     -154.717       60.792      -20.067      121.002      139.831       65.537    14641.589    19552.837     4295.156        3.326        1.924      166.232       58.470        0.124      343.344       19.387      857.694
05/28/2013  16:22:00     -252.230       63.547      -25.591      270.596      202.565      101.933    73222.041    41032.619    10390.389        9.646        6.232      260.112      140.333        0.291      343.179       19.104      857.664
05/28/2013  16:23:00     -224.450        5.772        3.287      143.905      164.037       81.753    20708.774    26908.294     6683.622        5.235        2.715      224.524       70.881        0.100      343.050       18.886      857.693
05/28/2013  16:24:00     -304.477      117.624      -58.854      165.710      123.499       76.916    27459.696    15251.920     5916.103        7.931        2.431      326.407       68.739        0.044      342.945       18.706      857.735
05/28/2013  16:25:00     -234.040      125.627      -34.108      185.316      135.956       70.214    34341.936    18483.996     4930.058        6.473        2.888      265.625       82.511        0.096      342.901       18.632      857.736
05/28/2013  16:26:00     -171.524      177.058      -45.394       88.364      112.201       64.746     7808.232    12589.129     4192.076        4.371        1.229      246.515       59.169        0.058      343.030       18.852      857.713
05/28/2013  16:27:00     -113.083       73.114       -9.755       87.334      100.936       62.394     7627.161    10188.006     3892.963        1.996        1.085      134.660       57.990        0.185      343.402       19.486      857.689
05/28/2013  16:28:00     -591.859     -168.917      -42.391      172.377      156.633       96.016    29713.962    24533.882     9219.017       22.204        3.173      615.492       69.583        0.013      343.016       18.827      857.635
05/28/2013  16:29:00     -271.885      -19.753      -21.456      197.019      207.433       88.881    38816.486    43028.250     7899.859        8.224        4.487      272.602       69.788        0.066      343.164       19.078      857.649
05/28/2013  16:30:00     -198.917      250.692      -26.486      125.252      115.030       72.059    15687.965    13231.969     5192.482        6.861        1.706      320.023       61.823        0.037      343.008       18.813      857.729
05/28/2013  16:31:00     -277.909        8.386      -21.060      136.501      135.152       65.969    18632.443    18265.951     4351.861        5.949        2.063      278.035       66.550        0.057      342.815       18.486      857.730
05/28/2013  16:32:00     -184.431       19.043      -14.075      137.385       82.915       63.854    18874.604     6874.849     4077.282        3.220        1.491      185.411       69.499        0.141      342.968       18.747      857.740
05/28/2013  16:33:00      -73.923       72.852        5.723       66.721      113.781       54.608     4451.731    12946.057     2982.018        1.559        1.019      103.788       46.574        0.201      343.081       18.941      857.719
05/28/2013  16:34:00     -111.771       64.988       -0.149       56.401       91.786       45.193     3181.127     8424.732     2042.410        1.518        0.682      129.291       40.801        0.100      343.148       19.054      857.700
05/28/2013  16:35:00     -126.396       12.760      -26.158       85.305       83.478       46.233     7276.987     6968.546     2137.474        1.660        0.819      127.038       50.541        0.158      343.027       18.847      857.649
05/28/2013  16:36:00     -134.593      -53.877       -7.294       77.638       62.583       44.026     6027.588     3916.686     1938.305        1.647        0.594      144.976       42.179        0.085      343.115       18.997      857.610
05/28/2013  16:37:00      -70.054      -94.042        5.069       81.254       63.552       42.534     6602.173     4038.888     1809.159        1.311        0.623      117.266       39.820        0.115      343.082       18.942      857.611
05/28/2013  16:38:00      -97.484      -25.954       -7.567       48.084       41.083       23.752     2312.071     1687.796      564.162        0.740        0.228      100.880       18.547        0.034      343.005       18.813      857.605
05/28/2013  16:39:00     -124.358      -63.704       -0.812       81.552       68.925       34.695     6650.766     4750.651     1203.712        1.606        0.630      139.725       39.095        0.078      343.033       18.859      857.590
05/28/2013  16:40:00      -28.756        7.446        1.163       38.280       37.387       27.645     1465.347     1397.801      764.274        0.225        0.181       29.704       20.067        0.456      343.556       19.751      857.562
05/28/2013  16:41:00       63.081      -12.756       11.956       56.098       75.030       41.599     3146.938     5629.510     1730.485        0.739        0.525       64.358       40.136        0.389      343.002       18.806      857.516
05/28/2013  16:42:00     -116.516      -73.230        9.817       93.585       71.861       45.090     8758.166     5163.949     2033.122        1.749        0.798      137.617       30.618        0.050      343.332       19.368      857.497
05/28/2013  16:43:00     -247.832        4.501      -15.541      108.156       83.193       52.887    11697.613     6921.080     2797.029        4.155        1.071      247.873       48.093        0.038      343.091       18.955      857.519
05/28/2013  16:44:00     -465.609     -101.200      -20.305      225.247      143.339       69.726    50736.179    20545.943     4861.770       15.178        3.807      476.480       56.364        0.014      343.284       19.285      857.526
05/28/2013  16:45:00     -382.737     -208.894      -10.824      257.559      134.722       78.300    66336.733    18149.986     6130.845       14.041        4.531      436.033       99.462        0.052      343.077       18.931      857.515
05/28/2013  16:46:00     -216.446     -140.663        7.641      146.138      140.731       83.864    21356.363    19805.311     7033.188        5.744        2.410      258.137       89.278        0.120      343.300       19.310      857.519
05/28/2013  16:47:00     -303.240     -149.777        1.247      192.733      154.036       83.466    37145.976    23727.013     6966.610        9.110        3.392      338.213       97.013        0.082      343.322       19.348      857.491
05/28/2013  16:48:00     -628.599     -192.790      -16.884      190.301      130.488       75.874    36214.517    17027.059     5756.809       24.578        2.950      657.499       85.687        0.017      343.068       18.916      857.498
05/28/2013  16:49:00     -294.024     -122.680      -14.002      208.672       93.811       59.505    43544.137     8800.461     3540.812        7.878        2.794      318.591       44.055        0.019      343.154       19.063      857.556
05/28/2013  16:50:00     -410.071      -73.971      -28.313      165.177      133.790       68.458    27283.524    17899.851     4686.504       11.214        2.493      416.689       79.856        0.037      343.260       19.242      857.533
05/28/2013  16:51:00     -355.627      -98.095      -13.869      177.376      135.334       71.854    31462.385    18315.217     5162.948        9.560        2.747      368.908       81.465        0.049      343.275       19.269      857.549
05/28/2013  16:52:00     -163.661        7.907       10.543      144.669       76.046       63.373    20928.988     5783.002     4016.124        2.884        1.536      163.852       69.307        0.179      343.489       19.635      857.559
05/28/2013  16:53:00     -109.852      -74.595        5.869      108.891       97.719       53.126    11857.209     9548.918     2822.415        2.094        1.211      132.785       63.519        0.229      343.486       19.630      857.538
05/28/2013  16:54:00     -196.926       -0.341      -19.927      101.888       74.713       36.682    10381.144     5582.029     1345.592        2.824        0.865      196.926       33.951        0.030      343.500       19.653      857.533
05/28/2013  16:55:00     -460.004       -3.163      -54.064      114.820      120.020       63.352    13183.661    14404.845     4013.490       12.306        1.580      460.015       59.849        0.017      343.140       19.040      857.512
05/28/2013  16:56:00     -415.848     -109.823      -27.746      153.801      114.170       60.515    23654.622    13034.872     3662.030       11.305        2.018      430.105       64.171        0.022      343.006       18.809      857.493
05/28/2013  16:57:00     -271.711      -38.328      -14.632      114.654       71.913       40.866    13145.563     5171.479     1670.017        4.775        0.999      274.401       46.664        0.029      343.052       18.888      857.492
05/28/2013  16:58:00     -131.724      -85.418        0.283       77.321       75.815       37.351     5978.495     5747.923     1395.084        1.888        0.656      156.995       44.885        0.082      343.203       19.148      857.492
05/28/2013  16:59:00      -17.590      -16.672       14.878       73.636       25.630       27.542     5422.273      656.920      758.543        0.382        0.342       24.236       28.938        1.426      343.657       19.923      857.492
05/28/2013  17:00:00     -113.444      -59.506        9.797       82.760       87.909       44.635     6849.186     7728.055     1992.320        1.654        0.828      128.103       41.718        0.106      343.310       19.330      857.480
05/28/2013  17:01:00     -127.605      -40.958        8.008      126.313       74.367       48.306    15955.052     5530.400     2333.513        2.092        1.191      134.017       60.323        0.203      343.308       19.327      857.465
05/28/2013  17:02:00      -82.133       56.646      -16.254       61.904       91.444       34.051     3832.091     8361.999     1159.455        1.178        0.668       99.772       31.195        0.098      343.319       19.347      857.461
05/28/2013  17:03:00     -257.631      -96.537      -20.217      199.863       97.772       58.211    39945.049     9559.461     3388.505        6.449        2.645      275.124       51.925        0.036      343.335       19.372      857.448
05/28/2013  17:04:00     -300.345     -116.403       -3.134      110.428       74.874       53.671    12194.347     5606.069     2880.580        6.222        1.034      322.113       57.278        0.032      343.012       18.820      857.473
05/28/2013  17:05:00     -296.542      -59.371      -15.550      108.584       53.628       42.053    11790.577     2875.989     1768.492        5.407        0.822      302.427       47.374        0.025      342.971       18.749      857.466
05/28/2013  17:06:00     -258.817      -63.658      -17.594      106.014       89.084       43.031    11238.986     7936.011     1851.669        4.618        1.051      266.531       42.515        0.025      343.062       18.905      857.445
05/28/2013  17:07:00     -183.169      -52.421        0.064      131.214       95.733       45.642    17217.178     9164.843     2083.198        3.238        1.423      190.522       49.486        0.067      343.257       19.240      857.436
05/28/2013  17:08:00     -351.043     -133.909      -23.142      160.116      103.768       59.193    25637.171    10767.729     3503.814        9.080        1.995      375.716       70.077        0.035      342.987       18.777      857.407
05/28/2013  17:09:00     -233.830      -25.095      -15.571      205.670       89.018       52.958    42300.085     7924.237     2804.601        5.428        2.651      235.172       81.490        0.120      343.055       18.896      857.423
05/28/2013  17:10:00     -253.324     -124.329        9.010      147.525      140.373       66.725    21763.550    19704.601     4452.283        6.281        2.296      282.190       78.750        0.078      342.989       18.782      857.438
05/28/2013  17:11:00     -173.726      -10.410        1.886       70.258       73.179       44.278     4936.198     5355.193     1960.564        2.127        0.613      174.037       41.015        0.056      343.111       18.990      857.427
05/28/2013  17:12:00     -142.040      -17.504       -5.589       70.737       56.557       41.054     5003.770     3198.678     1685.452        1.520        0.494      143.115       28.901        0.041      343.222       19.179      857.416
05/28/2013  17:13:00     -160.174      -19.019       -1.732      116.592       77.031       43.271    13593.675     5933.715     1872.401        2.371        1.070      161.299       54.403        0.114      343.349       19.395      857.419
05/28/2013  17:14:00     -252.083      -37.919      -24.034      118.003       83.342       41.847    13924.807     6945.904     1751.142        4.409        1.131      254.919       39.913        0.025      343.319       19.344      857.420
05/28/2013  17:15:00     -297.658       18.220      -24.969      127.976      100.293       53.510    16377.964    10058.620     2863.331        5.942        1.465      298.215       50.908        0.029      343.209       19.157      857.403
05/28/2013  17:16:00      -52.715       75.874       -7.066       74.322       65.790       31.451     5523.833     4328.269      989.168        0.971        0.542       92.389       23.035        0.062      343.361       19.417      857.398
05/28/2013  17:17:00     -113.126       -1.027      -17.954       95.876       67.734       34.004     9192.114     4587.959     1156.296        1.403        0.747      113.131       45.525        0.162      343.562       19.761      857.405
05/28/2013  17:18:00     -190.360       14.520      -19.125      103.667       81.813       56.767    10746.853     6693.407     3222.479        2.873        1.033      190.913       47.557        0.062      343.243       19.215      857.394
05/28/2013  17:19:00     -132.060      -43.614       22.296      121.658      111.351       60.017    14800.613    12399.147     3602.089        2.532        1.540      139.076       65.363        0.221      343.340       19.381      857.355
05/28/2013  17:20:00       -9.296       23.888       -8.724       45.102       69.436       37.837     2034.169     4821.364     1431.674        0.451        0.414       25.632       19.552        0.582      343.370       19.434      857.386
05/28/2013  17:21:00      -57.365      163.015        7.956       88.501      164.704       72.317     7832.392    27127.286     5229.748        3.505        2.009      172.814       66.455        0.148      343.259       19.244      857.401
05/28/2013  17:22:00     -189.744      298.239      -51.004      129.321       98.813       60.264    16723.999     9764.041     3631.785        7.883        1.506      353.482       54.846        0.024      343.034       18.858      857.384
05/28/2013  17:23:00     -230.213       97.318      -28.245      113.338      168.476       53.416    12845.555    28384.146     2853.248        5.367        2.204      249.937       44.144        0.031      343.143       19.041      857.392
05/28/2013  17:24:00      -89.005       23.827       -7.850      110.764       96.523       54.402    12268.699     9316.635     2959.545        1.654        1.227       92.140       28.622        0.096      343.248       19.224      857.409
05/28/2013  17:25:00      -25.359       27.666       -3.467       63.690       36.669       28.849     4056.418     1344.641      832.265        0.383        0.312       37.530       23.772        0.401      343.402       19.488      857.416
05/28/2013  17:26:00      -69.751       74.749      -10.488       72.757       61.571       39.281     5293.525     3791.024     1542.995        1.059        0.531      102.238       23.647        0.053      343.375       19.441      857.403
05/28/2013  17:27:00     -136.008      -34.443        6.684      145.302       86.170       38.596    21112.760     7425.229     1489.657        2.487        1.501      140.301       48.034        0.117      343.585       19.800      857.401
05/28/2013  17:28:00     -379.021      -15.183      -14.186      148.432      149.638       62.664    22032.172    22391.533     3926.772        9.621        2.418      379.325       63.065        0.028      343.162       19.076      857.387
05/28/2013  17:29:00     -140.412       67.220       -4.177      100.590      117.384       60.863    10118.364    13779.050     3704.314        2.592        1.380      155.673       47.314        0.092      343.294       19.301      857.397
05/28/2013  17:30:00     -206.160       77.843      -21.505      109.072      115.672       69.713    11896.747    13380.116     4859.873        3.958        1.507      220.367       70.087        0.101      343.329       19.361      857.381
05/28/2013  17:31:00     -315.917      -52.359      -25.219      127.667      145.995       55.960    16298.946    21314.531     3131.560        7.196        2.037      320.226       38.949        0.015      343.362       19.417      857.369
05/28/2013  17:32:00     -316.033        3.631      -35.922      170.304       91.728       50.748    29003.583     8414.098     2575.325        7.058        2.000      316.054       72.672        0.053      343.501       19.654      857.372
05/28/2013  17:33:00     -258.660       20.362      -38.591      114.877      121.297       57.300    13196.683    14712.848     3283.257        5.000        1.560      259.460       45.693        0.031      343.396       19.475      857.348
05/28/2013  17:34:00     -243.360       30.533      -20.529      137.998      125.223       53.481    19043.569    15680.683     2860.259        4.907        1.879      245.268       62.385        0.065      343.456       19.577      857.317
05/28/2013  17:35:00     -313.564      -18.379      -32.472      114.360      131.063       51.433    13078.243    17177.613     2645.334        6.630        1.645      314.103       38.713        0.015      343.448       19.563      857.307
05/28/2013  17:36:00     -502.965      -50.939      -30.953      169.161      130.553       71.945    28615.394    17043.978     5176.060       15.367        2.542      505.538       78.957        0.024      343.392       19.468      857.321
05/28/2013  17:37:00     -434.597     -201.750      -16.363      144.892      119.729       74.840    20993.694    14335.070     5601.034       13.538        2.046      479.142       56.098        0.014      343.164       19.079      857.327
05/28/2013  17:38:00     -407.851      -70.371      -27.712      212.523      133.595       74.876    45166.146    17847.493     5606.472       12.033        3.431      413.877      102.261        0.061      343.013       18.822      857.318
05/28/2013  17:39:00     -144.602      -65.150        7.082      132.080       91.737       62.865    17445.085     8415.741     3952.058        2.750        1.491      158.601       63.927        0.162      343.228       19.190      857.303
05/28/2013  17:40:00     -264.231     -139.986      -10.697      109.870       59.686       51.774    12071.421     3562.450     2680.579        5.392        0.916      299.022       45.584        0.023      343.005       18.808      857.272
05/28/2013  17:41:00     -292.429       12.031      -36.171      140.788      107.218       47.558    19821.304    11495.663     2261.748        6.027        1.679      292.676       57.970        0.039      342.968       18.747      857.269
05/28/2013  17:42:00     -204.284       47.494      -18.236       87.808       63.724       42.057     7710.282     4060.781     1768.787        2.893        0.677      209.732       38.970        0.035      343.141       19.039      857.256
05/28/2013  17:43:00     -387.681      -16.409      -49.586       91.335      110.523       46.967     8342.144    12215.335     2205.871        8.789        1.138      388.028       35.316        0.008      343.156       19.066      857.255
05/28/2013  17:44:00     -297.506     -126.151       -3.602      154.023      119.720       68.166    23723.177    14332.859     4646.651        7.356        2.135      323.147       64.685        0.040      343.235       19.201      857.266
05/28/2013  17:45:00     -330.157      -83.666        1.343      128.166      125.466       68.854    16426.413    15741.833     4740.890        7.645        1.845      340.593       67.872        0.040      343.257       19.238      857.258
05/28/2013  17:46:00     -316.030     -144.689        4.844      122.369      101.106       63.431    14974.241    10222.329     4023.516        7.502        1.461      347.577       65.433        0.035      343.057       18.897      857.272
05/28/2013  17:47:00     -158.843      -89.916       10.514      117.977      109.415       58.107    13918.486    11971.610     3376.445        3.134        1.463      182.526       61.395        0.113      343.151       19.058      857.250
05/28/2013  17:48:00     -220.833      -35.324      -14.706       68.131       59.702       40.341     4641.768     3564.376     1627.369        3.003        0.492      223.640       33.085        0.022      343.193       19.129      857.224
05/28/2013  17:49:00      -82.776      -19.977       19.799      110.755      104.973       60.219    12266.721    11019.239     3626.289        1.727        1.346       85.153       73.572        0.747      343.319       19.344      857.192
05/28/2013  17:50:00     -209.664        9.159       -4.741      107.013      104.511       45.598    11451.725    10922.567     2079.202        3.426        1.223      209.864       47.069        0.050      343.337       19.375      857.196
05/28/2013  17:51:00     -262.562      -77.751       -8.841      142.392      139.694       62.229    20275.573    19514.306     3872.479        5.935        2.183      273.832       74.098        0.073      343.094       18.960      857.163
05/28/2013  17:52:00     -251.054      -84.106      -10.064      111.275       98.043       52.145    12382.101     9612.385     2719.053        4.745        1.236      264.767       55.809        0.044      343.114       18.995      857.145
05/28/2013  17:53:00     -112.729      -81.244        5.852       78.012       99.034       55.334     6085.923     9807.830     3061.896        1.915        0.948      138.955       57.986        0.174      343.137       19.036      857.148
05/28/2013  17:54:00     -229.153      -94.672       -3.044      149.895      126.544       66.048    22468.504    16013.389     4362.316        5.216        2.142      247.939       63.458        0.066      343.200       19.142      857.142
05/28/2013  17:55:00     -390.212     -117.255       -3.284      111.542      101.361       59.767    12441.511    10274.090     3572.085        9.615        1.314      407.448       57.355        0.020      342.903       18.635      857.163
05/28/2013  17:56:00     -255.614      -79.640       -1.074      107.364       84.950       48.779    11526.938     7216.477     2379.345        4.640        1.056      267.733       49.899        0.035      342.971       18.751      857.166
05/28/2013  17:57:00     -139.136      -37.945        2.312       71.090       76.352       52.417     5053.855     5829.605     2747.581        1.722        0.682      144.217       43.962        0.093      343.144       19.048      857.139
05/28/2013  17:58:00     -141.118        8.246       -3.789      105.008       90.753       40.910    11026.706     8236.125     1673.667        2.046        1.047      141.359       44.424        0.099      343.246       19.220      857.142
05/28/2013  17:59:00      -73.631       24.394        7.475       98.961       68.397       38.200     9793.341     4678.196     1459.248        1.100        0.797       77.566       30.910        0.159      343.313       19.336      857.139
05/28/2013  18:00:00     -160.347       29.792       -4.652      141.972      117.247       58.062    20156.064    13746.849     3371.232        3.194        1.864      163.091       68.481        0.176      343.311       19.331      857.163
05/28/2013  18:01:00     -290.661       70.031      -45.944      132.402       87.649       54.066    17530.166     7682.408     2923.139        5.981        1.407      298.979       50.564        0.029      343.100       18.971      857.146
05/28/2013  18:02:00     -233.443      141.160      -47.757      100.505       90.412       46.281    10101.338     8174.295     2141.935        4.856        1.021      272.803       32.402        0.014      343.140       19.038      857.161
05/28/2013  18:03:00     -126.839      203.544      -16.677       94.924      126.850       63.852     9010.576    16090.977     4077.104        4.348        1.459      239.830       68.219        0.081      343.083       18.943      857.186
05/28/2013  18:04:00     -203.723      115.703      -42.373       93.442      107.406       48.394     8731.428    11536.132     2342.026        3.964        1.130      234.287       37.454        0.026      343.142       19.041      857.232
05/28/2013  18:05:00     -177.066       93.925      -25.143       96.029      116.615       59.932     9221.612    13598.975     3591.843        3.361        1.321      200.435       41.094        0.042      343.162       19.077      857.268
05/28/2013  18:06:00     -240.955        7.405      -20.087      140.611      105.680       64.638    19771.319    11168.353     4178.022        4.681        1.756      241.069       72.320        0.090      343.236       19.203      857.259
05/28/2013  18:07:00     -283.778      -31.389      -10.314      120.523      102.870       62.518    14525.741    10582.289     3908.511        5.531        1.451      285.509       60.529        0.045      343.210       19.158      857.272
05/28/2013  18:08:00     -311.158      -21.744      -26.020      137.702       82.520       53.429    18961.963     6809.625     2854.627        6.329        1.431      311.917       58.168        0.035      343.238       19.205      857.278
05/28/2013  18:09:00     -254.616      -36.004       -9.251      124.381       85.794       52.897    15470.602     7360.552     2798.125        4.592        1.281      257.149       49.550        0.037      343.397       19.477      857.310
05/28/2013  18:10:00     -353.052       34.775      -51.032      119.613       90.110       57.608    14307.151     8119.876     3318.739        7.710        1.287      354.761       44.892        0.016      343.151       19.057      857.319
05/28/2013  18:11:00     -319.464      -50.270      -21.082       93.446       80.447       52.990     8732.235     6471.781     2807.913        6.152        0.901      323.395       27.631        0.007      343.196       19.133      857.311
05/28/2013  18:12:00     -164.756      -18.949      -25.605       78.084       64.263       35.657     6097.107     4129.773     1271.451        1.983        0.575      165.842       20.893        0.016      343.316       19.341      857.296
05/28/2013  18:13:00     -202.907      140.093      -32.655      146.783      134.876       75.275    21545.109    18191.426     5666.329        5.363        2.270      246.571       60.508        0.060      343.269       19.259      857.271
05/28/2013  18:14:00     -217.784      -33.618        8.065      121.413      122.400       74.257    14741.137    14981.753     5514.086        4.193        1.762      220.363       75.934        0.119      343.452       19.571      857.263
05/28/2013  18:15:00     -351.949      -42.264      -22.655      177.672      140.137       66.602    31567.214    19638.244     4435.885        9.090        2.782      354.477       79.821        0.051      343.276       19.270      857.255
05/28/2013  18:16:00     -237.686       27.431        3.429      137.445      103.227       69.410    18891.041    10655.880     4817.803        4.581        1.718      239.264       58.435        0.060      343.227       19.188      857.292
05/28/2013  18:17:00     -172.401      -54.058       -1.102      107.349      111.738       55.513    11523.775    12485.316     3081.671        2.986        1.355      180.677       51.069        0.080      343.277       19.272      857.307
05/28/2013  18:18:00     -256.664     -102.174       -9.906      130.728       68.561       55.520    17089.701     4700.568     3082.416        5.064        1.244      276.253       60.770        0.048      342.994       18.791      857.301
05/28/2013  18:19:00     -335.563     -185.843      -11.020      132.820       89.602       58.405    17641.155     8028.584     3411.138        8.817        1.454      383.588       64.388        0.028      342.912       18.649      857.283
05/28/2013  18:20:00     -130.045      -86.516        9.800      128.807       82.883       38.085    16591.271     6869.600     1450.481        2.470        1.246      156.195       48.844        0.098      343.069       18.921      857.257
05/28/2013  18:21:00     -241.826      -47.518      -17.133      106.380       90.665       50.679    11316.658     8220.201     2568.317        4.156        1.105      246.450       35.637        0.021      343.017       18.830      857.245
05/28/2013  18:22:00     -164.427       -1.806        1.618       69.667       80.997       23.418     4853.474     6560.590      548.412        1.950        0.598      164.437       20.057        0.015      343.114       18.996      857.190
05/28/2013  18:23:00      -11.621      -84.292        8.014       45.732       78.510       41.116     2091.389     6163.829     1690.552        0.862        0.497       85.089       31.315        0.135      343.104       18.981      857.158
05/28/2013  18:24:00      -35.196      -19.696       -6.512      110.695      142.846       61.198    12253.441    20404.971     3745.152        1.903        1.820       40.332       59.240        2.157      343.048       18.883      857.124
05/28/2013  18:25:00     -157.521       33.199      -34.075       84.723      122.181       39.511     7177.970    14928.165     1561.114        2.537        1.183      160.981       34.493        0.046      343.224       19.182      857.166
05/28/2013  18:26:00     -323.096      -25.488      -31.554      111.207       95.663       49.884    12366.914     9151.337     2488.414        6.502        1.200      324.100       47.710        0.022      343.090       18.954      857.183
05/28/2013  18:27:00     -272.362       18.649      -25.046      134.423       84.405       54.079    18069.510     7124.259     2924.572        5.163        1.406      272.999       63.693        0.054      343.020       18.835      857.183
05/28/2013  18:28:00     -434.893      -55.122      -38.138      150.359       96.972       55.345    22607.960     9403.484     3063.042       11.434        1.754      438.373       68.498        0.024      342.912       18.650      857.178
05/28/2013  18:29:00     -468.592       14.883      -44.823      100.922       82.007       59.778    10185.185     6725.067     3573.440       12.114        1.024      468.829       52.935        0.013      342.886       18.605      857.193
05/28/2013  18:30:00     -334.165      -40.398      -19.435      109.712       85.787       60.477    12036.822     7359.413     3657.493        6.836        1.153      336.598       57.176        0.029      343.002       18.803      857.193
05/28/2013  18:31:00     -226.246      -27.143       -9.875      128.864       78.505       47.913    16605.927     6163.067     2295.637        3.854        1.253      227.868       60.864        0.071      343.126       19.016      857.197
05/28/2013  18:32:00     -266.707      -46.158       -1.036       95.654       94.687       52.070     9149.655     8965.552     2711.311        4.704        1.041      270.671       46.645        0.030      343.071       18.922      857.180
05/28/2013  18:33:00     -309.842      -33.088      -29.148      104.802      106.535       52.076    10983.372    11349.755     2711.859        6.149        1.252      311.603       50.822        0.027      342.940       18.699      857.179
05/28/2013  18:34:00     -215.479       -8.044      -17.600      160.787       86.208       60.288    25852.549     7431.802     3634.612        4.186        1.846      215.629       61.147        0.080      343.088       18.951      857.169
05/28/2013  18:35:00     -196.838     -100.547       -7.873      100.594       61.769       33.849    10119.201     3815.426     1145.722        3.200        0.754      221.032       35.278        0.025      343.084       18.944      857.169
05/28/2013  18:36:00      -92.609      -54.864        6.230      155.630      118.959       64.482    24220.735    14151.230     4157.929        2.707        2.126      107.640       66.401        0.381      343.099       18.971      857.145
05/28/2013  18:37:00     -129.517        6.318       -9.414      153.502      131.196       39.677    23562.732    17212.496     1574.266        2.962        2.117      129.671       44.865        0.120      343.192       19.129      857.160
05/28/2013  18:38:00     -508.651     -120.844      -20.122      135.142      132.344       64.197    18263.468    17514.813     4121.270       15.681        1.995      522.809       68.038        0.017      342.920       18.664      857.162
05/28/2013  18:39:00     -242.887      -72.546       -1.918      130.931       90.616       54.328    17142.917     8211.258     2951.586        4.628        1.415      253.489       64.444        0.065      343.030       18.851      857.180
05/28/2013  18:40:00     -251.214      -99.665       -1.299      120.848      118.234       59.252    14604.337    13979.238     3510.772        5.256        1.605      270.262       58.028        0.046      342.941       18.700      857.173
05/28/2013  18:41:00     -160.858       15.420       12.692      112.764       75.276       49.834    12715.765     5666.542     2483.454        2.357        1.043      161.596       55.866        0.120      342.903       18.637      857.174
05/28/2013  18:42:00     -109.527       -8.893       -5.937       79.149       78.505       44.706     6264.513     6162.986     1998.617        1.327        0.721      109.887       52.752        0.230      343.036       18.864      857.161
05/28/2013  18:43:00     -239.265        1.787      -19.987       98.354       77.975       39.014     9673.537     6080.074     1522.075        3.746        0.864      239.272       34.964        0.021      343.034       18.858      857.161
05/28/2013  18:44:00     -185.513      -20.639      -16.141       81.073       75.599       47.705     6572.864     5715.222     2275.767        2.483        0.728      186.657       30.515        0.027      343.044       18.876      857.178
05/28/2013  18:45:00     -173.001       37.943      -17.303       87.649       68.695       46.532     7682.386     4718.979     2165.245        2.312        0.728      177.113       35.015        0.039      342.998       18.799      857.183
05/28/2013  18:46:00     -122.439       -8.316      -11.111       52.735       45.865       41.176     2780.990     2103.565     1695.430        1.088        0.329      122.721       31.055        0.064      343.183       19.115      857.185
05/28/2013  18:47:00     -126.018      -64.248        2.747      125.262       81.010       51.504    15690.496     6562.620     2652.689        2.246        1.245      141.451       47.634        0.113      343.057       18.900      857.183
05/28/2013  18:48:00     -235.619      -88.042       -3.181      108.006       71.384       41.819    11665.217     5095.740     1748.833        4.089        0.925      251.531       49.832        0.039      342.975       18.758      857.205
05/28/2013  18:49:00     -215.682      -13.360      -12.951       58.231       89.866       34.669     3390.849     8075.821     1201.908        2.976        0.633      216.096       29.646        0.019      343.022       18.837      857.202
05/28/2013  18:50:00     -173.177      -44.026       -2.943       88.038       52.497       34.808     7750.648     2755.918     1211.629        2.183        0.586      178.686       33.090        0.034      343.008       18.813      857.200
05/28/2013  18:51:00      -83.715       56.752        2.741       61.609       87.071       40.697     3795.717     7581.408     1656.277        1.163        0.652      101.139       36.092        0.127      343.070       18.923      857.181
05/28/2013  18:52:00     -118.901       -4.632       11.119       82.275       83.624       45.186     6769.106     6992.991     2041.792        1.504        0.790      118.991       45.965        0.149      342.944       18.707      857.174
05/28/2013  18:53:00     -111.733      120.710      -20.471       67.670      103.500       59.777     4579.293    10712.196     3573.245        2.317        0.943      164.485       50.331        0.094      342.825       18.505      857.150
05/28/2013  18:54:00     -228.156       32.320      -27.135       86.484      104.800       48.348     7479.516    10982.965     2337.492        3.731        1.040      230.434       16.492        0.005      342.833       18.516      857.130
05/28/2013  18:55:00     -212.340      -75.034      -10.785      131.591       87.398       64.703    17316.274     7638.415     4186.489        3.998        1.457      225.207       60.411        0.072      342.795       18.452      857.126
05/28/2013  18:56:00     -288.155     -142.660      -15.228      127.171      108.786       50.394    16172.584    11834.496     2539.585        6.708        1.527      321.536       38.097        0.014      342.765       18.400      857.152
05/28/2013  18:57:00     -290.831     -219.564        1.812      163.564      107.222       75.373    26753.264    11496.488     5681.023        8.836        2.197      364.405       79.328        0.047      342.687       18.268      857.183
05/28/2013  18:58:00     -132.719      -43.737        7.712      141.450       86.305       56.607    20008.000     7448.537     3204.379        2.512        1.533      139.740       78.159        0.313      342.695       18.282      857.207
05/28/2013  18:59:00      -62.012      -24.638        1.520       99.004       89.000       58.745     9801.781     7920.975     3450.937        1.281        1.059       66.727       64.077        0.922      342.662       18.227      857.195
05/28/2013  19:00:00     -126.090      -20.813       -8.689       65.211       46.651       36.236     4252.472     2176.306     1313.054        1.207        0.387      127.796       32.170        0.063      342.699       18.291      857.187
05/28/2013  19:01:00     -108.396       12.321        2.631       63.423       50.029       29.937     4022.422     2502.915      896.217        0.966        0.371      109.094       31.812        0.085      342.725       18.335      857.182
05/28/2013  19:02:00     -140.676       -3.744       -8.402       70.310       68.646       39.093     4943.493     4712.249     1528.234        1.553        0.559      140.725       29.181        0.043      342.768       18.408      857.165
05/28/2013  19:03:00     -102.581       -0.413       -2.886       68.915       72.926       31.157     4749.263     5318.231      970.788        1.078        0.552      102.582       27.222        0.070      342.654       18.215      857.139
05/28/2013  19:04:00     -150.442       22.470        2.075       56.575       55.728       40.116     3200.682     3105.571     1609.317        1.553        0.396      152.111       39.916        0.069      342.671       18.243      857.142
05/28/2013  19:05:00     -189.003       -9.649      -12.958       45.140       53.405       27.492     2037.625     2852.108      755.814        2.081        0.282      189.249       26.240        0.019      342.702       18.295      857.159
05/28/2013  19:06:00     -124.353      -48.609       -4.256       56.251       52.004       26.163     3164.147     2704.457      684.501        1.220        0.328      133.516       15.198        0.013      342.736       18.354      857.165
05/28/2013  19:07:00      -96.275      -51.178        7.865      110.766       60.949       40.304    12269.143     3714.767     1624.374        1.478        0.880      109.032       40.165        0.136      342.630       18.172      857.175
05/28/2013  19:08:00     -145.252      -44.488       -4.974      113.819       45.911       39.618    12954.716     2107.855     1569.565        1.986        0.832      151.912       50.461        0.110      342.767       18.406      857.159
05/28/2013  19:09:00     -182.465       22.945       -6.344       64.242       53.509       29.592     4127.054     2863.185      875.677        2.086        0.393      183.902       27.723        0.023      342.813       18.483      857.137
05/28/2013  19:10:00       21.772       -8.872       33.284       45.097       32.660       32.011     2033.715     1066.697     1024.716        0.289        0.206       23.510       28.660        1.486      342.817       18.492      857.117
05/28/2013  19:11:00     -153.640      -82.607       -4.508       77.426       63.082       40.009     5994.850     3979.337     1600.707        2.101        0.579      174.440       43.624        0.063      342.776       18.422      857.136
05/28/2013  19:12:00     -152.881      -56.227        1.503       74.137       63.336       36.744     5496.292     4011.484     1350.158        1.870        0.543      162.893       37.583        0.053      342.785       18.437      857.150
05/28/2013  19:13:00     -181.495     -103.865       -5.221      106.810       91.598       36.385    11408.323     8390.229     1323.889        3.244        1.056      209.114       41.903        0.040      342.766       18.402      857.168
05/28/2013  19:14:00     -228.849      -32.703      -18.168      121.472      112.963       45.825    14755.384    12760.724     2099.931        4.169        1.481      231.174       40.860        0.031      342.773       18.415      857.132
05/28/2013  19:15:00     -131.047      -61.173        7.793       77.017      128.966       51.282     5931.619    16632.303     2629.892        2.308        1.260      144.621       54.070        0.140      342.785       18.435      857.093
05/28/2013  19:16:00      -92.593      -54.946      -14.620       55.651       40.524       28.180     3096.979     1642.194      794.117        0.867        0.277      107.669       27.472        0.065      342.831       18.517      857.069
05/28/2013  19:17:00     -129.181      -41.346       -1.330       58.672       50.315       31.053     3442.408     2531.615      964.307        1.267        0.347      135.636       29.184        0.046      342.943       18.706      857.063
05/28/2013  19:18:00     -181.437      -40.662      -18.531       78.064      122.160       41.816     6094.062    14923.109     1748.604        2.884        1.138      185.937       37.619        0.041      342.831       18.513      857.073
05/28/2013  19:19:00      -56.753      103.713      -16.616       61.189       64.424       40.847     3744.115     4150.460     1668.512        1.191        0.478      118.226       29.556        0.063      342.775       18.422      857.100
05/28/2013  19:20:00     -166.690       39.493      -17.765       65.962       72.153       40.659     4350.983     5206.124     1653.130        2.043        0.561      171.305       31.129        0.033      342.808       18.474      857.118
05/28/2013  19:21:00     -103.312       44.347       -6.372       58.224       74.126       45.100     3390.061     5494.716     2033.989        1.180        0.546      112.428       31.885        0.080      342.848       18.544      857.138
05/28/2013  19:22:00     -251.904      -83.814      -11.661       82.742       81.771       45.819     6846.178     6686.559     2099.368        4.312        0.782      265.481       31.204        0.014      342.793       18.448      857.165
05/28/2013  19:23:00     -220.134      -98.758        0.499       79.674       77.794       48.828     6347.913     6051.940     2384.127        3.650        0.739      241.272       43.445        0.032      342.705       18.298      857.189
05/28/2013  19:24:00     -261.049      -60.901      -16.599      130.099       88.215       54.288    16925.826     7781.938     2947.226        4.989        1.383      268.059       60.081        0.050      342.744       18.365      857.201
05/28/2013  19:25:00     -251.818     -118.827       -0.860      132.478       78.137       53.644    17550.446     6105.388     2877.625        5.203        1.327      278.446       55.300        0.039      342.686       18.266      857.217
05/28/2013  19:26:00     -318.055      -75.135      -18.341      178.617      106.165       56.198    31903.968    11270.984     3158.249        7.673        2.317      326.809       71.686        0.048      342.640       18.188      857.225
05/28/2013  19:27:00     -290.503      -71.037      -10.109      137.365      121.250       58.840    18869.126    14701.564     3462.113        6.328        1.852      299.062       54.827        0.034      342.643       18.194      857.245
05/28/2013  19:28:00     -240.670      -86.450        0.153       94.525       92.627       49.119     8934.908     8579.705     2412.648        4.266        0.996      255.725       51.276        0.040      342.666       18.231      857.244
05/28/2013  19:29:00     -199.408      -16.302      -10.612      104.495       75.635       47.346    10919.273     5720.659     2241.630        2.951        0.944      200.074       56.933        0.081      342.653       18.211      857.241
05/28/2013  19:30:00     -235.579      -30.143      -12.514       98.595       85.375       42.472     9721.045     7288.899     1803.893        3.769        0.941      237.499       46.340        0.038      342.696       18.282      857.219
05/28/2013  19:31:00     -322.840      -19.682      -30.128      114.152      112.872       51.046    13030.755    12739.997     2605.691        6.694        1.419      323.439       53.883        0.028      342.652       18.207      857.200
05/28/2013  19:32:00     -266.104      -75.224      -20.364      131.337      110.077       53.654    17249.514    12117.052     2878.752        5.456        1.612      276.532       61.993        0.050      342.609       18.136      857.177
05/28/2013  19:33:00     -141.043       -6.963       -5.979      123.894       60.239       51.966    15349.616     3628.781     2700.464        2.082        1.084      141.215       47.192        0.112      342.597       18.117      857.166
05/28/2013  19:34:00      -94.405      -20.727        3.358       75.548       52.647       35.300     5707.518     2771.692     1246.072        0.954        0.486       96.654       41.186        0.182      342.619       18.156      857.160
05/28/2013  19:35:00     -102.376        1.032       -4.872       88.395       66.725       36.972     7813.723     4452.181     1366.951        1.207        0.682      102.381       37.676        0.135      342.660       18.224      857.137
05/28/2013  19:36:00     -244.161      -52.138      -12.931       79.656       92.030       43.704     6345.056     8469.449     1910.005        3.961        0.836      249.666       25.821        0.011      342.570       18.068      857.130
05/28/2013  19:37:00     -273.682      -74.968      -20.438       90.242       82.665       48.224     8143.542     6833.472     2325.555        4.912        0.865      283.765       47.177        0.028      342.589       18.101      857.138
05/28/2013  19:38:00     -199.603      -49.369       -3.748       87.203      102.749       53.289     7604.352    10557.314     2839.684        3.164        1.050      205.617       46.404        0.051      342.609       18.135      857.153
05/28/2013  19:39:00     -189.698      -91.481       -5.615       98.098       60.416       42.698     9623.170     3650.131     1823.090        2.974        0.755      210.604       36.545        0.030      342.556       18.045      857.180
05/28/2013  19:40:00     -215.281      -23.542      -20.367       69.853       88.855       39.096     4879.473     7895.261     1528.513        3.081        0.715      216.564       25.479        0.014      342.571       18.070      857.203
05/28/2013  19:41:00     -196.734      -44.489      -20.516       79.112       77.783       39.732     6258.715     6050.251     1578.642        2.749        0.694      201.701       23.678        0.014      342.535       18.010      857.218
05/28/2013  19:42:00     -235.883      -58.388      -21.534       75.457       56.266       41.021     5693.762     3165.814     1682.714        3.503        0.527      243.002       39.192        0.026      342.453       17.869      857.215
05/28/2013  19:43:00     -226.566      -69.838       -6.522      100.759       77.107       52.219    10152.346     5945.467     2726.792        3.754        0.941      237.086       52.087        0.048      342.431       17.832      857.200
05/28/2013  19:44:00     -291.507      -45.671      -33.167      103.142       70.272       45.732    10638.282     4938.196     2091.384        5.291        0.883      295.063       50.866        0.030      342.431       17.832      857.207
05/28/2013  19:45:00     -274.951      -46.510      -29.480       71.297       73.427       36.039     5083.299     5391.593     1298.793        4.520        0.589      278.857       29.183        0.011      342.381       17.747      857.206
05/28/2013  19:46:00     -198.060      -49.038      -12.401       93.586       80.464       41.170     8758.419     6474.473     1694.963        2.935        0.846      204.040       45.054        0.049      342.364       17.721      857.212
05/28/2013  19:47:00     -272.330       12.824      -23.268       89.678       92.357       44.576     8042.072     8529.796     1987.015        4.671        0.928      272.632       40.513        0.022      342.334       17.667      857.231
05/28/2013  19:48:00     -281.922        4.697      -21.428       96.783       70.184       43.133     9366.973     4925.845     1860.460        4.805        0.808      281.961       48.377        0.029      342.323       17.649      857.259
05/28/2013  19:49:00     -167.972      -53.278       -3.280       82.929       89.230       46.736     6877.148     7961.914     2184.263        2.404        0.851      176.219       38.024        0.047      342.311       17.629      857.301
05/28/2013  19:50:00     -190.793      -60.004       -6.886      129.228       87.244       46.829    16699.930     7611.582     2192.936        3.327        1.325      200.006       59.212        0.088      342.283       17.582      857.342
05/28/2013  19:51:00     -154.762      -53.528       -1.666       87.143       60.361       40.402     7593.852     3643.438     1632.341        1.984        0.643      163.757       37.096        0.051      342.341       17.681      857.374
05/28/2013  19:52:00     -164.737      -74.296        4.288       92.278       82.866       51.640     8515.157     6866.766     2666.672        2.536        0.902      180.715       51.623        0.082      342.270       17.560      857.413
05/28/2013  19:53:00     -154.078      -27.783       -3.523       70.027       50.408       25.724     4903.833     2540.995      661.705        1.631        0.405      156.562       29.197        0.035      342.297       17.606      857.420
05/28/2013  19:54:00     -206.662      -63.476      -11.390       73.088       39.726       38.987     5341.872     1578.137     1519.981        2.765        0.422      216.191       39.101        0.033      342.233       17.497      857.434
05/28/2013  19:55:00     -150.100      -16.225        4.623       86.096       63.945       42.944     7412.494     4089.011     1844.227        1.808        0.667      150.974       52.984        0.123      342.211       17.460      857.423
05/28/2013  19:56:00     -216.767      -40.970      -12.379       95.307       76.189       56.799     9083.445     5804.808     3226.128        3.346        0.906      220.605       57.653        0.068      342.191       17.426      857.415
05/28/2013  19:57:00     -220.764       18.637      -17.240       74.452       71.698       43.677     5543.113     5140.565     1907.686        3.098        0.630      221.549       27.077        0.015      342.224       17.481      857.399
05/28/2013  19:58:00     -227.683      -40.691      -11.415       94.522       81.480       41.366     8934.495     6638.935     1711.157        3.545        0.864      231.291       35.588        0.024      342.198       17.438      857.392
05/28/2013  19:59:00     -263.244      -28.241      -23.879      109.885       69.323       43.348    12074.744     4805.677     1879.091        4.471        0.938      264.754       47.093        0.032      342.179       17.404      857.355
05/28/2013  20:00:00     -301.557      -58.890       -9.178      106.504       78.175       50.369    11343.003     6111.330     2537.000        5.724        1.000      307.254       55.882        0.033      342.155       17.364      857.327
05/28/2013  20:01:00     -215.189      -48.393      -10.988       96.542       69.955       41.654     9320.263     4893.707     1735.031        3.236        0.797      220.564       42.884        0.038      342.126       17.313      857.314
05/28/2013  20:02:00     -199.739      -56.885      -10.979       94.650       53.797       34.083     8958.611     2894.130     1161.621        2.813        0.651      207.682       24.969        0.014      342.130       17.321      857.284
05/28/2013  20:03:00     -176.957      -41.419       -1.298      105.886       60.879       41.677    11211.834     3706.284     1736.932        2.484        0.833      181.740       47.490        0.068      342.084       17.245      857.291
05/28/2013  20:04:00     -231.635      -45.552       -7.070       73.034       58.084       37.287     5333.932     3373.736     1390.322        3.294        0.505      236.072       35.761        0.023      342.096       17.261      857.288
05/28/2013  20:05:00     -261.372      -31.825       -9.293       98.485       58.622       49.288     9699.202     3436.547     2429.295        4.249        0.778      263.303       51.627        0.038      342.060       17.201      857.309
05/28/2013  20:06:00     -336.714      -32.552      -31.735       72.037       69.297       33.634     5189.274     4802.091     1131.239        6.328        0.556      338.284       25.175        0.006      342.096       17.262      857.323
05/28/2013  20:07:00     -282.976      -52.473      -12.582       78.422       58.260       43.598     6150.075     3394.192     1900.773        4.721        0.572      287.800       39.067        0.018      342.043       17.171      857.341
05/28/2013  20:08:00     -298.894      -97.674      -14.903       96.686       85.173       46.743     9348.277     7254.414     2184.907        5.894        0.939      314.448       50.672        0.026      342.053       17.190      857.359
05/28/2013  20:09:00     -332.694      -65.688      -10.120      104.957      101.632       61.639    11015.930    10329.048     3799.402        7.012        1.257      339.117       57.111        0.028      342.035       17.157      857.360
05/28/2013  20:10:00     -279.443      -42.530      -16.381      107.530       86.763       45.860    11562.664     7527.824     2103.163        5.068        1.060      282.661       46.173        0.027      342.040       17.169      857.351
05/28/2013  20:11:00     -253.061      -89.989       -8.235       51.312       82.634       37.417     2632.928     6828.338     1400.058        4.153        0.543      268.585       28.461        0.011      341.986       17.075      857.352
05/28/2013  20:12:00     -222.775      -87.497       -0.431      108.484       90.739       49.379    11768.832     8233.596     2438.310        3.986        1.122      239.341       49.915        0.043      341.967       17.045      857.339
05/28/2013  20:13:00     -205.968      -80.306        4.214       95.282       95.287       46.625     9078.612     9079.629     2173.850        3.461        1.017      221.070       44.880        0.041      341.961       17.034      857.324
05/28/2013  20:14:00     -246.773      -51.270       -9.589      114.739       76.116       43.953    13165.030     5793.657     1931.883        4.225        1.045      252.042       45.472        0.033      341.960       17.033      857.317
05/28/2013  20:15:00     -310.086      -49.766       -8.008      107.234       95.784       49.527    11499.170     9174.666     2452.933        6.091        1.156      314.054       54.881        0.031      341.956       17.026      857.329
05/28/2013  20:16:00     -307.204      -90.337      -19.601       85.726       74.567       44.986     7348.907     5560.168     2023.736        5.892        0.747      320.211       43.531        0.018      341.945       17.005      857.336
05/28/2013  20:17:00     -318.771      -72.296       -9.831       64.380       61.597       36.577     4144.781     3794.203     1337.841        5.811        0.464      326.866       34.992        0.011      341.934       16.988      857.356
05/28/2013  20:18:00     -184.707      -47.276       -4.570       83.673       55.079       37.019     7001.242     3033.654     1370.416        2.389        0.570      190.661       42.282        0.049      341.877       16.891      857.382
05/28/2013  20:19:00     -288.413      -30.996      -13.868      111.774       75.763       52.349    12493.531     5740.067     2740.412        5.265        1.049      290.074       58.428        0.041      341.888       16.910      857.419
05/28/2013  20:20:00     -217.887      -28.238        0.411      105.049       86.118       45.082    11035.383     7416.296     2032.402        3.437        1.024      219.709       52.663        0.057      341.868       16.877      857.450
05/28/2013  20:21:00     -239.061      -25.683       -5.635       94.208       63.219       47.277     8875.215     3996.599     2235.073        3.647        0.755      240.437       50.793        0.045      341.857       16.857      857.466
05/28/2013  20:22:00     -248.341      -36.984       -7.453       84.269       67.735       42.261     7101.249     4588.008     1785.987        3.828        0.674      251.080       46.459        0.034      341.848       16.842      857.467
05/28/2013  20:23:00     -190.906      -62.762       -6.643       84.078       59.730       37.935     7069.151     3567.680     1439.094        2.625        0.604      200.958       38.918        0.038      341.820       16.796      857.461
05/28/2013  20:24:00     -130.521        3.956        0.533       94.453       62.408       43.206     8921.365     3894.787     1866.794        1.586        0.734      130.581       50.535        0.150      341.805       16.771      857.451
05/28/2013  20:25:00     -158.923      -57.623       -0.431       94.441       63.203       32.818     8919.185     3994.669     1077.023        2.128        0.700      169.048       43.933        0.068      341.844       16.836      857.458
05/28/2013  20:26:00     -151.516      -69.379       -0.588       58.233       35.369       33.253     3391.088     1250.962     1105.739        1.676        0.287      166.645       28.799        0.030      341.831       16.816      857.454
05/28/2013  20:27:00     -148.600     -113.504        0.725       73.571       60.993       45.050     5412.735     3720.130     2029.500        2.306        0.558      186.990       42.141        0.051      341.794       16.753      857.446
05/28/2013  20:28:00     -122.860      -88.276        7.027       83.320       68.601       41.601     6942.152     4706.059     1730.680        1.816        0.669      151.285       48.042        0.101      341.781       16.731      857.442
05/28/2013  20:29:00     -154.619     -116.006        2.636      120.754       82.161       58.041    14581.479     6750.353     3368.721        3.103        1.235      193.299       65.518        0.115      341.747       16.672      857.442
05/28/2013  20:30:00     -150.646      -68.097       -1.108       69.921       66.029       36.875     4888.911     4359.829     1359.732        1.897        0.530      165.322       37.500        0.051      341.776       16.721      857.448
05/28/2013  20:31:00     -172.707     -120.195       -9.460       73.667       53.458       32.306     5426.855     2857.798     1043.681        2.684        0.466      210.415       19.477        0.009      341.784       16.735      857.456
05/28/2013  20:32:00     -196.371      -41.260      -13.915       65.470       69.504       35.178     4286.342     4830.743     1237.485        2.540        0.518      200.659       32.077        0.026      341.736       16.652      857.455
05/28/2013  20:33:00     -131.019      -93.270        3.246      114.959       83.118       51.315    13215.668     6908.531     2633.273        2.431        1.138      160.827       56.693        0.124      341.701       16.593      857.452
05/28/2013  20:34:00     -193.551     -126.094       -5.354      112.521       81.858       53.186    12660.997     6700.718     2828.743        3.779        1.110      231.002       57.776        0.063      341.716       16.616      857.444
05/28/2013  20:35:00     -154.628      -82.508        2.807      116.719       79.266       58.091    13623.311     6283.080     3374.578        2.700        1.164      175.264       60.660        0.120      341.698       16.590      857.449
05/28/2013  20:36:00     -190.167     -113.244       -0.464      137.982       74.579       52.962    19038.901     5561.981     2804.967        3.819        1.370      221.332       61.976        0.078      341.698       16.588      857.451
05/28/2013  20:37:00     -191.619      -84.445       -7.756      139.437      102.842       54.782    19442.808    10576.420     3001.045        3.846        1.651      209.401       66.413        0.101      341.663       16.529      857.459
05/28/2013  20:38:00     -177.804     -107.895       -5.141      107.322       70.820       50.443    11518.025     5015.522     2544.504        3.118        0.954      207.980       55.430        0.071      341.661       16.526      857.459
05/28/2013  20:39:00     -150.661      -94.844        1.467      102.550       94.772       59.767    10516.509     8981.689     3572.068        2.738        1.154      178.029       60.897        0.117      341.651       16.510      857.480
05/28/2013  20:40:00     -201.672     -111.383      -13.496       86.770       99.730       53.715     7528.973     9945.990     2885.325        3.681        1.018      230.386       53.973        0.055      341.618       16.453      857.505
05/28/2013  20:41:00     -181.244      -70.261       -1.408      104.424       85.166       48.890    10904.468     7253.164     2390.185        2.916        1.027      194.386       56.851        0.086      341.628       16.471      857.509
05/28/2013  20:42:00     -151.045     -104.525       -0.049       82.954       87.172       54.133     6881.321     7598.923     2930.420        2.557        0.871      183.685       47.696        0.067      341.626       16.467      857.524
05/28/2013  20:43:00     -194.795     -120.696       -8.958       99.857       85.397       49.906     9971.377     7292.721     2490.587        3.617        0.988      229.157       58.363        0.065      341.612       16.444      857.531
05/28/2013  20:44:00     -225.637     -131.527       -0.050      129.867       92.277       57.873    16865.431     8515.040     3349.271        4.847        1.436      261.173       63.761        0.060      341.589       16.404      857.542
05/28/2013  20:45:00     -170.338     -137.844        5.387      119.092       92.289       63.229    14182.901     8517.238     3997.959        3.737        1.335      219.125       63.642        0.084      341.579       16.386      857.560
05/28/2013  20:46:00     -180.312      -87.209       -6.831      121.789       90.901       54.565    14832.481     8263.047     2977.316        3.311        1.304      200.295       49.888        0.062      341.563       16.358      857.583
05/28/2013  20:47:00     -198.608      -89.700      -16.366      116.324       79.714       48.812    13531.302     6354.244     2382.622        3.501        1.113      217.925       54.391        0.062      341.557       16.348      857.599
05/28/2013  20:48:00     -156.835     -134.042       13.902      128.210      102.674       69.360    16437.823    10541.967     4810.856        3.727        1.590      206.312       75.354        0.133      341.519       16.284      857.607
05/28/2013  20:49:00     -205.244     -129.821      -19.629      121.535       97.434       58.981    14770.684     9493.352     3478.773        4.355        1.387      242.855       40.585        0.028      341.561       16.355      857.622
05/28/2013  20:50:00     -278.539     -199.058      -22.653      128.373      128.094       72.099    16479.589    16407.961     5198.251        7.790        1.904      342.357       75.699        0.049      341.540       16.320      857.627
05/28/2013  20:51:00     -219.869     -180.775       -4.670      173.326      130.608       66.574    30041.874    17058.407     4432.075        6.628        2.577      284.644       77.900        0.075      341.553       16.341      857.635
05/28/2013  20:52:00     -312.865     -194.210        0.702      164.767      147.729       83.987    27148.026    21823.770     7053.736        9.580        2.801      368.241       90.379        0.060      341.550       16.337      857.630
05/28/2013  20:53:00     -311.822     -227.992      -28.478      171.799      130.825       75.735    29514.795    17115.205     5735.728       10.119        2.618      386.282       84.370        0.048      341.555       16.346      857.613
05/28/2013  20:54:00     -322.123     -120.790       -8.838      145.654      116.259       69.666    21214.971    13516.270     4853.299        7.900        1.979      344.025       61.060        0.032      341.527       16.297      857.613
05/28/2013  20:55:00     -333.072     -115.564      -14.293      151.770      103.852       56.085    23034.268    10785.294     3145.489        8.072        1.848      352.550       69.102        0.038      341.529       16.302      857.610
05/28/2013  20:56:00     -290.837     -139.412      -18.988      164.585      124.592       66.294    27088.152    15523.084     4394.927        7.569        2.350      322.524       91.733        0.081      341.499       16.251      857.612
05/28/2013  20:57:00     -361.762     -183.175      -14.338      124.072      172.122       73.698    15393.775    29625.904     5431.335       10.753        2.523      405.493       64.484        0.025      341.499       16.251      857.599
05/28/2013  20:58:00     -237.704     -154.117       12.286      190.267      158.065       86.532    36201.694    24984.700     7487.767        7.453        3.434      283.293      100.654        0.126      341.500       16.253      857.602
05/28/2013  20:59:00     -362.730     -229.782      -17.020      171.620      118.054       71.856    29453.556    13936.658     5163.292       11.660        2.428      429.387       70.183        0.027      341.512       16.272      857.598
05/28/2013  21:00:00     -257.254      -77.818        6.431      177.090      138.310       74.326    31360.828    19129.774     5524.292        6.414        2.801      268.766       87.382        0.106      341.482       16.221      857.619
05/28/2013  21:01:00     -392.934     -112.316      -18.117      201.350      151.811       86.133    40541.945    23046.622     7418.812       11.916        3.550      408.671      103.698        0.064      341.486       16.227      857.612
05/28/2013  21:02:00     -292.609     -132.154      -16.600      163.641      113.658       72.099    26778.455    12918.155     5198.200        7.412        2.245      321.068       80.916        0.064      341.479       16.217      857.627
05/28/2013  21:03:00     -271.391      -78.502       -1.426      142.796      137.811       62.300    20390.633    18991.937     3881.256        6.153        2.163      282.517       71.588        0.064      341.460       16.185      857.626
05/28/2013  21:04:00     -276.519     -119.213       -1.480      125.999      110.785       59.405    15875.803    12273.405     3528.996        6.117        1.584      301.122       65.747        0.048      341.440       16.150      857.624
05/28/2013  21:05:00     -301.417     -117.897      -21.264      127.817       68.813       53.002    16337.181     4735.292     2809.219        6.454        1.194      323.654       56.553        0.031      341.418       16.111      857.635
05/28/2013  21:06:00     -211.830      -11.312        9.822      149.576       92.990       70.830    22372.998     8647.080     5016.930        4.056        1.802      212.132       77.616        0.134      341.396       16.076      857.646
05/28/2013  21:07:00     -159.430      -99.166        5.513      125.121      112.454       64.905    15655.311    12645.837     4212.654        3.389        1.626      187.755       68.810        0.134      341.368       16.030      857.661
05/28/2013  21:08:00     -236.869     -106.788       -1.234      127.120       84.460       52.845    16159.372     7133.543     2792.559        4.679        1.304      259.828       62.363        0.058      341.350       15.998      857.674
05/28/2013  21:09:00     -188.449     -100.803       -9.381      119.527       80.017       43.964    14286.593     6402.682     1932.821        3.419        1.131      213.715       42.456        0.039      341.361       16.016      857.682
05/28/2013  21:10:00     -162.457      -84.022        7.635      148.656       99.043       59.161    22098.710     9809.476     3500.068        3.445        1.770      182.898       73.575        0.162      341.339       15.980      857.657
05/28/2013  21:11:00     -278.484      -98.525       -7.429      166.886      121.149       75.884    27851.032    14676.967     5758.357        6.779        2.414      295.399       86.659        0.086      341.361       16.017      857.657
05/28/2013  21:12:00     -363.722     -145.314      -38.269      162.277      123.975       66.319    26333.885    15369.735     4398.148       10.048        2.305      391.676       71.316        0.033      341.342       15.985      857.660
05/28/2013  21:13:00     -263.803     -127.405       -5.216      157.079      141.852       73.682    24673.731    20122.028     5428.969        6.803        2.511      292.958       74.067        0.064      341.329       15.964      857.668
05/28/2013  21:14:00     -167.643     -144.094        3.540      129.218      122.017       75.092    16697.244    14888.141     5638.797        4.305        1.861      221.060       83.121        0.141      341.296       15.908      857.672
05/28/2013  21:15:00     -279.711     -184.329       -8.259      153.989      121.856       96.248    23712.651    14848.926     9263.640        8.005        2.391      334.986       90.924        0.074      341.298       15.912      857.679
05/28/2013  21:16:00     -261.035     -130.142       -6.057      136.568      119.684       52.065    18650.950    14324.259     2710.781        6.039        1.784      291.678       55.137        0.036      341.289       15.897      857.709
05/28/2013  21:17:00     -392.836      -92.769      -13.628      186.018      120.525       77.252    34602.869    14526.219     5967.835       10.910        2.755      403.642       82.589        0.042      341.292       15.902      857.737
05/28/2013  21:18:00     -420.275      -88.246      -10.688      185.354      128.714       61.078    34355.999    16567.256     3730.570       11.958        2.733      429.440       72.686        0.029      341.267       15.858      857.753
05/28/2013  21:19:00     -294.146      -97.412       -5.188      158.375      107.474       58.338    25082.659    11550.698     3403.270        6.803        2.002      309.856       63.250        0.042      341.268       15.860      857.768
05/28/2013  21:20:00     -183.658      -94.690       -2.402      118.630      127.092       55.874    14073.110    16152.358     3121.910        3.802        1.667      206.631       49.253        0.057      341.247       15.825      857.794
05/28/2013  21:21:00     -278.383      -78.731        5.611      168.609      107.847       71.052    28429.058    11631.014     5048.327        6.441        2.255      289.302       87.358        0.091      341.234       15.801      857.791
05/28/2013  21:22:00     -237.109      -82.550        1.983      157.814      139.387       72.201    24905.270    19428.832     5212.924        5.628        2.477      251.068       72.042        0.082      341.225       15.787      857.810
05/28/2013  21:23:00     -326.189      -72.869      -12.893      174.631      141.245       79.972    30495.820    19950.174     6395.560        8.435        2.842      334.229       86.375        0.067      341.201       15.747      857.833
05/28/2013  21:24:00     -326.086      -94.502       -3.747      173.797      138.619       81.129    30205.512    19215.229     6581.933        8.563        2.800      339.503       86.820        0.065      341.205       15.752      857.852
05/28/2013  21:25:00     -249.367      -30.987        2.748      133.038      116.944       58.062    17699.109    13675.946     3371.161        4.894        1.737      251.285       56.650        0.051      341.188       15.725      857.866
05/28/2013  21:26:00     -279.357      -69.233       -0.686      215.575      151.064       81.932    46472.487    22820.209     6712.864        7.941        3.800      287.808      101.271        0.124      341.209       15.760      857.872
05/28/2013  21:27:00     -230.493     -118.142       -8.298      128.758      152.033       66.119    16578.727    23114.109     4371.692        5.560        2.203      259.007       53.929        0.043      341.216       15.772      857.889
05/28/2013  21:28:00     -120.514      -61.568       19.679      117.076      124.349       61.099    13706.730    15462.774     3733.033        2.580        1.645      135.331       68.358        0.255      341.189       15.726      857.904
05/28/2013  21:29:00     -296.934      -55.603      -16.225      164.068       97.465       65.197    26918.211     9499.333     4250.705        6.609        2.033      302.095       78.811        0.068      341.176       15.705      857.906
05/28/2013  21:30:00     -276.131     -189.936       -8.810      158.598      138.649       75.891    25153.171    19223.632     5759.428        8.126        2.507      335.148       77.152        0.053      341.175       15.703      857.898
05/28/2013  21:31:00     -250.370     -148.910      -17.164      141.443      108.124       67.410    20006.232    11690.811     4544.173        6.069        1.812      291.306       69.865        0.058      341.160       15.676      857.891
05/28/2013  21:32:00     -378.215      -37.986      -13.824      201.190      166.758       79.477    40477.238    27808.267     6316.671       10.963        3.730      380.117       81.873        0.046      341.145       15.650      857.880
05/28/2013  21:33:00     -368.899     -147.228       -6.927      143.459      143.098       65.604    20580.393    20477.130     4303.938       10.158        2.268      397.193       63.879        0.026      341.143       15.648      857.875
05/28/2013  21:34:00     -347.905     -108.755       -6.782      149.319      118.747       69.416    22296.215    14100.942     4818.517        8.706        2.061      364.507       74.362        0.042      341.125       15.616      857.889
05/28/2013  21:35:00     -309.777      -18.259       -5.048      156.327      123.378       80.595    24438.094    15222.081     6495.618        7.123        2.308      310.314       83.904        0.073      341.095       15.568      857.878
05/28/2013  21:36:00     -253.161      -74.836       -7.193      148.809      112.131       72.715    22144.075    12573.357     5287.424        5.487        2.000      263.990       76.920        0.085      341.112       15.594      857.894
05/28/2013  21:37:00     -372.798      -38.831      -17.282      218.678      146.801       77.106    47819.927    21550.486     5945.328       10.804        3.766      374.815       93.969        0.063      341.097       15.572      857.899
05/28/2013  21:38:00     -435.912      -87.741      -23.074      182.236      116.078       69.691    33209.912    13473.997     4856.880       12.489        2.577      444.655       81.436        0.034      341.096       15.567      857.919
05/28/2013  21:39:00     -473.165     -157.310      -32.563      221.822      184.986       84.365    49205.108    34219.903     7117.505       17.010        4.527      498.629       96.205        0.037      341.098       15.571      857.944
05/28/2013  21:40:00     -433.561      -51.889      -12.030      217.870      140.621       89.549    47467.448    19774.223     8018.943       13.302        3.763      436.655      106.041        0.059      341.088       15.555      857.972
05/28/2013  21:41:00     -397.385      -82.026      -11.025      183.104      180.038       75.433    33527.046    32413.854     5690.181       11.819        3.582      405.762       73.129        0.032      341.108       15.589      857.968
05/28/2013  21:42:00     -355.677      -48.525      -22.745      169.232      141.911       79.180    28639.367    20138.727     6269.481        9.220        2.752      358.972       71.555        0.040      341.095       15.566      857.963
05/28/2013  21:43:00     -188.069     -110.032      -11.078       99.858       90.539       57.272     9971.587     8197.240     3280.083        3.452        1.072      217.892       48.182        0.049      341.103       15.580      857.973
05/28/2013  21:44:00     -360.359     -168.612      -34.978      214.148      102.819       66.367    45859.408    10571.701     4404.627       11.016        3.042      397.854       80.194        0.041      341.124       15.615      857.972
05/28/2013  21:45:00     -193.795      -68.622       15.219      133.285      108.733       70.471    17764.789    11822.933     4966.185        3.852        1.728      205.585       76.996        0.140      341.068       15.521      857.954
05/28/2013  21:46:00     -210.196     -107.928       -0.064      129.566       96.556       55.357    16787.370     9323.014     3064.353        4.250        1.459      236.285       54.798        0.054      341.081       15.542      857.964
05/28/2013  21:47:00     -367.128     -132.896      -11.229      128.662      115.175       66.152    16553.886    13265.278     4376.063        9.338        1.710      390.442       58.260        0.022      341.074       15.530      857.957
05/28/2013  21:48:00     -275.903      -43.172       -4.912      137.046      106.805       68.986    18781.735    11407.244     4759.076        5.647        1.747      279.260       62.762        0.051      341.056       15.502      857.962
05/28/2013  21:49:00     -219.687      -56.654        8.407      119.175      106.748       62.997    14202.755    11395.156     3968.653        4.055        1.478      226.874       61.547        0.074      341.030       15.458      857.971
05/28/2013  21:50:00     -172.758     -180.272       -3.047      144.072      114.195       82.415    20756.868    13040.594     6792.155        5.146        2.029      249.687       83.823        0.113      341.034       15.464      857.968
05/28/2013  21:51:00     -361.357      -24.037      -31.695      153.281      109.048       58.361    23494.983    11891.381     3406.058        8.547        1.940      362.156       59.634        0.027      341.015       15.431      857.972
05/28/2013  21:52:00     -232.004      -62.994        4.534      126.510      127.950       59.661    16004.740    16371.254     3559.416        4.687        1.797      240.404       68.565        0.081      340.985       15.381      857.966
05/28/2013  21:53:00     -268.132      -84.404        2.007      163.084      144.811       68.826    26596.447    20970.343     4736.951        6.565        2.615      281.103       73.722        0.069      340.991       15.389      857.961
05/28/2013  21:54:00     -362.787      -94.407       -9.959      220.282      145.596       76.344    48524.132    21198.262     5828.419       10.808        3.778      374.869       76.676        0.042      340.989       15.387      857.946
05/28/2013  21:55:00     -346.438     -120.403       -8.263      147.636      179.173       77.504    21796.314    32102.840     6006.897        9.724        2.995      366.765       72.433        0.039      340.993       15.395      857.953
05/28/2013  21:56:00     -368.599     -222.494      -16.456      229.152      209.048       77.316    52510.783    43701.207     5977.758       14.390        5.109      430.545       97.309        0.051      341.019       15.437      857.917
05/28/2013  21:57:00     -255.202     -106.822        5.279      183.103      159.900       98.992    33526.821    25568.072     9799.433        7.272        3.445      276.657       89.369        0.104      341.010       15.424      857.873
05/28/2013  21:58:00     -413.323     -138.160      -17.874      296.699      169.471       98.537    88030.028    28720.369     9709.562       15.833        6.323      435.802      116.695        0.072      340.965       15.347      857.851
05/28/2013  21:59:00     -321.327      -36.227       -3.484      154.047      150.186       68.908    23730.340    22555.894     4748.305        7.780        2.552      323.362       71.503        0.049      340.949       15.320      857.840
05/28/2013  22:00:00     -228.097     -150.164      -24.460      152.361      129.929       78.506    23213.994    16881.566     6163.169        6.071        2.313      273.089       80.537        0.087      340.949       15.320      857.823
05/28/2013  22:01:00     -354.662     -254.826      -15.827      271.716      207.422      115.597    73829.403    43023.917    13362.757       16.057        6.511      436.717      145.926        0.112      340.924       15.276      857.818
05/28/2013  22:02:00     -327.284     -197.911       -6.799      228.034      191.830       94.771    51999.675    36798.865     8981.621       12.204        4.889      382.470      108.838        0.081      340.925       15.280      857.846
05/28/2013  22:03:00     -470.800     -234.499      -27.386      229.696      237.354      112.829    52760.259    56337.122    12730.314       19.959        6.091      525.968       88.978        0.029      340.912       15.256      857.848
05/28/2013  22:04:00     -368.349     -127.203      -14.123      187.994      131.934       82.429    35341.784    17406.613     6794.569       10.579        2.977      389.694       83.621        0.046      340.900       15.236      857.881
05/28/2013  22:05:00     -269.200     -107.152      -32.865      138.862      111.437       52.320    19282.714    12418.111     2737.360        5.973        1.722      289.741       58.843        0.041      340.902       15.239      857.895
05/28/2013  22:06:00     -336.979     -127.008      -17.181      182.206      176.029       97.151    33199.160    30986.366     9438.398       10.179        3.681      360.119      101.250        0.079      340.881       15.205      857.850
05/28/2013  22:07:00     -408.091      -42.512       -4.688      188.859      168.610       80.677    35667.598    28429.397     6508.826       11.947        3.530      410.299       93.961        0.052      340.859       15.169      857.841
05/28/2013  22:08:00     -338.001     -114.314        0.226      169.417      125.340       78.678    28702.009    15710.127     6190.250        8.895        2.530      356.809       68.388        0.037      340.844       15.142      857.830
05/28/2013  22:09:00     -363.826      -92.958       -2.580      247.191      157.615       89.014    61103.186    24842.513     7923.498       11.743        4.693      375.514      103.542        0.076      340.849       15.153      857.826
05/28/2013  22:10:00     -562.346     -143.705      -29.267      229.997      215.590       88.827    52898.721    46479.026     7890.160       22.249        5.363      580.418      103.654        0.032      340.828       15.116      857.843
05/28/2013  22:11:00     -307.001      -43.356      -11.051      248.413      135.459       97.937    61708.901    18349.217     9591.720        9.294        4.482      310.047      119.916        0.150      340.830       15.119      857.845
05/28/2013  22:12:00     -270.984      -31.991       11.016      178.126      150.830       99.197    31728.898    22749.665     9839.963        6.944        3.216      272.866      108.080        0.157      340.811       15.087      857.863
05/28/2013  22:13:00     -320.706     -110.027       -0.033      160.793      121.460       82.075    25854.506    14752.537     6736.376        8.114        2.367      339.055       80.184        0.056      340.806       15.077      857.862
05/28/2013  22:14:00     -320.712     -196.936        3.912      268.590      154.435      108.724    72140.695    23850.163    11820.928       12.472        5.391      376.350      138.667        0.136      340.811       15.087      857.874
05/28/2013  22:15:00     -346.425     -167.489      -12.730      185.652      235.198       93.210    34466.691    55317.897     8688.020       12.333        4.924      384.790      104.975        0.074      340.808       15.083      857.870
05/28/2013  22:16:00     -338.052     -133.864      -12.220      174.419      154.024       78.163    30421.996    23723.361     6109.495        9.629        3.013      363.591       58.694        0.026      340.815       15.092      857.879
05/28/2013  22:17:00     -415.769      -84.694      -12.165      222.121      150.621      100.792    49337.652    22686.588    10159.078       13.117        4.109      424.307      120.306        0.080      340.793       15.057      857.900
05/28/2013  22:18:00     -395.746     -130.516       -1.064      236.309      162.339       96.225    55841.868    26354.082     9259.217       13.254        4.573      416.713      112.593        0.073      340.777       15.029      857.913
05/28/2013  22:19:00     -287.429     -171.647       -7.227      209.896      156.265       82.264    44056.289    24418.729     6767.436        9.367        3.762      334.781      103.087        0.095      340.783       15.039      857.941
05/28/2013  22:20:00     -278.339      -88.781       16.397      237.716      174.183       99.604    56508.962    30339.885     9921.021        9.118        4.838      292.155      108.814        0.139      340.766       15.011      857.917
05/28/2013  22:21:00     -207.611     -129.689        1.545      204.513      162.563      110.752    41825.726    26426.882    12266.074        7.021        4.026      244.789      117.947        0.232      340.760       15.000      857.898
05/28/2013  22:22:00     -243.165      -83.951       -6.069      169.449      114.684       72.628    28712.854    13152.366     5274.762        5.667        2.357      257.249       77.269        0.090      340.755       14.992      857.886
05/28/2013  22:23:00     -376.981     -193.174       -9.089      161.632      140.219       73.557    26124.838    19661.503     5410.619       11.535        2.560      423.593       76.612        0.033      340.727       14.942      857.834
05/28/2013  22:24:00     -477.854     -103.704       -2.891      194.127      196.228       86.248    37685.172    38505.580     7438.655       16.135        4.181      488.977       88.406        0.033      340.725       14.942      857.792
05/28/2013  22:25:00     -375.257     -200.682      -10.307      192.547      182.127      100.556    37074.461    33170.075    10111.604       13.076        4.018      425.548       86.095        0.041      340.724       14.939      857.768
05/28/2013  22:26:00     -214.287      -84.494       24.916      182.239      179.967       92.089    33211.046    32388.056     8480.325        6.387        3.704      230.343      101.047        0.192      340.700       14.900      857.778
05/28/2013  22:27:00     -464.758     -182.402        0.381      208.530      195.524       92.959    43484.826    38229.641     8641.401       16.980        4.518      499.270      116.891        0.055      340.700       14.899      857.793
05/28/2013  22:28:00     -430.286     -161.300      -20.284      224.869      174.674       86.123    50565.914    30511.105     7417.131       15.002        4.425      459.526      108.935        0.056      340.707       14.910      857.822
05/28/2013  22:29:00     -221.347      -72.178        4.542      171.042      141.079       87.502    29255.530    19903.378     7656.670        5.551        2.841      232.818       98.620        0.179      340.706       14.910      857.835
05/28/2013  22:30:00     -257.385      -62.761        2.108      186.931      158.248       86.715    34943.110    25042.301     7519.426        6.884        3.375      264.927       92.582        0.122      340.719       14.930      857.853
05/28/2013  22:31:00     -220.040      -92.152       -5.665      220.994      143.033       95.817    48838.131    20458.374     9180.884        6.770        3.924      238.557      123.909        0.270      340.701       14.901      857.831
05/28/2013  22:32:00     -503.329     -240.921      -37.415      222.337      176.004       99.519    49433.709    30977.363     9904.104       20.153        4.516      558.017      101.770        0.033      340.680       14.864      857.832
05/28/2013  22:33:00     -358.220      -55.938      -10.182      203.103      147.709       85.330    41250.995    21817.950     7281.141       10.094        3.518      362.562      104.726        0.083      340.658       14.828      857.845
05/28/2013  22:34:00     -385.791     -102.232      -16.377      208.812      184.061       94.956    43602.459    33878.591     9016.561       12.301        4.325      399.107      106.035        0.071      340.648       14.811      857.858
05/28/2013  22:35:00     -428.186      -63.429      -13.147      217.985      143.628       90.986    47517.301    20629.054     8278.390       13.197        3.821      432.859      106.937        0.061      340.633       14.783      857.859
05/28/2013  22:36:00     -272.507      -63.651        4.975      176.599      112.553       71.832    31187.303    12668.221     5159.766        6.367        2.451      279.842       71.925        0.066      340.620       14.762      857.876
05/28/2013  22:37:00     -372.846     -141.459       -9.548      241.090      180.510       93.674    58124.178    32583.720     8774.758       12.928        4.974      398.779      106.715        0.072      340.663       14.835      857.889
05/28/2013  22:38:00     -404.577     -182.950      -24.844      250.305      170.306      101.739    62652.481    29004.121    10350.920       14.987        5.100      444.020      122.437        0.076      340.681       14.867      857.875
05/28/2013  22:39:00     -457.343     -116.768      -25.839      163.976      154.608       86.938    26888.173    23903.493     7558.280       14.090        2.917      472.014       68.973        0.021      340.681       14.866      857.867
05/28/2013  22:40:00     -465.740     -331.711      -26.711      257.900      214.796      107.649    66512.504    46137.351    11588.358       22.593        6.212      571.792      107.668        0.035      340.682       14.868      857.836
05/28/2013  22:41:00     -441.251     -161.792      -19.117      182.145      191.265      100.937    33176.632    36582.430    10188.260       15.058        3.997      469.977      110.535        0.055      340.645       14.805      857.810
05/28/2013  22:42:00     -361.583      -61.492       -3.919      234.079      172.301       81.545    54792.943    29687.687     6649.522       11.282        4.557      366.774      109.200        0.089      340.621       14.764      857.803
05/28/2013  22:43:00     -388.710       -9.088      -11.882      175.987      153.577       81.090    30971.258    23585.861     6575.668       10.622        3.057      388.816       87.828        0.051      340.626       14.772      857.796
05/28/2013  22:44:00     -618.007     -100.295      -52.560      198.147      159.601       92.793    39262.230    25472.535     8610.628       23.404        3.667      626.092       91.934        0.022      340.636       14.789      857.776
05/28/2013  22:45:00     -419.300      -90.912       -3.539      212.831      184.695       86.853    45297.016    34112.333     7543.502       13.551        4.348      429.042      100.173        0.055      340.644       14.803      857.781
05/28/2013  22:46:00     -395.880     -194.648      -23.686      211.236      176.278       75.781    44620.528    31073.811     5742.742       13.829        4.072      441.145       98.150        0.050      340.648       14.810      857.780
05/28/2013  22:47:00     -376.757      -33.691       -4.299      227.817      129.106       80.158    51900.700    16668.360     6425.242       10.903        3.750      378.261       96.248        0.065      340.633       14.784      857.799
05/28/2013  22:48:00     -582.862     -101.209      -27.999      259.620      164.073      116.727    67402.373    26920.036    13625.103       22.933        5.397      591.584      138.089        0.054      340.628       14.776      857.776
05/28/2013  22:49:00     -521.752      -72.763      -13.334      210.833      134.391       73.006    44450.379    18061.029     5329.944       17.276        3.392      526.801       87.592        0.028      340.628       14.776      857.808
05/28/2013  22:50:00     -389.626      -69.727       -9.700      189.987      176.618       86.535    36095.158    31194.039     7488.256       11.576        3.739      395.816       81.035        0.042      340.627       14.776      857.844
05/28/2013  22:51:00     -316.396     -193.362       -7.840      153.702      185.650       85.131    23624.409    34465.782     7247.232       10.144        3.267      370.804       80.751        0.047      340.650       14.813      857.859
05/28/2013  22:52:00     -250.413      -49.681       12.302      136.832      126.502       68.271    18723.001    16002.863     4660.879        5.235        1.969      255.294       57.115        0.050      340.639       14.795      857.855
05/28/2013  22:53:00     -375.561     -253.648       -6.091      222.153      183.649       88.737    49351.768    33726.879     7874.237       14.817        4.548      453.193      104.403        0.053      340.644       14.803      857.868
05/28/2013  22:54:00     -251.245     -104.771       10.574      227.940      145.861       92.252    51956.505    21275.576     8510.423        7.796        4.087      272.215      110.394        0.164      340.627       14.774      857.855
05/28/2013  22:55:00     -336.872     -147.949       -7.779      252.114      207.947      108.040    63561.272    43242.008    11672.561       12.693        5.924      367.929      128.553        0.122      340.644       14.803      857.834
05/28/2013  22:56:00     -436.529      -40.704       -8.334      241.739      160.052      102.742    58437.625    25616.711    10555.890       14.343        4.731      438.422      123.721        0.080      340.638       14.792      857.824
05/28/2013  22:57:00     -233.912      -89.768       -1.034      186.942      139.251       95.854    34947.233    19390.957     9187.995        6.314        3.176      250.546      107.818        0.185      340.649       14.813      857.835
05/28/2013  22:58:00     -249.963     -170.859        8.444      199.351      192.504       94.240    39740.830    37057.955     8881.175        8.870        4.284      302.778      113.998        0.142      340.653       14.819      857.823
05/28/2013  22:59:00     -365.314      -59.414      -14.690      184.232      116.634       81.948    33941.483    13603.521     6715.545        9.572        2.713      370.114       95.235        0.066      340.654       14.820      857.849
05/28/2013  23:00:00     -296.800     -213.323        3.431      163.437      152.442       88.623    26711.732    23238.543     7854.020        9.570        2.890      365.509       76.342        0.044      340.636       14.790      857.855
05/28/2013  23:01:00     -441.433     -146.858      -19.052      193.361      149.109       94.062    37388.598    22233.641     8847.570       14.262        3.423      465.221       94.809        0.042      340.636       14.789      857.839
05/28/2013  23:02:00     -387.394     -196.990      -18.828      241.463      142.340       91.391    58304.225    20260.557     8352.267       13.806        4.346      434.603      112.823        0.067      340.649       14.811      857.833
05/28/2013  23:03:00     -270.457     -170.304      -18.875      194.744      167.697       86.435    37925.082    28122.449     7471.009        8.800        3.676      319.610       97.946        0.094      340.640       14.797      857.822
05/28/2013  23:04:00     -198.446     -109.248       17.302      180.877      129.721       85.694    32716.613    16827.658     7343.487        5.424        2.844      226.530      102.763        0.206      340.640       14.797      857.819
05/28/2013  23:05:00     -136.260      -99.331       17.615      145.579      113.057       66.736    21193.266    12781.966     4453.676        3.358        1.921      168.622       70.523        0.175      340.633       14.785      857.806
05/28/2013  23:06:00     -334.574     -158.927       16.253      270.507      115.540       82.191    73174.196    13349.511     6755.409       11.535        4.664      370.402      112.113        0.092      340.616       14.756      857.802
05/28/2013  23:07:00     -216.274     -126.014       14.341      150.937      150.858       77.590    22781.940    22758.168     6020.215        5.720        2.578      250.308       83.003        0.110      340.604       14.736      857.810
05/28/2013  23:08:00     -397.769     -116.494        1.506      253.518      166.839       90.838    64271.151    27835.384     8251.614       13.606        5.018      414.477      105.976        0.065      340.585       14.704      857.773
05/28/2013  23:09:00     -601.676     -102.058      -20.707      208.410      173.289       88.065    43434.854    30029.203     7755.515       22.703        4.061      610.270       93.938        0.024      340.586       14.705      857.740
05/28/2013  23:10:00     -460.954     -158.794      -38.630      171.463      165.029       72.022    29399.452    27234.583     5187.145       15.049        3.091      487.539       77.737        0.025      340.583       14.700      857.712
05/28/2013  23:11:00     -352.658      -67.240       -7.129      205.901      139.359       89.676    42395.384    19420.802     8041.769        9.939        3.493      359.011      108.396        0.091      340.584       14.702      857.699
05/28/2013  23:12:00     -243.532      -88.643      -17.870      153.369      120.405       77.755    23522.170    14497.249     6045.866        5.577        2.203      259.162       81.141        0.098      340.581       14.699      857.721
05/28/2013  23:13:00     -329.174      -51.620       -7.294      225.845      110.461       80.795    51005.800    12201.534     6527.809        9.039        3.487      333.197       99.325        0.089      340.559       14.661      857.693
05/28/2013  23:14:00     -365.541      -63.189       -0.565      178.398      154.500       84.127    31825.950    23870.363     7077.384       10.018        3.139      370.962       83.310        0.050      340.568       14.675      857.692
05/28/2013  23:15:00     -280.179      -84.422       -0.411      146.424      119.952       68.546    21439.893    14388.534     4698.589        6.307        2.026      292.621       79.932        0.075      340.585       14.704      857.692
05/28/2013  23:16:00     -192.500      -44.536        5.139      210.393      147.726       79.401    44265.022    21823.034     6304.528        5.572        3.620      197.585       87.006        0.194      340.581       14.698      857.695
05/28/2013  23:17:00     -406.892        2.824      -13.296      198.515      158.481       73.672    39408.374    25116.264     5427.554       11.784        3.498      406.902       81.894        0.041      340.567       14.674      857.686
05/28/2013  23:18:00     -329.484      -45.692      -10.347      182.931      129.536       76.036    33463.763    16779.461     5781.429        8.338        2.801      332.637       83.699        0.063      340.584       14.702      857.685
05/28/2013  23:19:00     -207.464       -3.573       -1.890      191.961       84.503       55.262    36849.006     7140.789     3053.939        4.504        2.352      207.495       78.631        0.144      340.566       14.674      857.695
05/28/2013  23:20:00     -164.613     -126.030       -1.140      156.710      135.324       73.759    24558.075    18312.703     5440.371        4.564        2.416      207.319       84.835        0.167      340.557       14.656      857.698
05/28/2013  23:21:00     -202.372     -104.246        4.654      161.524      113.783       63.022    26089.975    12946.581     3971.721        4.742        2.150      227.644       69.716        0.094      340.543       14.634      857.721
05/28/2013  23:22:00     -403.389     -109.189      -13.520      259.063      147.180       79.091    67113.516    21661.904     6255.425       13.491        4.752      417.906       96.074        0.053      340.543       14.632      857.713
05/28/2013  23:23:00     -498.842     -169.757      -11.123      219.029      214.786      102.571    47973.564    46132.965    10520.795       19.119        5.231      526.935      121.829        0.053      340.577       14.690      857.679
05/28/2013  23:24:00     -287.914      -73.573       20.601      210.333      166.974       85.624    44239.820    27880.202     7331.439        8.408        3.973      297.166      108.095        0.132      340.532       14.615      857.665
05/28/2013  23:25:00     -319.590      -70.522       -9.775      152.847      124.994       63.437    23362.154    15623.620     4024.216        7.510        2.150      327.278       61.242        0.035      340.528       14.608      857.640
05/28/2013  23:26:00     -486.561      -51.376      -25.495      252.097      147.745       84.522    63553.074    21828.732     7143.912       16.626        4.626      489.266      107.247        0.048      340.528       14.608      857.641
05/28/2013  23:27:00     -345.832      -25.862       -5.554      195.327      165.004       84.430    38152.649    27226.321     7128.508        9.639        3.625      346.797       83.141        0.057      340.509       14.577      857.658
05/28/2013  23:28:00     -273.190      -21.417       -2.579      155.437       97.507       67.955    24160.643     9507.700     4617.924        5.669        1.914      274.028       74.025        0.073      340.508       14.575      857.671
05/28/2013  23:29:00     -271.023      -12.878       -3.578      140.328      109.113       70.713    19691.873    11905.562     5000.294        5.511        1.830      271.329       76.238        0.079      340.506       14.570      857.676
05/28/2013  23:30:00     -288.204     -121.177      -17.750      184.974      100.028       69.102    34215.501    10005.655     4775.122        7.352        2.450      312.642       77.707        0.062      340.521       14.598      857.684
05/28/2013  23:31:00     -297.761     -119.834        3.587      185.633      137.487       83.938    34459.551    18902.577     7045.574        8.171        3.020      320.970       94.032        0.086      340.508       14.574      857.688
05/28/2013  23:32:00     -244.135     -111.230        5.241      200.733      146.437       86.550    40293.755    21443.698     7490.856        7.060        3.461      268.280      100.906        0.141      340.499       14.559      857.667
05/28/2013  23:33:00     -291.035      -85.333       -9.523      174.280      123.248       81.447    30373.457    15190.046     6633.562        7.213        2.610      303.287       81.269        0.072      340.490       14.545      857.632
05/28/2013  23:34:00     -173.515     -116.357        5.395      139.580      120.270       71.883    19482.481    14464.855     5167.146        4.139        1.956      208.917       72.051        0.119      340.502       14.564      857.593
05/28/2013  23:35:00     -228.759      -69.057        4.373      159.767      133.895       84.919    25525.421    17927.824     7211.264        5.388        2.533      238.955       94.315        0.156      340.459       14.491      857.563
05/28/2013  23:36:00     -236.247     -105.578       -9.143      107.796      115.835       55.560    11619.927    13417.747     3086.885        4.758        1.406      258.765       39.646        0.023      340.474       14.516      857.521
05/28/2013  23:37:00     -294.752      -72.089      -14.632      153.945      108.193       67.797    23698.923    11705.791     4596.420        6.614        2.000      303.440       77.456        0.065      340.418       14.422      857.502
05/28/2013  23:38:00     -419.005      -76.679       -6.521      219.965      147.280       89.867    48384.487    21691.329     8076.108       12.981        3.908      425.963       95.750        0.051      340.426       14.435      857.449
05/28/2013  23:39:00     -412.225      -95.407      -19.448      153.214      132.696       76.384    23474.380    17608.117     5834.518       11.316        2.346      423.122       72.898        0.030      340.433       14.446      857.426
05/28/2013  23:40:00     -356.850      -59.585      -17.115      158.471       90.458       65.975    25113.058     8182.646     4352.687        8.441        1.882      361.790       66.626        0.034      340.410       14.410      857.403
05/28/2013  23:41:00     -384.368      -49.818      -24.010      179.048      129.709       70.191    32058.128    16824.466     4926.762       10.229        2.690      387.583       82.167        0.045      340.427       14.435      857.363
05/28/2013  23:42:00     -238.832        6.504        1.553      185.687       86.274       68.263    34479.798     7443.254     4659.804        5.183        2.329      238.920       88.869        0.138      340.374       14.348      857.326
05/28/2013  23:43:00     -259.132      -65.241      -15.438      132.171      108.531       45.169    17469.142    11778.934     2040.221        5.146        1.564      267.219       48.753        0.033      340.391       14.376      857.283
05/28/2013  23:44:00     -272.392     -128.935      -16.976      135.784      109.246       67.146    18437.318    11934.690     4508.521        6.299        1.744      301.366       66.604        0.049      340.398       14.388      857.232
05/28/2013  23:45:00     -330.422      -33.319       -5.068      167.123      165.901       79.030    27929.945    27523.093     6245.669        8.600        3.085      332.098       73.210        0.049      340.407       14.402      857.205
05/28/2013  23:46:00     -230.809      -94.441        7.232      185.448      121.758       69.754    34390.830    14825.083     4865.560        5.815        2.704      249.383       84.992        0.116      340.390       14.375      857.183
05/28/2013  23:47:00     -252.264      -47.601       -2.960      165.481      112.612       79.883    27383.825    12681.560     6381.343        5.617        2.322      256.716       85.636        0.111      340.380       14.358      857.163
05/28/2013  23:48:00     -292.130      -11.854       -7.520      199.144      114.524       79.881    39658.223    13115.665     6380.984        7.234        2.958      292.371       98.419        0.113      340.390       14.374      857.147
05/28/2013  23:49:00     -410.895      -63.241       -6.040      175.246      133.956       73.633    30711.293    17944.344     5421.758       11.346        2.704      415.733       75.512        0.033      340.415       14.416      857.136
05/28/2013  23:50:00     -567.247     -136.087      -45.539      176.046      218.453       86.665    30992.071    47721.820     7510.780       21.428        4.311      583.343       78.752        0.018      340.446       14.469      857.130
05/28/2013  23:51:00     -398.633     -238.596      -20.065      193.050      192.223       92.180    37268.338    36949.594     8497.165       14.946        4.136      464.582      100.417        0.047      340.427       14.437      857.115
05/28/2013  23:52:00     -207.892     -109.539        9.195      225.273      136.836       96.431    50747.714    18724.075     9298.997        6.702        3.939      234.985      108.553        0.213      340.420       14.427      857.121
05/28/2013  23:53:00     -296.719     -192.429        5.996      197.677      149.915       87.660    39076.132    22474.576     7684.220        9.716        3.462      353.654      104.691        0.088      340.445       14.466      857.150
05/28/2013  23:54:00     -346.231     -172.599       10.284      241.960      146.581       91.179    58544.729    21485.905     8313.577       11.904        4.417      386.868      103.711        0.072      340.418       14.422      857.146
05/28/2013  23:55:00     -407.731     -233.148      -10.248      222.023      149.835      107.239    49294.023    22450.383    11500.130       15.196        4.162      469.684      113.620        0.059      340.426       14.435      857.150
05/28/2013  23:56:00     -232.451     -170.076       10.465      217.838      146.703       88.639    47453.229    21521.635     7856.807        7.994        3.842      288.027      104.588        0.132      340.409       14.407      857.173
05/28/2013  23:57:00     -252.697      -46.941       19.984      171.602      128.423       73.296    29447.182    16492.486     5372.361        5.888        2.566      257.019       80.210        0.097      340.394       14.381      857.180
05/28/2013  23:58:00     -317.672      -74.840      -13.650      136.678      112.623       75.356    18680.854    12683.929     5678.529        7.187        1.852      326.369       78.469        0.058      340.371       14.341      857.208
05/28/2013  23:59:00     -436.859     -104.741      -21.169      179.190      137.106       78.789    32108.969    18798.109     6207.670       12.968        2.856      449.240       90.471        0.041      340.408       14.403      857.206
